[[{"header":{"parameterUnit":"m.s-1","parameterCategory":1,"la1":30.6,"la2":29.2853,"lo1":-89.7004,"lo2":-87.6739,"dy":0.0162,"dx":0.0183,"nx":112,"ny":82,"refTime":"2024-02-20T06:00:00:Z","depth":0,"parameterNumber":2,"parameterNumberName":"U-component_of_WINDS"},"data":[0.0,0.0,0.0,0.0,0.0,0.0,0.0,0.0,0.0,0.0,0.0,0.0,0.0,0.0,0.0,0.0,0.0,0.0,0.0,0.0,0.0,0.0,0.0,0.0,0.0,0.0,0.0,0.0,0.0,0.0,0.0,0.0,0.0,0.0,0.0,0.0,0.0,0.0,0.0,0.0,0.0,0.0,0.0,0.0,0.0,0.0,0.0,0.0,0.0,0.0,0.0,0.0,0.0,0.0,0.0,0.0,0.0,0.0,0.0,0.0,0.0,0.0,0.0,0.0,0.0,0.0,0.0,0.0,0.0,0.0,0.0,0.0,0.0,0.0,0.0,0.0,0.0,0.0,0.0,0.0,0.0,0.0,0.0,0.0,0.0,0.0,0.0,0.0,0.0,0.0,0.0,-4.1087,-4.1109,-4.1109,-4.1109,-4.1109,-4.1109,-4.1109,0.0,0.0,0.0,0.0,0.0,0.0,0.0,0.0,0.0,0.0,0.0,0.0,0.0,0.0,0.0,0.0,0.0,0.0,0.0,0.0,0.0,0.0,0.0,0.0,0.0,0.0,0.0,0.0,0.0,0.0,0.0,0.0,0.0,0.0,0.0,0.0,0.0,0.0,0.0,0.0,0.0,0.0,0.0,0.0,0.0,0.0,0.0,0.0,0.0,0.0,0.0,0.0,0.0,0.0,0.0,0.0,0.0,0.0,0.0,0.0,0.0,0.0,0.0,0.0,0.0,0.0,0.0,0.0,0.0,0.0,0.0,0.0,0.0,0.0,0.0,0.0,0.0,0.0,0.0,0.0,0.0,0.0,0.0,0.0,0.0,0.0,0.0,0.0,0.0,0.0,0.0,0.0,0.0,0.0,0.0,0.0,0.0,0.0,0.0,0.0,0.0,0.0,0.0,0.0,-4.1091,-4.1109,-4.1109,-4.1109,-4.1109,-4.1109,-4.1109,-4.1109,0.0,0.0,0.0,0.0,0.0,0.0,0.0,0.0,0.0,0.0,0.0,0.0,0.0,0.0,0.0,0.0,0.0,0.0,0.0,0.0,0.0,0.0,0.0,0.0,0.0,0.0,0.0,0.0,0.0,0.0,0.0,0.0,0.0,0.0,0.0,0.0,0.0,0.0,0.0,0.0,0.0,0.0,0.0,0.0,0.0,0.0,0.0,0.0,0.0,0.0,0.0,0.0,0.0,0.0,0.0,0.0,0.0,0.0,0.0,0.0,0.0,0.0,0.0,0.0,0.0,0.0,0.0,0.0,0.0,0.0,0.0,0.0,0.0,0.0,0.0,0.0,0.0,0.0,0.0,0.0,0.0,0.0,0.0,0.0,0.0,0.0,0.0,0.0,0.0,0.0,0.0,0.0,0.0,0.0,0.0,0.0,0.0,0.0,0.0,0.0,0.0,0.0,0.0,-4.0972,-4.1091,-4.1103,-4.1106,-4.1109,-4.1109,-4.1109,-4.1109,-4.1109,-4.1093,0.0,0.0,0.0,0.0,0.0,0.0,0.0,0.0,0.0,0.0,0.0,0.0,0.0,0.0,0.0,0.0,0.0,0.0,0.0,0.0,0.0,0.0,0.0,0.0,0.0,0.0,0.0,0.0,0.0,0.0,0.0,0.0,0.0,0.0,0.0,0.0,0.0,0.0,0.0,0.0,0.0,0.0,0.0,0.0,0.0,0.0,0.0,0.0,0.0,0.0,0.0,0.0,0.0,0.0,0.0,0.0,0.0,0.0,0.0,0.0,0.0,0.0,0.0,0.0,0.0,0.0,0.0,0.0,0.0,0.0,0.0,0.0,0.0,0.0,0.0,0.0,0.0,0.0,0.0,0.0,0.0,0.0,0.0,0.0,0.0,0.0,0.0,0.0,0.0,0.0,0.0,0.0,0.0,0.0,0.0,0.0,0.0,0.0,0.0,0.0,0.0,0.0,-4.0924,-4.1013,-4.1052,-4.1072,-4.1103,-4.1103,-4.1103,-4.1103,-4.1106,-4.1106,0.0,0.0,0.0,0.0,0.0,0.0,0.0,0.0,0.0,0.0,0.0,0.0,0.0,0.0,0.0,0.0,0.0,0.0,0.0,0.0,0.0,0.0,0.0,0.0,0.0,0.0,0.0,0.0,0.0,0.0,0.0,0.0,0.0,0.0,0.0,0.0,0.0,0.0,0.0,0.0,0.0,0.0,0.0,0.0,0.0,0.0,0.0,0.0,0.0,0.0,0.0,0.0,0.0,0.0,0.0,0.0,0.0,0.0,0.0,0.0,0.0,0.0,0.0,0.0,0.0,0.0,0.0,0.0,0.0,0.0,0.0,0.0,0.0,0.0,0.0,0.0,0.0,0.0,0.0,0.0,0.0,0.0,0.0,0.0,0.0,0.0,0.0,0.0,0.0,0.0,0.0,0.0,0.0,0.0,0.0,0.0,0.0,0.0,0.0,0.0,0.0,0.0,-4.0766,-4.0777,-4.0898,-4.1025,-4.1096,-4.1096,-4.1096,-4.1103,-4.1094,-4.1095,0.0,0.0,0.0,0.0,0.0,0.0,0.0,0.0,0.0,0.0,0.0,0.0,0.0,0.0,0.0,0.0,0.0,0.0,0.0,0.0,0.0,0.0,0.0,0.0,0.0,0.0,0.0,0.0,0.0,0.0,0.0,0.0,0.0,0.0,0.0,0.0,0.0,0.0,0.0,0.0,0.0,0.0,0.0,0.0,0.0,0.0,0.0,0.0,0.0,0.0,0.0,0.0,0.0,0.0,0.0,0.0,0.0,0.0,0.0,0.0,0.0,0.0,0.0,0.0,0.0,0.0,0.0,0.0,0.0,0.0,0.0,0.0,0.0,0.0,0.0,0.0,0.0,0.0,0.0,0.0,0.0,0.0,0.0,0.0,0.0,0.0,0.0,0.0,0.0,0.0,0.0,0.0,0.0,0.0,0.0,0.0,0.0,0.0,0.0,0.0,0.0,0.0,-4.069,-4.0747,0.0,-4.0956,-4.1016,-4.1091,-4.1093,-4.1096,-4.11,0.0,0.0,0.0,0.0,0.0,0.0,0.0,0.0,0.0,0.0,0.0,0.0,0.0,0.0,0.0,0.0,0.0,0.0,0.0,0.0,0.0,0.0,0.0,0.0,0.0,0.0,0.0,0.0,0.0,0.0,0.0,0.0,0.0,0.0,0.0,0.0,0.0,0.0,0.0,0.0,0.0,0.0,0.0,0.0,0.0,0.0,0.0,0.0,0.0,0.0,0.0,0.0,0.0,0.0,0.0,0.0,0.0,0.0,0.0,0.0,0.0,0.0,0.0,0.0,0.0,0.0,0.0,0.0,0.0,0.0,0.0,0.0,0.0,0.0,0.0,0.0,0.0,0.0,0.0,0.0,0.0,0.0,0.0,0.0,0.0,0.0,0.0,0.0,0.0,0.0,0.0,0.0,0.0,0.0,0.0,0.0,0.0,0.0,0.0,0.0,0.0,0.0,-4.05,-4.0584,-4.0666,0.0,-4.0806,-4.0876,-4.0976,-4.1,-4.1036,-4.1042,0.0,0.0,0.0,0.0,0.0,0.0,0.0,0.0,0.0,0.0,0.0,0.0,0.0,0.0,0.0,0.0,0.0,0.0,0.0,0.0,0.0,0.0,0.0,0.0,0.0,0.0,0.0,0.0,0.0,0.0,0.0,0.0,0.0,0.0,0.0,0.0,0.0,0.0,0.0,0.0,0.0,0.0,0.0,0.0,0.0,0.0,0.0,0.0,0.0,0.0,0.0,0.0,0.0,0.0,0.0,0.0,0.0,0.0,0.0,0.0,0.0,0.0,0.0,0.0,0.0,0.0,0.0,0.0,0.0,0.0,0.0,0.0,0.0,0.0,0.0,0.0,0.0,0.0,0.0,0.0,0.0,0.0,0.0,0.0,0.0,0.0,0.0,0.0,0.0,0.0,0.0,0.0,0.0,0.0,0.0,0.0,0.0,0.0,0.0,0.0,0.0,0.0,-4.0316,-4.0408,-4.0496,-4.0496,-4.0615,-4.0694,-4.0694,-4.0823,-4.0897,0.0,0.0,0.0,0.0,0.0,0.0,0.0,0.0,0.0,0.0,0.0,0.0,0.0,0.0,0.0,0.0,0.0,0.0,0.0,0.0,0.0,0.0,0.0,0.0,0.0,0.0,0.0,0.0,0.0,0.0,0.0,0.0,0.0,0.0,0.0,0.0,0.0,0.0,0.0,0.0,0.0,0.0,0.0,0.0,0.0,0.0,0.0,0.0,0.0,0.0,0.0,0.0,0.0,0.0,0.0,0.0,0.0,0.0,0.0,0.0,0.0,0.0,0.0,0.0,0.0,0.0,0.0,0.0,0.0,0.0,0.0,0.0,0.0,0.0,0.0,0.0,0.0,0.0,0.0,0.0,0.0,0.0,0.0,0.0,0.0,0.0,0.0,0.0,0.0,0.0,0.0,0.0,0.0,0.0,0.0,0.0,0.0,0.0,0.0,0.0,0.0,0.0,0.0,-4.0307,-4.0335,-4.0379,-4.0414,-4.0469,-4.0511,-4.0557,-4.0604,-4.0678,-4.0811,0.0,0.0,0.0,0.0,0.0,0.0,0.0,0.0,0.0,0.0,0.0,0.0,0.0,0.0,0.0,0.0,0.0,0.0,0.0,0.0,0.0,0.0,0.0,0.0,0.0,0.0,0.0,0.0,0.0,0.0,0.0,0.0,0.0,0.0,0.0,0.0,0.0,0.0,0.0,0.0,0.0,0.0,0.0,0.0,0.0,0.0,0.0,0.0,0.0,0.0,0.0,0.0,0.0,0.0,0.0,0.0,0.0,0.0,0.0,0.0,0.0,0.0,0.0,0.0,0.0,0.0,0.0,0.0,0.0,0.0,0.0,0.0,0.0,0.0,0.0,0.0,0.0,0.0,0.0,0.0,0.0,0.0,0.0,0.0,0.0,0.0,0.0,0.0,0.0,0.0,0.0,0.0,0.0,0.0,0.0,0.0,0.0,0.0,0.0,0.0,0.0,0.0,-4.0225,-4.0225,-4.0244,-4.027,-4.0279,-4.0304,-4.0342,-4.0385,-4.0475,-4.0585,0.0,0.0,0.0,0.0,0.0,0.0,0.0,0.0,0.0,0.0,0.0,0.0,0.0,0.0,0.0,0.0,0.0,0.0,0.0,0.0,0.0,0.0,0.0,0.0,0.0,0.0,0.0,0.0,0.0,0.0,0.0,0.0,0.0,0.0,0.0,0.0,0.0,0.0,0.0,0.0,0.0,0.0,0.0,0.0,0.0,0.0,0.0,0.0,0.0,0.0,0.0,0.0,0.0,0.0,0.0,0.0,0.0,0.0,0.0,0.0,0.0,0.0,0.0,0.0,0.0,0.0,0.0,0.0,0.0,0.0,0.0,0.0,0.0,0.0,0.0,0.0,0.0,0.0,0.0,0.0,0.0,0.0,0.0,0.0,0.0,0.0,0.0,0.0,0.0,0.0,0.0,0.0,0.0,0.0,0.0,0.0,0.0,0.0,0.0,0.0,0.0,0.0,-4.0098,-4.0106,-4.0106,-4.0077,-4.0077,-4.0096,-4.0077,-4.0196,-4.0274,-4.03,0.0,0.0,0.0,0.0,0.0,0.0,0.0,0.0,0.0,0.0,0.0,0.0,0.0,0.0,0.0,0.0,0.0,0.0,0.0,0.0,0.0,0.0,0.0,0.0,0.0,0.0,0.0,0.0,0.0,0.0,0.0,0.0,0.0,0.0,0.0,0.0,0.0,0.0,0.0,0.0,0.0,0.0,0.0,0.0,0.0,0.0,0.0,0.0,0.0,0.0,0.0,0.0,0.0,0.0,0.0,0.0,0.0,0.0,0.0,0.0,-3.9719,0.0,0.0,0.0,0.0,0.0,0.0,0.0,0.0,0.0,0.0,0.0,0.0,0.0,0.0,0.0,0.0,0.0,0.0,0.0,0.0,0.0,0.0,0.0,0.0,0.0,0.0,0.0,0.0,0.0,0.0,0.0,0.0,0.0,0.0,0.0,0.0,0.0,0.0,0.0,0.0,0.0,-4.0087,-4.0106,-4.0077,-4.0036,-4.0017,-3.9996,-3.9943,-3.9967,-4.0051,-4.0211,-4.029,0.0,0.0,0.0,0.0,0.0,0.0,0.0,0.0,0.0,0.0,0.0,0.0,0.0,0.0,0.0,0.0,0.0,0.0,0.0,0.0,0.0,0.0,0.0,0.0,0.0,0.0,0.0,0.0,0.0,0.0,0.0,0.0,0.0,0.0,0.0,0.0,0.0,0.0,0.0,0.0,0.0,0.0,0.0,0.0,0.0,0.0,0.0,0.0,0.0,0.0,0.0,0.0,0.0,0.0,0.0,0.0,0.0,0.0,0.0,0.0,-3.9595,0.0,0.0,0.0,0.0,0.0,0.0,0.0,0.0,0.0,0.0,0.0,0.0,0.0,0.0,0.0,0.0,0.0,0.0,0.0,0.0,0.0,0.0,0.0,0.0,0.0,0.0,0.0,0.0,0.0,0.0,0.0,0.0,0.0,0.0,0.0,0.0,0.0,0.0,0.0,0.0,-4.0015,-4.0005,-3.9994,-3.9954,-3.9954,-3.9933,-3.99,-3.99,-3.9946,-4.0051,-4.012,0.0,0.0,0.0,0.0,0.0,0.0,0.0,0.0,0.0,0.0,0.0,0.0,0.0,0.0,0.0,0.0,0.0,0.0,0.0,0.0,0.0,0.0,0.0,0.0,0.0,0.0,0.0,0.0,0.0,0.0,0.0,0.0,0.0,0.0,0.0,0.0,0.0,0.0,0.0,0.0,0.0,0.0,0.0,0.0,0.0,0.0,0.0,0.0,0.0,0.0,0.0,0.0,0.0,-3.9101,-3.9101,-3.9101,-3.9101,-3.9101,-3.9101,-3.9101,-3.9219,-3.9439,0.0,0.0,0.0,0.0,0.0,0.0,0.0,0.0,0.0,0.0,0.0,0.0,0.0,0.0,0.0,0.0,0.0,0.0,0.0,0.0,0.0,0.0,0.0,0.0,0.0,-3.8241,-3.8417,0.0,0.0,0.0,0.0,0.0,0.0,0.0,0.0,0.0,0.0,0.0,0.0,-3.9837,-3.9878,-3.99,-3.99,-3.99,-3.99,-3.99,-3.99,-3.99,-3.99,-4.0,-4.007,0.0,0.0,0.0,0.0,0.0,0.0,0.0,0.0,0.0,0.0,0.0,0.0,0.0,0.0,0.0,0.0,0.0,0.0,0.0,0.0,0.0,0.0,0.0,0.0,0.0,0.0,0.0,0.0,0.0,0.0,0.0,0.0,-3.8446,-3.8446,0.0,0.0,0.0,0.0,0.0,0.0,0.0,0.0,0.0,0.0,0.0,0.0,0.0,-3.9101,-3.9101,-3.9101,-3.9101,-3.9101,-3.9101,-3.9101,-3.9101,-3.9101,-3.9101,-3.9101,-3.9101,0.0,-3.9137,-3.9137,0.0,0.0,0.0,0.0,0.0,0.0,0.0,0.0,0.0,0.0,0.0,0.0,0.0,0.0,0.0,0.0,0.0,0.0,0.0,0.0,0.0,0.0,-3.837,-3.8307,-3.8241,-3.8224,0.0,-3.8507,-3.8673,-3.8673,-3.89,0.0,0.0,0.0,0.0,0.0,0.0,0.0,-3.9587,-3.9758,-3.99,-3.99,-3.99,-3.99,-3.99,-3.99,-3.99,-3.99,-3.9922,-3.9933,-3.9933,-3.9933,0.0,0.0,0.0,0.0,0.0,0.0,0.0,0.0,0.0,0.0,0.0,0.0,0.0,0.0,0.0,0.0,0.0,0.0,0.0,0.0,0.0,0.0,0.0,0.0,0.0,0.0,0.0,0.0,0.0,-3.8302,-3.8334,-3.8186,-3.8302,-3.8399,0.0,0.0,0.0,0.0,0.0,0.0,0.0,0.0,0.0,-3.859,-3.8664,-3.8785,-3.8935,-3.8935,-3.8974,-3.9101,-3.9059,-3.9031,-3.905,-3.8989,-3.8993,-3.8993,-3.8993,-3.8993,-3.8974,-3.9073,-3.9073,-3.9031,0.0,0.0,0.0,0.0,-3.9187,-3.9287,-3.9176,-3.9105,0.0,-3.9091,0.0,0.0,0.0,0.0,0.0,0.0,0.0,0.0,0.0,0.0,0.0,-3.8241,-3.8225,-3.8209,-3.8209,-3.8289,-3.8387,0.0,-3.86,-3.8774,-3.8774,0.0,0.0,0.0,0.0,0.0,-3.9229,-3.932,-3.9464,-3.9647,-3.9689,-3.9747,-3.9889,-3.99,-3.99,-3.99,-3.99,-3.99,-3.99,-3.99,-3.99,0.0,0.0,0.0,0.0,0.0,0.0,0.0,0.0,0.0,0.0,0.0,0.0,0.0,0.0,0.0,0.0,0.0,0.0,0.0,0.0,0.0,0.0,0.0,0.0,0.0,0.0,0.0,0.0,-3.7914,-3.7983,-3.7827,-3.7966,-3.8051,0.0,0.0,0.0,0.0,0.0,0.0,-3.8135,-3.8183,-3.82,-3.8152,-3.8183,-3.8314,-3.8523,-3.8523,-3.8597,-3.8741,-3.8685,-3.8673,-3.8673,-3.8612,-3.8661,-3.8755,-3.8755,-3.88,-3.8925,-3.9021,-3.9021,-3.8964,-3.8964,-3.8935,-3.891,-3.8881,-3.8896,-3.8896,-3.8807,-3.8792,-3.8792,-3.8719,0.0,-3.8658,-3.8658,0.0,0.0,0.0,0.0,-3.8352,-3.8305,-3.829,-3.8257,-3.8225,-3.8209,-3.8209,-3.8209,-3.8209,-3.8209,0.0,-3.837,-3.8494,-3.8494,0.0,0.0,0.0,0.0,-3.8966,-3.8915,-3.8952,-3.9077,-3.9326,-3.9338,-3.9414,-3.9604,-3.9616,-3.9616,-3.9616,-3.9628,-3.9628,-3.9616,-3.964,-3.9651,-3.9616,0.0,0.0,0.0,0.0,0.0,0.0,0.0,0.0,0.0,0.0,0.0,0.0,0.0,0.0,0.0,0.0,0.0,0.0,0.0,0.0,0.0,0.0,0.0,0.0,0.0,0.0,0.0,0.0,0.0,-3.7316,-3.7182,0.0,0.0,0.0,0.0,-3.7431,-3.745,-3.745,-3.745,-3.7631,-3.7649,-3.745,-3.7649,-3.7736,-3.7753,-3.7753,-3.7753,-3.7771,-3.7771,-3.7771,-3.7771,-3.7753,-3.7959,-3.8342,-3.8342,-3.8551,-3.891,-3.8925,-3.8925,-3.891,-3.891,-3.8892,-3.8877,-3.8837,-3.8851,-3.8881,-3.875,-3.875,-3.8792,-3.8719,-3.8609,-3.851,-3.851,-3.8462,0.0,0.0,-3.8352,-3.8289,-3.8307,-3.8241,-3.8209,-3.8209,-3.8209,-3.8209,-3.8209,-3.8209,-3.8209,0.0,-3.8225,-3.8207,-3.8207,0.0,-3.8523,-3.829,-3.867,-3.8915,-3.8643,-3.8843,-3.898,-3.8938,-3.8924,-3.891,-3.8868,-3.8853,-3.8853,-3.8853,-3.8924,-3.8924,-3.8853,-3.898,-3.898,-3.8853,-3.8966,0.0,0.0,0.0,0.0,0.0,0.0,0.0,0.0,0.0,0.0,0.0,0.0,0.0,0.0,0.0,0.0,0.0,0.0,0.0,0.0,0.0,0.0,0.0,0.0,0.0,0.0,0.0,0.0,-3.7105,-3.7046,0.0,-3.7105,-3.7046,-3.7029,-3.7145,-3.7147,-3.7147,-3.7147,-3.7225,-3.7225,-3.7147,-3.7207,-3.7339,-3.7506,-3.7506,-3.756,-3.7701,-3.7649,-3.7631,-3.7631,-3.7596,-3.7649,-3.779,-3.779,-3.786,-3.8015,-3.8015,-3.833,-3.8837,-3.8837,-3.8807,-3.8765,-3.875,-3.875,-3.8765,-3.8723,-3.8723,-3.8735,-3.8707,-3.8609,-3.8476,-3.8446,-3.8401,-3.8254,-3.7913,-3.7809,-3.7739,-3.7468,-3.7376,-3.7357,-3.7357,-3.7559,-3.7756,-3.7756,-3.8003,-3.8209,-3.8209,-3.8209,-3.8209,-3.8209,-3.829,-3.8305,-3.8207,-3.8352,-3.8446,-3.8336,-3.8348,-3.8439,-3.8609,-3.856,-3.8588,-3.8781,-3.8795,-3.8795,-3.8795,-3.8824,-3.8824,-3.8795,-3.8853,-3.8853,-3.8795,-3.8648,-3.8648,0.0,0.0,0.0,0.0,0.0,0.0,0.0,0.0,0.0,0.0,0.0,0.0,0.0,0.0,0.0,0.0,0.0,0.0,0.0,0.0,0.0,0.0,0.0,0.0,0.0,0.0,-3.6791,-3.6888,-3.6829,-3.6791,-3.6888,-3.6829,-3.6771,-3.6771,-3.6771,-3.6771,-3.6771,-3.6771,-3.6893,-3.7173,-3.7173,-3.7379,-3.7807,-3.7807,-3.787,-3.7993,-3.7952,-3.7931,-3.7931,-3.789,-3.7966,-3.8064,-3.8064,-3.814,-3.829,-3.829,-3.8618,-3.9079,-3.8565,-3.8415,-3.8483,-3.8352,-3.8467,-3.8707,-3.8707,-3.8707,-3.8707,-3.8707,-3.8593,-3.8428,-3.8251,-3.8118,-3.7932,-3.7432,-3.7302,-3.7246,-3.6978,-3.69,-3.69,-3.69,-3.7113,-3.7302,-3.7302,-3.7541,-3.7792,-3.7933,-3.8088,-3.8209,-3.8209,-3.8209,-3.8174,-3.814,-3.8174,-3.8175,-3.8107,-3.8036,-3.8069,-3.8218,-3.8148,-3.818,-3.8371,-3.8405,-3.8405,-3.8405,-3.8418,-3.8418,-3.8387,-3.8452,-3.8452,-3.8387,-3.8196,-3.8212,-3.8418,0.0,0.0,0.0,0.0,0.0,0.0,0.0,0.0,0.0,0.0,0.0,0.0,0.0,0.0,0.0,0.0,0.0,0.0,0.0,0.0,0.0,0.0,0.0,-3.6301,-3.6301,-3.6402,-3.6661,-3.6444,-3.6402,-3.6643,-3.6444,-3.6318,-3.6335,-3.6335,-3.6353,-3.637,-3.637,-3.6732,-3.7512,-3.753,-3.7892,-3.8577,-3.8594,-3.8594,-3.8594,-3.8594,-3.8594,-3.8594,-3.8594,-3.8803,-3.9193,-3.9193,-3.9403,-3.9763,-3.9763,-3.9763,-3.9621,-3.8165,-3.781,-3.8106,-3.7703,-3.8,-3.8658,-3.8676,-3.8676,-3.8658,-3.8661,-3.853,-3.8283,-3.7895,-3.765,-3.7414,-3.6997,-3.688,-3.688,-3.686,-3.686,-3.686,-3.686,-3.686,-3.688,-3.688,-3.688,-3.7017,-3.7377,-3.7845,-3.8157,-3.8192,-3.8209,-3.8157,-3.8036,-3.8105,0.0,-3.7916,-3.795,-3.7915,-3.7721,-3.7703,-3.7667,-3.7613,-3.7595,-3.7595,-3.7595,-3.7667,-3.7685,-3.7595,-3.7793,-3.7811,-3.7595,-3.7649,-3.7685,-3.7685,0.0,0.0,0.0,0.0,0.0,0.0,0.0,0.0,0.0,0.0,0.0,0.0,0.0,0.0,0.0,0.0,0.0,0.0,0.0,0.0,0.0,0.0,-3.5766,-3.6482,-3.6423,-3.6322,-3.6402,-3.6343,-3.6322,-3.6402,-3.6343,-3.6542,-3.7133,-3.7163,-3.7387,-3.7922,-3.7956,-3.806,-3.8306,-3.8284,-3.8387,-3.8594,-3.8594,-3.8594,-3.8594,-3.8594,-3.8594,-3.8594,-3.8594,-3.8644,-3.8759,-3.8759,-3.8842,-3.8933,-3.8933,-3.8933,-3.8946,-3.9124,-3.9237,-3.9241,-3.854,-3.8097,-3.7826,-3.772,-3.7738,-3.7809,-3.7667,-3.7578,-3.7487,-3.7285,-3.7152,-3.6978,-3.6577,-3.6471,-3.6388,-3.6049,-3.5963,-3.5963,-3.5963,-3.6139,-3.6312,-3.6312,-3.6464,-3.6631,-3.6751,-3.6869,-3.7229,-3.8054,-3.8209,-3.8192,-3.8157,-3.8088,0.0,-3.7984,-3.7862,-3.7757,-3.7703,-3.7667,-3.7613,-3.7595,-3.7595,-3.7595,-3.7595,-3.7613,-3.7613,-3.7595,-3.7667,-3.7667,-3.7595,-3.7281,-3.7113,0.0,0.0,0.0,0.0,0.0,0.0,0.0,0.0,0.0,0.0,0.0,0.0,0.0,0.0,0.0,0.0,0.0,0.0,0.0,0.0,0.0,0.0,-3.5436,-3.5407,-3.598,-3.5937,-3.5832,-3.5832,-3.5832,-3.6017,-3.6517,-3.6534,-3.6925,-3.7887,-3.7961,-3.8151,-3.8577,-3.8594,-3.8732,-3.9043,-3.906,-3.9215,-3.9566,-3.9566,-3.9566,-3.9566,-3.9566,-3.9566,-3.9566,-3.9566,-3.9566,0.0,-3.9566,-3.9566,-3.9566,-3.9566,-3.9566,0.0,0.0,0.0,0.0,0.0,-3.8709,-3.822,-3.826,-3.8318,-3.8355,-3.8183,-3.8088,-3.8027,-3.7752,-3.7417,-3.7026,-3.6633,-3.628,-3.5937,-3.5667,-3.56,-3.56,-3.56,-3.5761,-3.5876,-3.5849,-3.5968,-3.6105,-3.6218,-3.626,0.0,-3.734,-3.7667,-3.7809,-3.7792,-3.7897,-3.7949,-3.7863,-3.7757,-3.7685,-3.7667,-3.7449,-3.73,-3.73,-3.7131,0.0,0.0,0.0,-3.6997,-3.6997,-3.6997,0.0,0.0,0.0,-3.6603,-3.6603,0.0,0.0,0.0,-3.6589,-3.6437,0.0,0.0,0.0,0.0,0.0,0.0,0.0,0.0,0.0,0.0,0.0,0.0,0.0,0.0,0.0,0.0,-3.5108,-3.5085,-3.5085,-3.5152,-3.5225,-3.5295,-3.5318,-3.5742,-3.6853,-3.6944,-3.7428,-3.8556,-3.867,-3.8705,-3.8836,0.0,0.0,0.0,0.0,-4.0164,-4.0894,-4.0912,-4.0912,-4.0912,-4.0912,-4.0912,-4.0912,-4.0912,-4.0912,-4.0912,-4.0912,-4.0912,-4.0912,-4.0912,-4.0912,-4.0774,-3.9393,-3.9011,-3.9294,-3.9628,-3.9491,-3.9151,-3.9362,0.0,0.0,-3.9285,-3.9203,-3.9077,-3.8646,-3.802,-3.7384,-3.7029,-3.6417,-3.5853,-3.5853,-3.5853,-3.5853,-3.583,-3.583,-3.5785,-3.5721,-3.5698,-3.5733,-3.5982,-3.6031,-3.6146,-3.6523,-3.6935,-3.7193,-3.7132,-3.7523,-3.7739,-3.7485,-3.7486,-3.7504,-3.7449,0.0,0.0,-3.6821,-3.644,-3.6194,-3.6194,-3.6194,-3.6194,-3.6194,-3.6194,-3.6194,-3.6194,-3.6169,-3.6126,-3.6126,-3.6045,-3.5998,-3.5946,-3.6062,-3.6088,0.0,0.0,0.0,0.0,0.0,0.0,0.0,0.0,0.0,0.0,0.0,0.0,0.0,0.0,0.0,-3.4811,-3.4529,-3.4308,-3.4308,-3.4814,-3.5424,-3.6033,-3.6104,-3.6413,-3.7222,-3.7306,-3.7778,-3.8908,-3.8983,-3.944,-4.0405,-4.0463,-4.0532,-4.067,-4.067,-4.0739,-4.0912,-4.0912,-4.0912,-4.0912,0.0,0.0,-4.0912,-4.0912,-4.0912,-4.0912,-4.0912,-4.0912,-4.0912,-4.0912,-4.0912,-4.0877,-4.0584,-4.0112,-3.961,-3.9588,-3.914,-3.8532,-3.8362,-3.8368,-3.8447,-3.8236,-3.8219,-3.8225,-3.8091,-3.7936,0.0,-3.7709,-3.7584,-3.7466,-3.7466,-3.7466,-3.7442,-3.7306,-3.7194,-3.7114,-3.6985,-3.6862,-3.6812,-3.6853,-3.6878,-3.6927,-3.7105,-3.6874,-3.6651,-3.6631,-3.6669,-3.6686,-3.6643,-3.6545,-3.6501,-3.6481,-3.6399,-3.6336,-3.6336,-3.6236,-3.6194,-3.6194,-3.6194,-3.6194,-3.6194,-3.6194,-3.6194,-3.6194,-3.5885,-3.5727,-3.571,-3.5247,-3.4968,-3.4984,-3.5374,-3.5493,0.0,0.0,0.0,0.0,0.0,0.0,0.0,0.0,0.0,0.0,0.0,-3.5068,-3.4984,0.0,-3.4399,-3.4399,-3.4534,-3.4635,-3.4635,-3.5283,-3.5747,-3.5761,-3.6082,-3.6653,-3.7551,-3.7642,-3.812,-3.9261,-3.9354,-3.9606,-4.022,-4.0468,-4.0583,-4.0583,-4.0817,-4.0912,-4.0912,-4.0912,-4.0912,-4.0912,-4.0912,-4.0912,-4.0912,-4.0912,-4.0912,-4.0912,-4.0912,-4.0912,-4.0912,-4.0912,-4.0912,-4.0912,-4.0912,-4.0653,-4.0284,-4.0161,-3.9873,-3.95,-3.9245,-3.9197,-3.9214,-3.9061,-3.902,-3.9052,-3.9012,-3.8734,-3.8447,-3.8447,-3.8193,-3.7905,-3.7905,-3.7905,-3.7882,-3.781,-3.7696,-3.7558,-3.7427,-3.7278,-3.7194,-3.7102,-3.7102,-3.7102,-3.7194,-3.6982,-3.6888,-3.7161,-3.7374,-3.7482,-3.7418,-3.7353,-3.7309,-3.7309,-3.7107,-3.699,-3.699,-3.6803,-3.6472,-3.6124,-3.6107,-3.5938,-3.5549,-3.5554,-3.5554,-3.5554,-3.5293,-3.5155,-3.5155,-3.4771,-3.457,-3.4497,-3.473,-3.4857,0.0,0.0,0.0,0.0,0.0,0.0,0.0,0.0,-3.4866,-3.5157,-3.4864,-3.457,-3.457,-3.4325,-3.4149,-3.4279,-3.4822,-3.526,-3.5406,-3.6044,-3.627,-3.5671,-3.6125,-3.6891,-3.7919,-3.8011,-3.8401,-3.942,-3.948,-3.9532,-3.961,-3.9952,-4.0146,-4.0146,-4.0558,-4.0776,-4.0776,-4.0847,-4.0912,-4.0912,-4.0912,-4.0912,-4.0912,-4.0912,-4.0912,-4.0912,-4.0912,-4.0912,-4.0912,-4.0912,-4.0912,-4.0912,-4.0912,-4.0871,-4.084,-4.0721,-4.0648,-4.0576,-4.0355,-4.0263,-4.0238,-4.0138,-4.0096,-4.0096,-4.0096,-3.969,-3.9208,-3.9208,-3.8785,-3.8328,-3.8297,-3.828,-3.828,-3.8207,-3.8134,-3.8019,-3.787,-3.7744,-3.766,-3.7558,-3.7533,-3.7533,-3.7533,-3.7533,-3.7594,-3.7735,-3.8069,-3.826,-3.8151,-3.8151,-3.8151,-3.8151,-3.7851,-3.767,-3.767,-3.7311,-3.6854,-3.6257,-3.6224,-3.5959,-3.5346,-3.5306,-3.5215,-3.509,-3.4929,-3.4815,-3.4667,-3.4521,-3.4399,-3.43,-3.4275,-3.4325,-3.5825,-3.5168,-3.4778,-3.4842,-3.4723,-3.4578,0.0,0.0,-3.4349,-3.4284,-3.4209,-3.4176,-3.4176,-3.4126,-3.4311,-3.4984,-3.5163,-3.5412,-3.6076,-3.6772,-3.715,-3.7053,-3.7134,-3.7485,-3.8281,-3.8346,-3.8546,-3.9034,-3.9077,-3.9206,-3.9568,-3.9662,-3.9688,-3.9688,-4.0121,-4.0379,-4.0379,-4.0704,-4.0912,-4.0912,-4.0912,-4.0912,-4.0912,-4.0912,-4.0912,-4.0912,-4.0912,-4.0912,-4.0912,-4.0912,-4.0912,-4.0912,-4.0912,-4.084,-4.0697,-4.0558,-4.0436,-4.0313,-4.0163,-4.0138,-4.0138,-4.0096,-4.0096,-4.0096,-4.0096,-4.0045,-3.9977,-3.9977,-3.9926,-3.9834,-3.9699,-3.9674,-3.9614,-3.9382,-3.9304,-3.9251,-3.9129,-3.9093,-3.9067,-3.9067,-3.905,-3.905,-3.905,-3.905,-3.8645,-3.736,-3.7236,-3.7261,-3.7261,-3.7261,-3.7261,-3.7261,-3.7203,-3.7178,-3.7178,-3.7127,-3.7069,-3.6986,-3.6986,-3.6953,-3.687,-3.6727,-3.6363,-3.5704,-3.558,-3.5177,-3.4521,-3.4399,-3.4325,-3.43,-3.4176,-3.4126,-3.5493,-3.4968,0.0,0.0,-3.4423,-3.4349,-3.4226,-3.4176,-3.4176,-3.4126,-3.4101,-3.4101,-3.4101,-3.4441,-3.4855,0.0,-3.5882,-3.6529,-3.6826,-3.7501,-3.7954,-3.7954,-3.7954,-3.8068,-3.8375,-3.8391,-3.8476,-3.8628,-3.8655,-3.8738,-3.8898,-3.9125,-3.9232,-3.9232,-3.9653,-3.9885,-3.9885,-4.0062,-4.0279,-4.0534,-4.0279,-4.0279,-4.0534,-4.0279,-4.0137,-4.0162,-4.0419,-4.0534,-4.0576,-4.0799,-4.0912,-4.0912,-4.0912,-4.0752,-4.0583,-4.0534,-4.0412,-4.028,-4.0163,-4.0096,-4.0096,-4.0096,-4.0096,-4.0096,-4.0096,-4.0096,-4.0096,-4.0096,-4.0037,-3.9961,-3.9926,-3.9849,-3.9755,-3.9625,-3.9563,-3.9484,-3.9448,-3.9369,-3.9299,-3.9299,-3.9299,-3.9299,-3.9299,-3.9299,-3.91,-3.846,-3.8377,-3.8377,-3.8377,-3.8377,-3.8377,-3.8377,-3.8377,-3.8377,-3.8377,-3.8377,-3.8195,-3.7781,-3.7671,-3.7421,-3.6992,-3.6814,-3.6589,-3.6268,-3.614,-3.5899,-3.5605,-3.5493,-3.5458,-3.5458,-3.5406,-3.538,-3.5121,0.0,0.0,-3.4349,-3.4275,-3.4226,-3.4126,-3.4101,-3.4101,-3.4101,-3.4101,-3.4165,-3.436,-3.4855,0.0,-3.5704,-3.6643,-3.736,-3.7582,-3.8068,-3.8391,-3.8391,-3.8391,-3.8391,-3.8391,-3.8391,-3.8391,-3.8391,-3.8391,-3.8391,-3.8391,-3.8683,-3.8849,-3.8849,-3.9206,-3.9428,-3.9428,-3.9558,-3.9782,-4.0096,-3.9756,-3.9782,-4.0096,-3.974,-3.961,-3.9636,-3.9952,-4.007,-4.002,-4.0303,-4.0377,-4.0294,-4.0294,-4.0262,-4.0204,-4.0204,-4.0221,-4.0238,-4.0121,-4.0096,-4.0096,-4.0096,-4.0096,-4.0096,-4.0096,-4.0096,-4.007,-4.0062,-3.9961,-3.9849,-3.9582,-3.9435,-3.9329,-3.9125,-3.9007,-3.8925,-3.8925,-3.8969,-3.9023,-3.9023,-3.9175,-3.9299,-3.9299,-3.9299,-3.9299,-3.9299,-3.9299,-3.9299,-3.9299,-3.9299,-3.9299,-3.9299,-3.9299,-3.9299,-3.9299,-3.9299,-3.9056,-3.8447,-3.8335,-3.8008,-3.7456,-3.7249,-3.7071,-3.6849,-3.6716,-3.6555,-3.636,-3.6313,-3.6303,-3.6319,-3.6126,-3.6028,0.0,0.0,-3.4151,-3.4275,-3.4201,-3.4101,-3.4101,-3.4101,-3.4101,-3.4101,-3.4101,-3.4311,-3.5033,-3.5195,-3.5639,-3.7004,-3.7263,-3.7538,-3.8262,-3.8391,-3.8391,-3.8391,-3.8391,-3.8391,0.0,-3.8391,-3.8391,-3.8391,-3.8391,-3.8391,-3.8391,-3.8391,-3.842,-3.842,-3.8821,-3.9023,-3.9023,-3.9418,-3.961,-3.9636,-3.961,-3.961,-3.9636,-3.961,-3.961,-3.961,-3.961,-3.948,-3.9232,-3.9259,-3.9065,-3.8772,-3.8772,-3.9032,-3.9437,-3.9437,-3.9731,-4.0113,-4.0096,-4.0096,-4.0096,-4.0096,-4.0096,-4.0096,-4.0096,-4.0096,-4.007,-3.9935,-3.9901,-3.9687,-3.8767,-3.853,-3.8362,-3.7648,-3.7458,-3.7458,-3.7458,-3.7908,-3.8351,-3.8351,-3.8871,-3.9299,-3.9299,-3.9299,-3.9299,-3.9299,-3.9299,-3.9299,-3.9299,-3.9299,-3.9299,-3.9299,-3.9299,-3.9299,-3.9299,-3.9299,-3.9202,-3.899,-3.8963,-3.8892,-3.8739,-3.8618,-3.8209,-3.7503,-3.7356,-3.6967,-3.6303,-3.6303,-3.6303,-3.6276,-3.5625,-3.5331,0.0,0.0,-3.4226,-3.4176,-3.4126,-3.4101,-3.4101,-3.4101,-3.4101,-3.4101,-3.4489,-3.492,-3.5163,-3.5963,-3.6756,-3.7214,-3.7728,-3.8116,-3.8375,-3.8391,-3.8391,-3.8391,-3.8391,0.0,0.0,0.0,0.0,-3.8391,-3.8391,-3.8391,-3.8391,-3.8391,-3.8391,-3.8391,-3.8532,-3.86,-3.86,-3.8523,-3.8601,-3.8859,-3.8859,-3.8739,-3.8479,-3.8706,-3.8805,-3.8832,-3.9088,-3.9001,-3.8767,-3.9082,-3.9011,-3.8718,-3.8718,-3.8734,-3.8805,-3.8805,-3.8849,-3.9011,-3.9825,-4.0096,-4.0096,-4.0096,-4.0096,-4.0096,-4.0096,-4.0096,-4.007,-4.0062,-3.9575,-3.9022,-3.8707,-3.8206,-3.7706,-3.7458,-3.7399,-3.7399,-3.7399,-3.7576,-3.7706,-3.7706,-3.7895,-3.8055,-3.8055,-3.8055,-3.7982,-3.7867,-3.8662,-3.9245,-3.9121,-3.8745,-3.8451,-3.8339,-3.7908,-3.7645,-3.7645,-3.7645,-3.7616,-3.7528,-3.7456,-3.7397,-3.7338,-3.7205,-3.7006,-3.677,-3.6726,-3.6587,-3.6368,-3.6368,-3.6368,-3.6368,-3.6144,-3.6039,0.0,-3.4151,-3.4201,-3.4126,-3.4101,-3.4101,-3.4101,-3.4101,-3.4101,-3.4101,-3.4709,-3.5292,-3.5525,-3.6529,-3.7376,-3.7663,-3.81,-3.8391,-3.8391,-3.8391,-3.8391,-3.8391,-3.8391,0.0,0.0,0.0,0.0,-3.8391,-3.8391,-3.8391,-3.8391,-3.8391,-3.8391,-3.8391,-3.8262,-3.8278,-3.8391,-3.796,-3.787,-3.8096,-3.8096,-3.7969,-3.774,-3.7931,-3.8033,-3.8062,-3.8315,-3.8242,-3.7998,-3.8298,-3.821,-3.7921,-3.7921,-3.7994,-3.8096,-3.8096,-3.8181,-3.8418,-3.9189,-3.9454,-3.9454,-3.9454,-3.9454,-3.9454,-3.9454,-3.9454,-3.9428,-3.9305,-3.8843,-3.8302,-3.7962,-3.7456,-3.6981,-3.6784,-3.6723,-3.6723,-3.6723,-3.6906,-3.7041,-3.7041,-3.7251,-3.7399,-3.7399,-3.7399,-3.734,-3.7115,-3.7895,-3.8423,-3.8238,-3.7879,-3.7602,-3.7456,-3.7054,-3.6797,-3.6797,-3.6797,-3.6767,-3.6722,-3.663,-3.6584,-3.6523,-3.6446,-3.6415,-3.6415,-3.6415,-3.6415,-3.6415,-3.6415,-3.6415,-3.6384,-3.6166,-3.6009,-3.4126,-3.4101,-3.4101,-3.4101,-3.4101,-3.4101,-3.4101,-3.4101,-3.4117,-3.4149,-3.4732,-3.5487,0.0,0.0,-3.757,-3.825,-3.8363,-3.8363,-3.8335,-3.8363,-3.8363,0.0,0.0,0.0,0.0,0.0,0.0,-3.8391,0.0,-3.8391,-3.8391,-3.8391,-3.8391,-3.8391,-3.8103,-3.8075,-3.8391,-3.7756,-3.7387,-3.7358,-3.7358,-3.7387,-3.7387,-3.7387,-3.7417,-3.7417,-3.7417,-3.724,-3.7015,-3.7015,-3.6816,-3.6492,-3.6492,-3.6831,-3.7358,-3.7358,-3.7709,-3.821,-3.821,-3.8266,-3.8306,-3.8306,-3.8306,-3.8306,-3.8306,-3.8306,-3.8222,-3.7892,-3.7777,-3.756,-3.6631,-3.6368,-3.6196,-3.5651,-3.5504,-3.5504,-3.5504,-3.5941,-3.6337,-3.6337,-3.6875,-3.731,-3.728,-3.728,-3.7221,-3.6995,-3.6965,-3.6935,-3.6813,-3.6767,-3.6752,-3.6722,-3.6691,-3.6676,-3.6676,-3.6676,-3.663,-3.6492,-3.6492,-3.643,-3.6291,-3.6291,-3.6291,-3.6291,-3.6291,-3.6291,-3.6291,-3.6291,-3.6291,-3.6291,-3.5642,-3.5222,-3.4101,-3.4101,-3.4101,-3.4101,-3.4101,-3.4101,-3.4101,-3.4101,-3.4262,-3.4822,-3.5493,-3.6238,0.0,0.0,0.0,-3.8042,-3.8046,0.0,-3.7682,-3.7873,0.0,0.0,0.0,-3.8391,-3.8391,-3.8391,0.0,0.0,-3.8391,-3.8391,-3.8391,-3.8391,-3.8391,-3.8391,-3.8307,-3.8307,-3.8391,-3.7756,-3.7178,-3.6723,-3.6984,-3.7105,-3.7105,-3.7314,-3.7417,-3.7417,-3.7417,-3.724,-3.7015,-3.7015,-3.6816,-3.6492,-3.6492,-3.66,-3.6723,-3.6723,-3.6831,-3.6967,-3.6967,-3.7562,-3.8306,-3.8306,-3.8306,-3.8306,-3.8306,-3.8306,-3.825,-3.8019,-3.7557,-3.7025,-3.6661,-3.6149,-3.5668,-3.5537,-3.5504,-3.5504,-3.5504,-3.5619,-3.5733,-3.5733,-3.5861,-3.5941,-3.5799,-3.5752,-3.5655,-3.5379,-3.5299,-3.5625,-3.6554,-3.6198,-3.5867,-3.5755,-3.5302,-3.5023,-3.5023,-3.5023,-3.499,-3.4957,-3.4957,-3.4971,-3.4905,-3.4905,-3.4905,-3.4905,-3.4905,-3.4905,-3.4905,-3.4905,-3.4905,-3.4905,-3.4572,-3.4404,-3.4101,-3.4101,-3.4101,-3.4101,-3.4101,-3.4182,-3.4505,-3.457,-3.4781,-3.5525,-3.6254,0.0,0.0,0.0,0.0,0.0,0.0,0.0,-3.7653,-3.7637,-3.7682,0.0,-3.7844,0.0,-3.796,-3.796,-3.8033,0.0,-3.8307,-3.8391,-3.8391,-3.8391,-3.8391,-3.8391,-3.8262,-3.8062,-3.7788,-3.7522,-3.7104,-3.6492,-3.6677,-3.6785,-3.6785,-3.6938,-3.7013,-3.7013,0.0,-3.6907,-3.6785,-3.6785,-3.6662,-3.6492,-3.6492,-3.6492,-3.6492,-3.6492,-3.6492,-3.6492,-3.6492,-3.6906,-3.7399,-3.7399,-3.734,-3.728,-3.728,-3.728,-3.7235,-3.7054,-3.6676,-3.6321,-3.618,-3.5814,-3.5504,-3.5504,-3.5504,-3.5504,-3.5504,-3.5504,-3.5504,-3.5504,-3.5504,-3.5439,-3.5213,-3.518,-3.5096,-3.4765,-3.4698,-3.4935,-3.5546,-3.5302,-3.5055,-3.4971,-3.462,-3.4414,-3.4414,-3.4414,-3.4414,-3.4414,-3.4414,-3.4414,-3.4414,-3.4414,-3.4414,-3.4414,-3.4414,-3.4414,-3.4414,-3.4414,-3.4346,-3.4264,-3.4162,-3.4025,-3.4101,-3.4101,-3.4101,-3.4101,-3.4165,-3.4408,-3.5065,-3.5292,-3.5542,-3.6287,0.0,0.0,-3.7425,0.0,-3.8335,-3.8335,0.0,-3.777,-3.777,-3.7535,-3.7358,-3.7358,-3.7387,-3.7417,-3.7417,-3.7417,-3.7535,-3.7828,-3.8103,-3.8307,-3.8408,-3.8363,-3.8307,-3.8278,-3.7988,-3.7581,-3.7015,-3.724,-3.7074,-3.6492,-3.6492,-3.6492,-3.6492,-3.6492,-3.6492,-3.6492,0.0,0.0,-3.6492,-3.6492,-3.6492,-3.6492,-3.6492,-3.6492,-3.6492,-3.6492,-3.6492,-3.6492,-3.6492,-3.6352,-3.6179,-3.6196,-3.6116,-3.6005,-3.6005,-3.6005,-3.5973,-3.5752,-3.5688,-3.5671,-3.5522,-3.5504,-3.5504,-3.5504,-3.5504,-3.5504,-3.5504,-3.5504,-3.5504,-3.5504,-3.5504,-3.5439,-3.518,-3.5148,-3.5049,-3.4698,-3.4664,-3.4597,-3.4414,-3.4414,-3.4414,-3.4414,-3.4414,-3.4414,-3.4414,-3.4414,-3.4414,-3.4414,-3.4414,-3.4414,-3.4414,-3.4414,-3.4414,-3.4414,-3.4414,-3.4414,-3.4414,-3.438,-3.4264,-3.4094,-3.4059,-3.3868,-3.4101,-3.4101,-3.4101,-3.4101,-3.4554,-3.5049,-3.5179,-3.5655,0.0,0.0,0.0,-3.7473,-3.81,-3.8096,0.0,-3.7988,0.0,0.0,0.0,0.0,-3.706,0.0,0.0,0.0,0.0,0.0,0.0,0.0,0.0,-3.7815,-3.8363,-3.8148,-3.7857,-3.7594,-3.7535,-3.7344,-3.6999,-3.706,-3.6862,-3.6492,-3.6492,-3.6492,-3.6492,-3.6492,-3.6492,-3.6492,-3.6492,0.0,-3.6492,-3.6492,-3.6492,-3.6492,-3.6492,-3.6492,-3.6492,-3.6492,-3.6492,-3.6492,-3.6492,-3.6304,-3.6053,-3.6164,-3.6116,-3.6005,-3.6005,-3.6005,-3.5973,-3.5752,-3.5688,-3.5671,-3.5522,-3.5504,-3.5504,-3.5504,-3.5504,-3.5504,-3.5504,-3.5504,-3.5504,-3.5504,-3.5504,-3.5359,-3.5001,-3.4935,-3.4835,-3.4515,-3.4448,-3.4448,-3.4414,-3.4414,-3.4414,-3.4414,-3.4414,-3.4414,-3.4414,-3.4414,-3.4414,-3.4414,-3.4414,-3.4414,-3.4414,-3.4414,-3.4414,-3.4414,-3.4414,-3.4414,-3.4414,-3.423,-3.4128,-3.4094,-3.3833,-3.3675,-3.4101,-3.4101,-3.4182,-3.457,-3.4952,-3.5406,-3.6125,0.0,0.0,0.0,0.0,-3.7987,-3.8327,0.0,0.0,0.0,0.0,0.0,0.0,0.0,0.0,0.0,0.0,0.0,0.0,0.0,0.0,0.0,0.0,-3.7389,-3.7844,-3.7711,-3.7565,-3.7417,-3.7417,-3.7254,-3.7015,-3.7015,-3.6847,-3.6492,-3.6492,-3.6492,-3.6492,-3.6492,-3.6492,-3.6492,-3.6492,0.0,-3.6492,-3.6492,-3.6492,-3.6492,-3.6492,-3.6492,-3.6492,-3.6492,-3.6492,-3.6492,-3.6383,-3.6195,-3.6005,-3.5943,-3.5846,-3.5733,-3.5733,-3.5733,-3.5701,-3.5636,-3.5604,-3.5572,-3.5537,-3.5504,-3.5504,-3.5504,-3.5504,-3.5504,-3.5504,-3.5504,-3.5504,-3.5504,-3.5439,-3.5261,-3.4935,-3.4835,-3.4716,-3.4448,-3.4414,-3.4414,-3.4414,-3.4414,-3.4414,-3.4414,-3.4414,-3.4414,-3.4414,-3.4414,-3.4414,-3.4414,-3.4414,-3.4414,-3.4414,-3.4414,-3.4414,-3.4414,-3.4414,-3.4414,-3.4414,-3.4196,-3.4059,-3.3971,-3.3709,-3.3536,-3.4101,-3.4214,-3.4473,-3.5065,-3.5438,-3.593,-3.7036,-3.7409,0.0,0.0,0.0,-3.8391,-3.8391,0.0,0.0,0.0,0.0,0.0,0.0,0.0,0.0,0.0,0.0,0.0,0.0,0.0,0.0,0.0,0.0,0.0,-3.7314,-3.7314,-3.7284,-3.7208,-3.7208,-3.7119,-3.6908,-3.6877,-3.6754,-3.6492,-3.6492,-3.6492,-3.6492,-3.6492,-3.6492,-3.6492,-3.6492,0.0,0.0,-3.6492,-3.6492,-3.6492,-3.6492,-3.6492,-3.6492,-3.6492,-3.6492,-3.646,-3.6274,-3.6116,-3.5973,-3.5752,-3.5621,-3.5504,-3.5504,-3.5504,-3.5504,-3.5504,-3.5504,-3.5504,-3.5504,-3.5504,-3.5504,-3.5504,-3.5504,-3.5504,-3.5504,-3.5504,-3.5504,-3.5504,-3.5326,-3.5148,-3.4935,-3.4783,-3.4631,-3.4414,-3.4414,-3.4414,-3.4414,-3.4414,-3.4414,-3.4414,-3.4414,-3.4414,-3.4414,-3.4414,-3.4414,-3.4414,-3.4414,-3.4414,-3.4414,-3.4414,-3.4332,-3.4147,-3.4264,-3.4264,-3.4094,-3.4025,-3.3937,-3.3827,-3.3452,-3.3192,-3.4101,-3.4586,-3.513,-3.5195,-3.6157,-3.7134,-3.7263,0.0,0.0,0.0,-3.8391,-3.8391,-3.8391,-3.7873,0.0,0.0,0.0,0.0,0.0,0.0,0.0,0.0,0.0,0.0,0.0,0.0,0.0,0.0,0.0,0.0,-3.703,-3.703,-3.6908,-3.6585,-3.6569,-3.6585,-3.6554,-3.6554,-3.6523,-3.6492,-3.6492,-3.6492,-3.6492,-3.6492,-3.6492,-3.6492,-3.6492,0.0,0.0,-3.6492,-3.6492,-3.6492,-3.6492,-3.6492,-3.6492,-3.6492,-3.6492,-3.646,-3.6274,-3.6116,-3.5973,-3.5752,-3.5621,-3.5504,-3.5504,-3.5504,-3.5504,-3.5504,-3.5504,-3.5504,-3.5504,-3.5504,-3.5504,-3.5504,-3.5504,-3.5504,-3.5504,-3.5504,-3.5504,-3.5504,-3.5326,-3.5148,-3.4935,-3.4783,-3.4631,-3.4414,-3.4414,-3.4414,-3.4414,-3.4414,-3.4414,-3.4414,-3.4414,-3.4414,-3.4414,-3.4414,-3.4414,-3.4414,-3.4414,-3.4414,-3.4414,-3.4414,-3.4079,-3.3332,-3.3859,-3.3805,-3.3129,-3.3486,-3.364,-3.3605,-3.269,-3.2232,-3.4176,-3.4635,-3.5325,-3.5736,-3.6594,-3.7409,-3.7873,0.0,0.0,-3.8391,-3.8391,-3.8391,-3.8391,-3.7844,-3.7506,0.0,0.0,0.0,0.0,0.0,0.0,0.0,0.0,0.0,0.0,0.0,0.0,0.0,0.0,0.0,-3.6677,-3.6693,-3.6647,-3.6492,-3.6492,-3.6492,-3.6492,-3.6492,-3.6492,-3.6492,-3.6492,-3.6492,-3.6492,-3.6492,-3.6492,-3.6492,-3.6492,0.0,0.0,-3.6492,-3.6492,-3.6492,-3.6492,-3.6492,-3.6492,-3.6492,-3.6492,-3.646,-3.6195,-3.6022,-3.5941,-3.5668,-3.5554,-3.5504,-3.5504,-3.5504,-3.5504,-3.5504,-3.5504,-3.5504,-3.5504,-3.5504,-3.5504,-3.5504,-3.5504,-3.5472,-3.5359,-3.5407,-3.5439,-3.518,-3.5082,-3.4968,-3.4817,-3.4249,-3.3776,-3.3707,-3.3311,-3.303,-3.303,-3.303,-3.303,-3.303,-3.3859,-3.4414,-3.4414,-3.4414,-3.4414,-3.4414,-3.4414,-3.4414,-3.4414,-3.3928,-3.3485,-3.3038,-3.2804,-3.2519,-3.211,-3.264,-3.2868,-3.2868,-3.234,-3.211,-3.4486,-3.4943,-3.5687,-3.6432,-3.7128,-3.7776,0.0,0.0,0.0,-3.8391,-3.8391,-3.8391,-3.8391,-3.7844,-3.7476,0.0,0.0,0.0,0.0,0.0,0.0,0.0,0.0,0.0,0.0,0.0,0.0,0.0,0.0,0.0,0.0,-3.6492,-3.6492,-3.6492,-3.6492,-3.6492,-3.6492,-3.6492,-3.6492,-3.6492,-3.6492,-3.6492,-3.6492,-3.6492,-3.6492,-3.6492,0.0,0.0,0.0,-3.6492,-3.6492,-3.6492,-3.6492,-3.6492,-3.6492,-3.6492,-3.646,-3.6352,-3.61,-3.5973,-3.5878,-3.5587,-3.5504,-3.5504,-3.5504,-3.5504,-3.5504,-3.5504,-3.5504,-3.5504,-3.5504,-3.5472,-3.5407,-3.5407,-3.5359,-3.5294,-3.5148,-3.5213,-3.5261,-3.4935,-3.4868,-3.4735,-3.4399,-3.3693,-3.3108,-3.2897,-3.2434,-3.211,-3.211,-3.211,-3.211,-3.211,-3.3066,-3.3722,-3.3722,-3.3722,-3.3722,-3.3722,-3.3928,-3.3928,-3.3722,-3.3381,-3.2897,-3.2241,-3.1892,-3.1489,-3.1055,-3.1659,-3.1965,-3.1965,-3.1563,-3.1267,-3.5103,-3.572,-3.6448,-3.7117,-3.7857,-3.8391,0.0,0.0,0.0,-3.8391,-3.8391,-3.8391,-3.8391,-3.7844,-3.7417,-3.7401,0.0,0.0,0.0,0.0,0.0,0.0,0.0,0.0,0.0,0.0,0.0,0.0,0.0,0.0,0.0,-3.6492,-3.6492,-3.6492,-3.6492,-3.6492,-3.6492,-3.6492,-3.6492,-3.6492,-3.6492,-3.6492,-3.6492,-3.6492,-3.6492,0.0,0.0,0.0,0.0,-3.6492,-3.6492,-3.6492,-3.6492,-3.6492,-3.6492,-3.6492,-3.6383,-3.6179,-3.6068,-3.5863,-3.5688,-3.5554,-3.5504,-3.5504,-3.5504,-3.5504,-3.5504,-3.5504,-3.5504,-3.5504,-3.5504,-3.5359,-3.518,-3.518,-3.5034,-3.4902,-3.4902,-3.4902,-3.4902,-3.4902,-3.4783,-3.4433,-3.3659,-3.3332,-3.2932,-3.2218,-3.211,-3.211,-3.211,-3.211,-3.211,-3.211,-3.211,-3.211,-3.211,-3.211,-3.211,-3.211,-3.2791,-3.2911,-3.2146,-3.2826,-3.2384,-3.0683,-3.1206,-3.1007,-3.0024,-3.0632,-3.0932,-3.0895,-3.0114,-2.9289,-3.531,-3.6076,-3.702,-3.7231,-3.7857,-3.8391,-3.8391,0.0,-3.8391,-3.8391,-3.8391,-3.8391,-3.8391,-3.7844,-3.7417,-3.7417,-3.6892,0.0,0.0,0.0,0.0,0.0,0.0,0.0,0.0,0.0,0.0,0.0,0.0,0.0,0.0,-3.5958,-3.6116,-3.6492,-3.6492,-3.6492,-3.6492,-3.6492,-3.6492,-3.6492,-3.6492,-3.6492,-3.6492,-3.6492,0.0,0.0,0.0,0.0,0.0,-3.6492,-3.6492,-3.6492,-3.6492,-3.6492,-3.6492,-3.6352,-3.6242,-3.6164,-3.5894,-3.5752,-3.5688,-3.5554,-3.5504,-3.5504,-3.5504,-3.5504,-3.5504,-3.5504,-3.5504,-3.5504,-3.5504,-3.5359,-3.518,-3.518,-3.5034,-3.4868,-3.4783,-3.485,-3.4835,-3.4601,-3.4167,-3.3776,-3.3367,-3.2384,-3.1549,-3.1291,-3.0859,-3.0545,-3.0545,-3.0545,-3.0545,-3.0545,-3.0545,-3.0934,-3.2015,-3.211,-3.2051,-3.1905,-3.211,-3.2146,-3.1905,-3.1452,-3.097,-3.0431,-2.9896,-2.9433,-2.9,-2.9704,-3.0075,-3.0075,-2.9819,-2.9263,0.0,-3.6448,-3.736,-3.7663,-3.8068,0.0,0.0,0.0,-3.8391,-3.8391,-3.8391,-3.8391,-3.8391,-3.7844,-3.7417,-3.7417,-3.6892,0.0,0.0,0.0,0.0,0.0,0.0,0.0,0.0,0.0,0.0,0.0,0.0,0.0,0.0,-3.5382,-3.564,-3.6195,-3.6383,-3.6492,-3.6492,-3.6492,-3.6492,-3.6492,-3.6492,-3.6492,-3.6492,-3.6492,0.0,0.0,0.0,0.0,0.0,-3.6492,-3.6492,-3.6492,-3.6414,-3.6383,-3.6352,-3.6179,-3.6085,-3.5975,-3.5784,-3.5671,-3.5621,-3.5537,-3.5504,-3.5504,-3.5504,-3.5504,-3.5504,-3.5504,-3.5504,-3.5504,-3.5504,-3.5082,-3.4687,-3.4687,-3.4254,-3.3831,-3.3756,-3.3762,-3.3796,-3.3569,-3.3241,-3.2826,-3.242,-3.1549,-3.082,-3.052,-3.0101,-2.9792,-2.9792,-2.9792,-2.9792,-2.9792,-2.9792,-3.0139,-3.1007,-3.1082,-3.1007,-3.0895,-3.1095,-3.1095,-3.0796,-3.0469,-3.0126,-2.9742,-2.9145,-2.8685,-2.851,-2.8988,-2.9263,-2.9263,-2.9263,-2.9,0.0,-3.6837,-3.7549,-3.823,-3.8391,0.0,0.0,0.0,0.0,-3.8391,-3.8391,-3.8391,-3.8391,-3.7873,-3.7447,-3.7401,-3.6892,0.0,0.0,0.0,0.0,0.0,0.0,0.0,0.0,0.0,0.0,0.0,0.0,0.0,0.0,-3.4843,-3.5088,-3.5623,-3.6116,-3.6429,-3.6492,-3.646,-3.646,-3.6492,-3.646,-3.646,-3.6492,-3.6492,0.0,0.0,0.0,0.0,0.0,-3.6429,-3.6445,-3.646,-3.6274,-3.6179,-3.6179,-3.6037,-3.5863,-3.5688,-3.5688,-3.5589,-3.5504,-3.5424,-3.5392,-3.5392,-3.5359,-3.5407,-3.5504,-3.5424,-3.5392,-3.5392,-3.5359,-3.4539,-3.3728,-3.3728,-3.2897,-3.211,-3.211,-3.211,-3.211,-3.211,-3.2037,-3.1783,-3.1044,-3.0857,-3.0582,-2.9895,-2.9792,-2.9792,-2.9792,-2.9792,-2.9792,-2.9792,-2.9792,-2.9689,-2.9419,-2.9419,-2.938,-2.938,-2.9871,-2.9871,-2.9091,-2.9793,-2.9755,-2.8831,-2.8803,-2.8685,-2.851,-2.851,-2.851,-2.851,-2.851,-2.851,-3.6352,0.0,-3.8181,-3.8359,-3.8391,-3.8391,0.0,0.0,0.0,0.0,0.0,0.0,0.0,0.0,0.0,0.0,0.0,0.0,0.0,0.0,0.0,0.0,0.0,0.0,0.0,0.0,0.0,0.0,0.0,0.0,0.0,-3.4274,-3.4543,-3.5088,-3.5219,-3.5688,-3.6492,-3.6085,-3.6085,-3.6492,-3.6085,-3.6085,-3.6492,-3.6492,0.0,0.0,0.0,0.0,-3.5894,-3.5705,-3.5911,-3.6242,-3.61,-3.6068,-3.6022,-3.5831,-3.5752,-3.5688,-3.5572,-3.5537,-3.5392,-3.4791,-3.4576,-3.4476,-3.3919,-3.4572,-3.5359,-3.4758,-3.4576,-3.4461,-3.3885,-3.3346,-3.2974,-3.2974,-3.2533,-3.211,-3.211,-3.211,-3.211,-3.211,-3.1599,-3.1119,-3.0932,-3.0444,-2.9998,-2.983,-2.9792,-2.9792,-2.9792,-2.9792,-2.9792,-2.9792,-2.9792,-2.9689,-2.9419,-2.9419,-2.9263,-2.8949,-2.9067,-2.9067,-2.8882,-2.8882,-2.8882,-2.8791,-2.8657,-2.855,-2.851,-2.851,-2.851,-2.851,-2.851,-2.851,-3.6303,-3.7096,-3.7987,-3.8327,-3.8391,-3.8391,-3.8391,0.0,0.0,0.0,0.0,0.0,0.0,0.0,0.0,0.0,0.0,0.0,0.0,0.0,0.0,0.0,0.0,0.0,0.0,0.0,0.0,0.0,0.0,0.0,0.0,-3.3736,-3.3997,-3.4509,-3.4543,-3.4924,-3.5752,-3.5479,-3.5479,-3.5752,-3.5479,-3.5623,-3.6116,-3.6116,-3.599,0.0,0.0,0.0,-3.5059,-3.4927,-3.4945,-3.5044,-3.4894,-3.5041,-3.5317,-3.5139,-3.5073,-3.5041,-3.4957,-3.4739,-3.4356,-3.3953,-3.3802,-3.3734,-3.3318,-3.3796,-3.4356,-3.3919,-3.3719,-3.3567,-3.3164,-3.2528,-3.2015,-3.2015,-3.1516,-3.1046,-3.1046,-3.1046,-3.1046,-3.1046,-3.0671,-3.0419,-3.0419,-3.0062,-2.9792,-2.9792,-2.9792,-2.9792,-2.9792,-2.9792,-2.9792,-2.9792,-2.9702,-2.9521,-2.9275,-2.9184,-2.9028,-2.8791,-2.8724,-2.8657,-2.8657,-2.8538,-2.855,-2.8657,-2.8538,-2.851,-2.851,-2.851,-2.851,-2.851,-2.851,-2.851,-3.6124,-3.6643,-3.7355,-3.8197,-3.8391,-3.8391,0.0,0.0,0.0,0.0,0.0,0.0,0.0,0.0,0.0,0.0,0.0,0.0,0.0,0.0,0.0,0.0,0.0,0.0,0.0,0.0,0.0,0.0,0.0,0.0,0.0,-3.329,-3.3507,-3.3948,-3.3982,-3.4187,-3.4658,-3.4758,-3.481,-3.4909,-3.481,-3.5055,-3.5591,-3.5591,-3.5512,0.0,0.0,0.0,-3.4177,-3.4143,-3.3973,-3.365,-3.3492,-3.3851,-3.4361,-3.4211,-3.4129,-3.4129,-3.4129,-3.365,-3.3038,-3.3038,-3.3038,-3.3003,-3.2911,-3.2946,-3.3003,-3.2911,-3.2812,-3.2713,-3.2571,-3.1792,-3.1044,-3.1044,-3.0381,-2.9792,-2.9792,-2.9792,-2.9792,-2.9792,-2.9792,-2.9792,-2.9792,-2.9792,-2.9792,-2.9792,-2.9792,-2.9792,-2.9792,-2.9792,-2.9792,-2.974,-2.956,-2.9314,-2.9091,-2.8882,-2.8803,-2.8764,-2.8578,-2.851,-2.851,-2.851,-2.851,-2.851,-2.851,-2.851,-2.851,-2.851,-2.851,-2.851,-2.851,-2.851,-3.5368,-3.5898,-3.6772,-3.8068,-3.8391,-3.8391,0.0,0.0,0.0,0.0,0.0,0.0,0.0,0.0,0.0,0.0,0.0,0.0,0.0,0.0,0.0,0.0,0.0,0.0,0.0,0.0,0.0,0.0,0.0,0.0,0.0,-3.329,-3.3347,-3.3417,-3.3417,-3.3437,-3.3542,-3.3997,-3.4442,-3.4876,-3.4442,-3.4509,-3.5008,-3.5008,-3.4776,0.0,0.0,-3.4056,-3.361,-3.35,-3.3485,-3.3492,-3.3332,-3.3332,-3.3422,-3.3388,-3.3353,-3.3353,-3.3353,-3.2897,-3.2254,-3.2254,-3.2254,-3.216,-3.1542,-3.1773,-3.216,-3.1505,-3.1626,-3.1833,-3.1209,-3.0672,-3.0254,-3.0254,-3.0037,-2.9792,-2.9792,-2.9792,-2.9792,-2.9792,-2.9792,-2.9792,-2.9792,-2.9792,-2.9792,-2.9792,-2.9792,-2.9792,-2.9792,-2.9792,-2.9702,-2.947,-2.9419,-2.9263,-2.8882,-2.8843,-2.8724,-2.8538,-2.851,-2.851,-2.851,-2.851,-2.851,-2.851,-2.851,-2.851,-2.851,-2.851,-2.851,-2.851,-2.851,-2.851,-3.5154,-3.5454,-3.6044,-3.7452,-3.8116,0.0,0.0,0.0,0.0,0.0,0.0,0.0,0.0,0.0,0.0,0.0,0.0,0.0,0.0,0.0,0.0,0.0,0.0,0.0,0.0,0.0,0.0,0.0,0.0,0.0,0.0,0.0,-3.329,-3.329,-3.329,-3.329,-3.329,-3.3542,-3.3805,-3.4031,-3.3805,-3.3962,-3.4476,-3.4476,-3.4341,-3.407,0.0,-3.3367,-3.2712,-3.2475,-3.2295,-3.2137,-3.2042,-3.2232,-3.2613,-3.2613,-3.2613,-3.2541,-3.2137,-3.1786,-3.1505,-3.1505,-3.1505,-3.1431,-3.1086,-3.1222,-3.1394,-3.0949,-3.0923,-3.0985,-3.0634,-3.0228,-2.9934,-2.9934,-2.9869,-2.9792,-2.9792,-2.9792,-2.9792,-2.9792,-2.9792,-2.9792,-2.9792,-2.9792,-2.9792,-2.9792,-2.9792,-2.9792,-2.9792,-2.9792,-2.9702,-2.9419,-2.9314,-2.9118,-2.8831,-2.8685,-2.8618,-2.851,-2.851,-2.851,-2.851,-2.851,-2.851,-2.851,-2.851,-2.851,-2.851,-2.851,-2.851,-2.851,-2.851,-2.851,-3.4908,-3.5082,-3.5471,-3.6546,0.0,0.0,0.0,0.0,0.0,0.0,0.0,0.0,0.0,0.0,0.0,0.0,0.0,0.0,0.0,0.0,0.0,0.0,0.0,0.0,0.0,0.0,0.0,0.0,0.0,0.0,0.0,0.0,-3.329,-3.329,-3.329,-3.329,-3.329,-3.329,-3.329,-3.329,-3.329,-3.3507,-3.3914,-3.3914,-3.3914,-3.3894,-3.3485,-3.2854,-3.2055,-3.174,-3.1347,-3.0986,-3.0986,-3.1371,-3.1846,-3.1846,-3.1846,-3.1773,-3.1198,-3.0986,-3.0986,-3.0986,-3.0986,-3.0986,-3.0986,-3.0986,-3.0911,-3.0736,-3.0533,-3.033,-3.033,-3.0075,-2.9792,-2.9792,-2.9792,-2.9792,-2.9792,-2.9792,-2.9792,-2.9792,-2.9792,-2.9792,-2.9792,-2.9792,-2.9792,-2.9792,-2.9792,-2.9792,-2.9792,-2.9753,-2.9611,-2.9353,-2.9157,-2.8973,-2.8764,-2.8578,-2.851,-2.851,-2.851,-2.851,-2.851,-2.851,-2.851,-2.851,-2.851,-2.851,-2.851,-2.851,-2.851,-2.851,-2.851,-2.851,-3.4266,-3.4667,-3.5228,-3.5341,0.0,0.0,0.0,0.0,0.0,0.0,0.0,0.0,0.0,0.0,0.0,0.0,0.0,0.0,0.0,0.0,0.0,0.0,0.0,0.0,0.0,0.0,0.0,0.0,0.0,0.0,0.0,0.0,0.0,-3.329,-3.329,-3.329,-3.329,-3.329,-3.329,-3.329,-3.329,-3.3312,-3.3347,-3.3347,-3.3347,-3.3347,-3.2931,-3.2525,-3.2055,-3.174,-3.1347,-3.0986,-3.0986,-3.1011,-3.1086,-3.1086,-3.1086,-3.1048,-3.1024,-3.0986,-3.0986,-3.0986,-3.0986,-3.0986,-3.0986,-3.0874,-3.0736,-3.0698,-3.0432,-3.0113,-3.0113,-2.9972,-2.9792,-2.9792,-2.9792,-2.9792,-2.9792,-2.9792,-2.9792,-2.9792,-2.9792,-2.9792,-2.9792,-2.9792,-2.9792,-2.9792,-2.9792,-2.9792,-2.9792,-2.956,-2.9353,-2.9131,-2.8922,-2.8724,-2.855,-2.851,-2.851,-2.851,-2.851,-2.851,-2.851,-2.851,-2.851,-2.851,-2.851,-2.851,-2.851,-2.851,-2.851,-2.851,-2.851,-2.851,-3.4151,-3.4635,-3.5211,-3.5211,0.0,0.0,0.0,0.0,0.0,0.0,0.0,0.0,0.0,0.0,0.0,0.0,0.0,0.0,0.0,0.0,0.0,0.0,0.0,0.0,0.0,0.0,0.0,0.0,0.0,0.0,0.0,0.0,0.0,-3.329,-3.329,-3.329,-3.329,-3.329,-3.329,-3.329,-3.329,-3.329,-3.329,-3.329,-3.3157,-3.2895,-3.2489,-3.2128,-3.1776,-3.1384,-3.1123,-3.0986,-3.0986,-3.0986,-3.0986,-3.0986,-3.0986,-3.0986,-3.0986,-3.0986,-3.0986,-3.0986,-3.0986,-3.0986,-3.0986,-3.0836,-3.066,-3.0533,-3.0305,-3.0113,-3.0113,-2.9934,-2.9792,-2.9792,-2.9792,-2.9792,-2.9792,-2.9792,-2.9792,-2.9792,-2.9792,-2.9792,-2.9792,-2.9792,-2.9792,-2.9792,-2.9792,-2.9792,-2.9792,-2.956,-2.9302,-2.9131,-2.8816,-2.8578,-2.851,-2.851,-2.851,-2.851,-2.851,-2.851,-2.851,-2.851,-2.851,-2.851,-2.851,-2.851,-2.851,-2.851,-2.851,-2.851,-2.851,-2.851,-3.4441,-3.4813,-3.5234,0.0,0.0,0.0,0.0,0.0,0.0,0.0,0.0,0.0,0.0,0.0,0.0,0.0,0.0,0.0,0.0,0.0,0.0,0.0,0.0,0.0,0.0,0.0,0.0,0.0,0.0,0.0,0.0,0.0,0.0,0.0,-3.329,-3.329,-3.329,-3.329,-3.329,-3.329,-3.329,-3.329,-3.329,-3.3171,-3.2966,-3.2668,-3.2164,-3.1813,-3.1556,-3.1161,-3.0986,-3.0986,-3.0986,-3.0986,-3.0986,-3.0986,-3.0986,-3.0986,-3.0986,-3.0986,-3.0986,-3.0986,-3.0986,-3.0986,-3.0911,-3.0761,-3.0571,-3.0368,-3.0152,-3.0011,-3.0011,-2.9895,-2.9792,-2.9792,-2.9792,-2.9792,-2.9792,-2.9792,-2.9792,-2.9792,-2.9792,-2.9792,-2.9792,-2.9792,-2.9792,-2.9792,-2.9792,-2.9753,-2.9702,-2.9443,-2.9197,-2.8934,-2.8657,-2.851,-2.851,-2.851,-2.851,-2.851,-2.851,-2.851,-2.851,-2.851,-2.851,-2.851,-2.851,-2.851,-2.851,-2.851,-2.851,-2.851,-2.851,-2.8471,-3.5195,-3.5211,0.0,0.0,0.0,0.0,0.0,0.0,0.0,0.0,0.0,0.0,0.0,0.0,0.0,0.0,0.0,0.0,0.0,0.0,0.0,0.0,0.0,0.0,0.0,0.0,0.0,0.0,0.0,0.0,0.0,0.0,0.0,0.0,-3.329,-3.329,-3.329,-3.329,-3.329,-3.329,-3.329,-3.329,-3.329,-3.2895,-3.2704,-3.2668,-3.1909,-3.1593,-3.1556,-3.1161,-3.0986,-3.0986,-3.0986,-3.0986,-3.0986,-3.0986,-3.0986,-3.0986,-3.0986,-3.0986,-3.0986,-3.0986,-3.0986,-3.0949,-3.0773,-3.0571,-3.0368,-3.0152,-2.9972,-2.9792,-2.9792,-2.9792,-2.9792,-2.9792,-2.9792,-2.9792,-2.9792,-2.9792,-2.9792,-2.9792,-2.9792,-2.9792,-2.9792,-2.9792,-2.9792,-2.9792,-2.9792,-2.9702,-2.9419,-2.9236,-2.8934,-2.855,-2.851,-2.851,-2.851,-2.851,-2.851,-2.851,-2.851,-2.851,-2.851,-2.851,-2.851,-2.851,-2.851,-2.851,-2.851,-2.851,-2.851,-2.851,-2.851,-2.8379,-3.4424,0.0,0.0,0.0,0.0,0.0,0.0,0.0,0.0,0.0,0.0,0.0,0.0,0.0,0.0,0.0,0.0,0.0,0.0,0.0,0.0,0.0,0.0,0.0,0.0,0.0,0.0,0.0,0.0,0.0,0.0,0.0,0.0,0.0,-3.329,-3.329,-3.329,-3.329,-3.329,-3.329,-3.329,-3.3157,-3.286,-3.2739,-3.2417,-3.1909,-3.1703,-3.1445,-3.1161,-3.1061,-3.0986,-3.0986,-3.0986,-3.0986,-3.0986,-3.0986,-3.0986,-3.0986,-3.0986,-3.0986,-3.0986,-3.0986,-3.0911,-3.0773,-3.0736,-3.0457,-3.019,-3.0113,-2.9972,-2.9792,-2.9792,-2.9792,-2.9792,-2.9792,-2.9792,-2.9792,-2.9792,-2.9792,-2.9792,-2.9792,-2.9792,-2.9792,-2.9792,-2.9792,-2.9792,-2.9792,-2.965,-2.9392,-2.9028,-2.8922,-2.8803,-2.855,-2.851,-2.851,-2.851,-2.851,-2.851,-2.851,-2.851,-2.851,-2.851,-2.851,-2.851,-2.851,-2.851,-2.851,-2.851,-2.851,-2.851,-2.851,-2.851,-2.8379,-3.5164,0.0,0.0,0.0,0.0,0.0,0.0,0.0,0.0,0.0,0.0,0.0,0.0,0.0,0.0,0.0,0.0,0.0,0.0,0.0,0.0,0.0,0.0,0.0,0.0,0.0,0.0,0.0,0.0,0.0,0.0,0.0,0.0,0.0,-3.329,-3.329,-3.329,-3.329,-3.329,-3.329,-3.3122,-3.286,-3.2453,-3.2453,-3.2164,-3.1593,-3.1421,-3.1235,-3.0986,-3.0986,-3.0986,-3.0986,-3.0986,-3.0986,-3.0986,-3.0986,-3.0986,-3.0986,-3.0986,-3.0986,-3.0986,-3.0911,-3.0811,-3.066,-3.0508,-3.0267,-3.0075,-3.0011,-2.9908,-2.9792,-2.9792,-2.9792,-2.9792,-2.9792,-2.9792,-2.9792,-2.9792,-2.9792,-2.9792,-2.9792,-2.9792,-2.9792,-2.9792,-2.9792,-2.9792,-2.9792,-2.9482,-2.9145,-2.8843,-2.8724,-2.8618,-2.851,-2.851,-2.851,-2.851,-2.851,-2.851,-2.851,-2.851,-2.851,-2.851,-2.851,-2.851,-2.851,-2.851,-2.851,-2.851,-2.851,-2.851,-2.851,-2.851,-2.8351,0.0,0.0,0.0,0.0,0.0,0.0,0.0,0.0,0.0,0.0,0.0,0.0,0.0,0.0,0.0,0.0,0.0,0.0,0.0,0.0,0.0,0.0,0.0,0.0,0.0,0.0,0.0,0.0,0.0,0.0,0.0,0.0,0.0,-3.329,-3.329,-3.329,-3.329,-3.329,-3.329,0.0,-3.2846,-3.2489,-3.2055,-3.2055,-3.1873,-3.1519,-3.1161,-3.0986,-3.0986,-3.0986,-3.0986,-3.0986,-3.0986,-3.0986,-3.0986,-3.0986,-3.0986,-3.0986,-3.0986,-3.0986,-3.0949,-3.0773,-3.066,-3.0584,-3.019,-3.0075,-3.0049,-2.9869,-2.9792,-2.9792,-2.9792,-2.9792,-2.9792,-2.9792,-2.9792,-2.9792,-2.9792,-2.9792,-2.9792,-2.9792,-2.9792,-2.9792,-2.9792,-2.9792,-2.9792,-2.9753,-2.9378,-2.9013,-2.8803,-2.8618,-2.851,-2.851,-2.851,-2.851,-2.851,-2.851,-2.851,-2.851,-2.851,-2.851,-2.851,-2.851,-2.851,-2.851,-2.851,-2.851,-2.851,-2.851,-2.851,-2.851,-2.8471,-2.8271,0.0,0.0,0.0,0.0,0.0,0.0,0.0,0.0,0.0,0.0,0.0,0.0,0.0,0.0,0.0,0.0,0.0,0.0,0.0,0.0,0.0,0.0,0.0,0.0,0.0,0.0,0.0,0.0,0.0,0.0,0.0,0.0,0.0,-3.329,-3.329,-3.329,-3.329,-3.329,-3.3122,0.0,-3.2739,-3.2345,-3.1703,-3.1703,-3.1482,-3.1123,-3.1061,-3.0986,-3.0986,-3.0986,-3.0986,-3.0986,-3.0986,-3.0986,-3.0986,-3.0986,-3.0986,-3.0986,-3.0986,-3.0911,-3.0773,-3.0698,-3.0508,-3.019,-3.0126,-2.9972,-2.9869,-2.9792,-2.9792,-2.9792,-2.9792,-2.9792,-2.9792,-2.9792,-2.9792,-2.9792,-2.9792,-2.9792,-2.9792,-2.9792,-2.9792,-2.9792,-2.9792,-2.9792,-2.9663,-2.93,-2.917,-2.8973,-2.8618,-2.855,-2.851,-2.851,-2.851,-2.851,-2.851,-2.851,-2.851,-2.851,-2.851,-2.851,-2.851,-2.851,-2.851,-2.851,-2.851,-2.851,-2.851,-2.851,-2.851,-2.851,-2.8339,-2.8151,0.0,0.0,0.0,0.0,0.0,0.0,0.0,0.0,0.0,0.0,0.0,0.0,0.0,0.0,0.0,0.0,0.0,0.0,0.0,0.0,0.0,0.0,0.0,0.0,0.0,0.0,0.0,0.0,0.0,0.0,0.0,-3.329,-3.329,-3.329,-3.3122,-3.3016,-3.3016,-3.2838,-3.261,-3.2417,-3.2237,-3.1873,-3.131,-3.131,-3.1198,-3.0986,-3.0986,-3.0986,-3.0986,-3.0986,-3.0986,-3.0986,-3.0986,-3.0986,-3.0986,-3.0986,-3.0986,-3.0986,-3.0874,-3.0811,-3.066,-3.047,-3.0279,-3.0075,-2.9972,-2.9869,-2.9792,-2.9792,-2.9792,-2.9792,-2.9792,-2.9792,-2.9792,-2.9792,-2.9792,-2.9792,-2.9792,-2.9792,-2.9792,-2.9792,-2.9792,-2.9792,-2.9792,-2.9689,-2.9482,-2.9131,-2.9,-2.8855,-2.855,-2.851,-2.851,-2.851,-2.851,-2.851,-2.851,-2.851,-2.851,-2.851,-2.851,-2.851,-2.851,-2.851,-2.851,-2.851,-2.851,-2.851,-2.851,-2.851,-2.851,-2.851,-2.8299,-2.8111,0.0,0.0,0.0,0.0,0.0,0.0,0.0,0.0,0.0,0.0,0.0,0.0,0.0,0.0,0.0,0.0,0.0,0.0,0.0,0.0,0.0,0.0,0.0,0.0,0.0,0.0,0.0,0.0,0.0,0.0,-3.3206,-3.3241,-3.3255,-3.31,-3.286,-3.2668,-3.2596,-3.2273,-3.2055,-3.2019,-3.1666,-3.131,-3.0986,-3.0986,-3.0986,-3.0986,-3.0986,-3.0986,-3.0986,-3.0986,-3.0986,-3.0986,-3.0986,-3.0986,-3.0986,-3.0949,-3.0949,-3.0911,-3.0736,-3.0622,-3.0546,-3.019,-3.0075,-3.0011,-2.9869,-2.9792,-2.9792,-2.9792,-2.9792,-2.9792,-2.9792,-2.9792,-2.9792,-2.9792,-2.9792,-2.9792,-2.9792,-2.9792,-2.9792,-2.9792,-2.9792,-2.9792,-2.9792,-2.956,-2.9341,-2.9131,-2.8922,-2.8724,-2.855,-2.851,-2.851,-2.851,-2.851,-2.851,-2.851,-2.851,-2.851,-2.851,-2.851,-2.8431,-2.8259,-2.8271,-2.8219,-2.8047,-2.8339,-2.851,-2.851,-2.851,-2.851,-2.851,-2.8259,-2.7978,0.0,0.0,0.0,0.0,0.0,0.0,0.0,0.0,0.0,0.0,0.0,0.0,0.0,0.0,0.0,0.0,0.0,0.0,0.0,0.0,0.0,0.0,0.0,0.0,0.0,0.0,0.0,0.0,0.0,0.0,-3.281,-3.3122,-3.298,-3.2273,-3.2561,-3.2525,-3.2164,-3.2128,-3.1946,-3.1666,-3.1272,-3.1061,-3.0986,-3.0986,-3.0986,-3.0986,-3.0986,-3.0986,-3.0986,-3.0986,-3.0986,-3.0986,-3.0986,-3.0986,-3.0986,-3.0811,-3.0736,-3.0698,-3.052,-3.0343,-3.0152,-3.0126,-2.9972,-2.983,-2.9792,-2.9792,-2.9792,-2.9792,-2.9792,-2.9792,-2.9792,-2.9792,-2.9792,-2.9792,-2.9792,-2.9792,-2.9792,-2.9792,-2.9792,-2.9792,-2.9792,-2.9792,-2.9792,-2.956,-2.9341,-2.9131,-2.8922,-2.8724,-2.855,-2.851,-2.851,-2.851,-2.851,-2.851,-2.851,-2.851,-2.851,-2.851,-2.851,-2.8179,-2.7389,-2.7389,-2.701,-2.6163,-2.7713,-2.851,-2.851,-2.851,-2.851,-2.8471,-2.8122,-2.7482,0.0,0.0,0.0,0.0,0.0,0.0,0.0,0.0,0.0,0.0,0.0,0.0,0.0,0.0,0.0,0.0,0.0,0.0,0.0,0.0,0.0,0.0,0.0,0.0,0.0,0.0,0.0,0.0,0.0,-3.2895,-3.2704,-3.2632,-3.2467,-3.2092,-3.2092,-3.1982,-3.1813,-3.1593,-3.1421,-3.1272,-3.1099,-3.0986,-3.0986,-3.0986,-3.0986,-3.0986,-3.0986,-3.0986,-3.0986,-3.0986,-3.0986,-3.0986,-3.0874,-3.0849,-3.0811,-3.0609,-3.0533,-3.0495,-3.0305,-3.019,-3.0075,-2.9972,-2.9869,-2.9792,-2.9792,-2.9792,-2.9792,-2.9792,-2.9792,-2.9792,-2.9792,-2.9792,-2.9792,-2.9792,-2.9792,-2.9792,-2.9792,-2.9792,-2.9792,-2.9792,-2.9792,-2.9792,-2.9792,-2.9482,-2.9197,-2.9091,-2.8816,-2.8618,-2.851,-2.8059,-2.7765,-2.7765,-2.7296,-2.7214,-2.7725,-2.7765,-2.7966,-2.8471,-2.8059,-2.7592,-2.7226,-2.6712,-2.6205,-2.5819,-2.7092,-2.7765,-2.7765,-2.8259,-2.8431,-2.8299,-2.751,-2.6835,0.0,0.0,0.0,0.0,0.0,0.0,0.0,0.0,0.0,0.0,0.0,0.0,0.0,0.0,0.0,0.0,0.0,0.0,0.0,0.0,0.0,0.0,0.0,0.0,0.0,0.0,0.0,0.0,0.0,-3.2525,-3.2417,-3.2237,-3.2019,-3.185,-3.1666,-3.1556,-3.1445,-3.1161,-3.0986,-3.0986,-3.0986,-3.0986,-3.0986,-3.0986,-3.0986,-3.0986,-3.0986,-3.0986,-3.0986,-3.0949,-3.0911,-3.0911,-3.0685,-3.0609,-3.0609,-3.0406,-3.033,-3.0292,-3.0075,-3.0011,-3.0011,-2.9869,-2.9792,-2.9792,-2.9792,-2.9792,-2.9792,-2.9792,-2.9792,-2.9792,-2.9792,-2.9792,-2.9792,-2.9792,-2.9792,-2.9792,-2.9792,-2.9792,-2.9714,-2.9495,-2.9417,-2.9287,-2.9079,-2.8843,-2.8673,-2.8673,-2.8407,-2.8179,-2.8179,-2.7389,-2.6846,-2.6846,-2.6205,-2.608,-2.6794,-2.6846,-2.7133,-2.7753,-2.7214,-2.6753,-2.6505,-2.583,-2.5368,-2.5105,-2.6038,-2.6629,-2.6846,-2.7458,-2.7672,-2.7499,-2.6524,-2.5861,0.0,0.0,0.0,0.0,0.0,0.0,0.0,0.0,0.0,0.0,0.0,0.0,0.0,0.0,0.0,0.0,0.0,0.0,0.0,0.0,0.0,0.0,0.0,0.0,0.0,0.0,0.0,0.0,0.0,-3.1982,-3.1666,-3.1946,-3.1776,-3.1099,-3.1421,-3.1421,-3.1024,-3.1024,-3.0986,-3.0986,-3.0986,-3.0986,-3.0986,-3.0986,-3.0986,-3.0986,-3.0986,-3.0986,-3.0986,-3.0811,-3.0736,-3.0698,-3.0482,-3.0406,-3.0406,-3.019,-3.0113,-3.0075,-2.9908,-2.983,-2.9792,-2.9792,-2.9792,-2.9792,-2.9792,-2.9792,-2.9792,-2.9792,-2.9792,-2.9792,-2.9792,-2.9792,-2.9792,-2.9792,-2.9792,-2.9792,-2.9792,-2.9792,-2.9546,-2.8752,-2.8359,-2.7936,-2.7098,-2.7302,-2.7585,-2.7585,-2.7406,-2.7267,-2.7267,-2.6453,-2.5861,-2.5861,-2.5819,-2.583,-2.5872,-2.5861,-2.5902,-2.5955,-2.5913,-2.5495,-2.4659,-2.4584,-2.4155,-2.3266,-2.4155,-2.5031,-2.5861,-2.5746,-2.5652,-2.561,-2.5136,-2.4404,0.0,0.0,0.0,0.0,0.0,0.0,0.0,0.0,0.0,0.0,0.0,0.0,0.0,0.0,0.0,0.0,0.0,0.0,0.0,0.0,0.0,0.0,0.0,0.0,0.0,0.0,0.0,0.0,0.0,0.0,-3.1593,-3.1482,-3.1272,-3.1024,-3.1123,-3.1161,-3.0986,-3.0986,-3.0986,-3.0986,-3.0986,-3.0986,-3.0986,-3.0986,-3.0986,-3.0986,-3.0986,-3.0986,-3.0986,-3.0911,-3.0811,-3.0698,-3.0482,-3.033,-3.019,-2.9972,-2.9895,-2.9895,-2.983,-2.9792,-2.9792,-2.9792,-2.9792,-2.9792,-2.9792,-2.9792,-2.9792,-2.9792,-2.9792,-2.9792,-2.9792,-2.9792,-2.9792,-2.9792,-2.9792,-2.9663,-2.9079,-2.8961,-2.887,-2.8542,-2.7919,-2.7302,-2.6894,-2.6853,-2.6801,-2.6625,-2.6442,-2.6287,-2.6287,-2.5537,-2.4956,-2.4956,-2.4445,-2.4317,-2.4904,-2.4956,-2.52,-2.5777,-2.5284,-2.4829,-2.4498,-2.3897,-2.343,-2.3101,-2.344,-2.4069,-2.4956,-2.5326,-2.5442,-2.5274,-2.4329,-2.3641,0.0,0.0,0.0,0.0,0.0,0.0,0.0,0.0,0.0,0.0,0.0,0.0,0.0,0.0,0.0,0.0,0.0,0.0,0.0,0.0,0.0,0.0,0.0,0.0,0.0,0.0,0.0,0.0,0.0,0.0,-3.1421,-3.1161,-3.0986,-3.0986,-3.0986,-3.0986,-3.0986,-3.0986,-3.0986,-3.0986,-3.0986,-3.0986,-3.0986,-3.0986,-3.0986,-3.0986,-3.0911,-3.0949,-3.0986,-3.0861,-3.0723,-3.0571,-3.0305,-3.0113,-2.9972,-2.9869,-2.9792,-2.9792,-2.9792,-2.9792,-2.9792,-2.9792,-2.9792,-2.9792,-2.9792,-2.9792,-2.9753,-2.9456,-2.9378,-2.9378,-2.9378,-2.9585,-2.9714,-2.9417,-2.9585,-2.9546,-2.8712,-2.8502,-2.8343,-2.7718,-2.6964,-2.6307,-2.5861,-2.5819,-2.5777,-2.5588,-2.5442,-2.5368,-2.5368,-2.4573,-2.4026,-2.4026,-2.3474,-2.3353,-2.3993,-2.4026,-2.4284,-2.4861,-2.436,-2.4026,-2.4026,-2.344,-2.3091,-2.3091,-2.3091,-2.3387,-2.395,-2.4307,-2.4349,-2.4135,-2.3226,-2.2755,0.0,0.0,0.0,0.0,0.0,0.0,0.0,0.0,0.0,0.0,0.0,0.0,0.0,0.0,0.0,0.0,0.0,0.0,0.0,0.0,0.0,0.0,0.0,0.0,0.0,0.0,0.0,0.0,0.0,-3.0986,-3.0986,-3.0986,-3.0986,-3.0986,-3.0986,-3.0986,-3.0986,-3.0986,-3.0986,-3.0986,-3.0986,-3.0986,-3.0986,-3.0986,-3.0986,-3.0986,-3.0773,-3.0811,-3.0949,-3.0558,-3.0406,-3.0368,-2.9972,-2.9792,-2.9792,-2.9792,-2.9792,-2.9792,-2.9792,-2.9792,-2.9792,-2.9792,-2.9792,-2.9792,-2.9792,-2.9792,-2.9585,-2.8752,-2.8502,-2.8462,-2.8462,-2.9079,-2.9495,-2.8673,-2.9079,-2.9495,-2.8633,-2.8422,-2.7879,-2.611,-2.5389,-2.4798,-2.396,-2.4166,-2.4456,-2.4456,-2.4456,-2.4456,-2.4456,-2.3647,-2.3091,-2.3091,-2.3091,-2.3091,-2.3091,-2.3091,-2.3091,-2.3091,-2.3091,-2.3091,-2.3091,-2.3091,-2.3091,-2.3091,-2.3091,-2.3013,-2.2803,-2.253,-2.2309,-2.2097,-2.183,-2.1696,-3.6492,0.0,0.0,0.0,0.0,0.0,0.0,0.0,0.0,0.0,0.0,0.0,0.0,0.0,0.0,0.0,0.0,0.0,0.0,0.0,0.0,0.0,0.0,0.0,0.0,0.0,0.0,0.0,-3.0986,-3.0986,-3.0986,-3.0986,-3.0986,-3.0986,-3.0986,-3.0986,-3.0986,-3.0986,-3.0986,-3.0986,-3.0986,-3.0986,-3.0986,-3.0986,-3.0911,-3.0773,-3.0736,-3.0647,-3.0558,-3.0444,-3.0292,-3.019,-3.0049,-2.9934,-2.9792,-2.9792,-2.9792,-2.9792,-2.9792,-2.9792,-2.9792,-2.9792,-2.9792,-2.9792,-2.9792,-2.9378,-2.8791,-2.8581,-2.8011,-2.7476,-2.7476,-2.7689,-2.781,-2.7557,-2.7689,-2.7597,-2.673,-2.6565,-2.6359,-2.5694,-2.4967,-2.4262,-2.3667,-2.3667,-2.3701,-2.3527,-2.3474,-2.3474,-2.3474,-2.3266,-2.3091,-2.3091,-2.3091,-2.3091,-2.3091,-2.3091,-2.3091,-2.3091,-2.3091,-2.3091,-2.3091,-2.3091,-2.3091,-2.3091,-2.3091,-2.2916,-2.253,-2.2441,-2.2309,-2.2097,-2.183,-2.1696,0.0,0.0,0.0,0.0,0.0,0.0,-3.5447,-3.535,0.0,0.0,0.0,0.0,0.0,0.0,0.0,0.0,0.0,0.0,0.0,0.0,0.0,0.0,0.0,0.0,0.0,0.0,0.0,-3.0986,-3.0986,-3.0986,-3.0986,-3.0986,-3.0986,-3.0986,-3.0986,-3.0986,-3.0986,-3.0986,-3.0986,-3.0986,-3.0986,-3.0986,-3.0986,-3.0911,-3.0811,-3.0698,-3.0508,-3.0381,-3.0254,-3.019,-3.0113,-3.0075,-3.0011,-2.9895,-2.9792,-2.9792,-2.9792,-2.9792,-2.9792,-2.9792,-2.9792,-2.9792,-2.9792,-2.9714,-2.9378,-2.891,-2.8331,-2.7597,-2.6976,-2.6483,-2.6133,-2.6535,-2.7028,-2.6648,-2.6853,-2.6864,-2.5986,-2.5777,-2.5621,-2.5052,-2.4476,-2.3937,-2.3547,-2.3416,-2.3276,-2.3135,-2.3091,-2.3091,-2.3091,-2.3091,-2.3091,-2.3091,-2.3091,-2.3091,-2.3091,-2.3091,-2.3091,-2.3091,-2.3091,-2.3091,-2.3091,-2.3091,-2.3091,-2.3091,-2.3091,-2.2872,-2.2397,-2.2397,-2.222,-2.1919,-2.1776,-2.1696,0.0,0.0,0.0,0.0,0.0,0.0,-3.481,-3.4776,-3.4495,0.0,0.0,0.0,0.0,0.0,0.0,0.0,0.0,0.0,0.0,0.0,0.0,0.0,0.0,0.0,0.0,-3.0986,-3.0986,-3.0986,-3.0986,-3.0986,-3.0986,-3.0986,-3.0986,-3.0911,-3.0949,-3.0949,-3.0911,-3.0949,-3.0986,-3.0986,-3.0986,-3.0986,-3.0986,-3.0811,-3.0698,-3.066,-3.0267,-3.0075,-3.0049,-2.9869,-2.9895,-3.0049,-2.9869,-2.9792,-2.9792,-2.9675,-2.9663,-2.9624,-2.9546,-2.9507,-2.9507,-2.9507,-2.9507,-2.9378,-2.8581,-2.8303,-2.7839,-2.6152,-2.5663,-2.5463,-2.47,-2.5642,-2.6618,-2.583,-2.6246,-2.6618,-2.583,-2.5621,-2.5337,-2.4368,-2.398,-2.3711,-2.3503,-2.3276,-2.3091,-2.3091,-2.3091,-2.3091,-2.3091,-2.3091,-2.3091,-2.3091,-2.3091,-2.3091,-2.3091,-2.3091,-2.3091,-2.3091,-2.3091,-2.3091,-2.3091,-2.3091,-2.3091,-2.3091,-2.3047,-2.2794,-2.2353,-2.2353,-2.2087,-2.1696,-2.1696,-2.1696,0.0,0.0,0.0,0.0,0.0,0.0,-3.4341,-3.3988,-3.361,0.0,0.0,0.0,0.0,0.0,0.0,0.0,0.0,0.0,0.0,0.0,0.0,0.0,0.0,0.0,0.0,-3.0986,-3.0986,-3.0986,-3.0986,-3.0986,-3.0986,-3.0986,-3.0748,-3.019,-3.071,-3.0748,-3.019,-3.071,-3.0986,-3.0986,-3.0986,-3.0986,-3.0986,-3.0811,-3.0609,-3.0444,-3.019,-3.0011,-2.9869,-2.983,-2.983,-2.9869,-2.983,-2.9792,-2.9702,-2.9,-2.8752,-2.8673,-2.7891,-2.7649,-2.7649,-2.7649,-2.7649,-2.7597,-2.7435,-2.6894,-2.611,-2.5062,-2.4733,-2.47,-2.454,-2.4743,-2.4946,-2.4786,-2.4861,-2.4946,-2.4786,-2.4615,-2.4401,-2.397,-2.3841,-2.3667,-2.3232,-2.3135,-2.3091,-2.3091,-2.3091,-2.3091,-2.3091,-2.3091,-2.3091,-2.3091,-2.3091,-2.3091,-2.3091,-2.3091,-2.3091,-2.3091,-2.3091,-2.3091,-2.3091,-2.3091,-2.3091,-2.3091,-2.274,-2.2397,-2.2141,-2.1954,-2.1776,-2.1696,-2.1696,-2.1696,0.0,0.0,0.0,-3.4167,0.0,0.0,0.0,-3.3101,-3.2676,0.0,0.0,0.0,0.0,0.0,0.0,0.0,0.0,0.0,0.0,0.0,0.0,0.0,0.0,0.0,0.0,-3.0986,-3.0986,-3.0986,-3.0986,-3.0986,-3.0986,-3.0986,-3.071,-3.0037,-3.0317,-3.019,-2.9561,-3.019,-3.0508,-3.052,-3.0823,-3.0823,-3.0508,-3.0279,-2.9832,-2.9225,-2.9055,-2.874,-2.8462,-2.8462,-2.8462,-2.8502,-2.8961,-2.917,-2.904,-2.8131,-2.7799,-2.7718,-2.7273,-2.711,-2.711,-2.711,-2.711,-2.7028,-2.6565,-2.583,-2.5062,-2.4615,-2.4497,-2.4497,-2.4497,-2.4497,-2.4497,-2.4497,-2.4497,-2.4454,-2.4378,-2.4282,-2.4067,-2.3711,-2.3667,-2.3537,-2.3144,-2.3091,-2.3091,-2.3091,-2.3091,-2.3091,-2.3091,-2.3091,-2.3091,-2.3091,-2.3091,-2.3091,-2.3091,-2.3091,-2.3091,-2.3091,-2.3091,-2.3091,-2.3091,-2.3091,-2.3047,-2.2969,-2.2485,-2.2185,-2.2097,-2.183,-2.1696,-2.1696,-2.1696,-2.1696,0.0,0.0,0.0,0.0,0.0,-3.281,0.0,0.0,0.0,0.0,0.0,0.0,0.0,0.0,0.0,0.0,0.0,0.0,0.0,0.0,0.0,0.0,0.0,0.0,0.0,-3.0986,-3.0986,-3.0986,-3.0986,-3.0986,-3.0986,-3.0986,-3.0634,-2.9845,-2.9922,-2.9716,-2.9121,-2.9716,-3.0075,-3.019,-3.0621,-3.0508,-2.9999,-2.9588,-2.8939,-2.8084,-2.7787,-2.7435,-2.711,-2.711,-2.711,-2.7191,-2.7919,-2.8211,-2.8131,-2.7191,-2.6853,-2.6823,-2.6659,-2.6577,-2.6577,-2.6577,-2.6577,-2.6453,-2.5746,-2.5062,-2.4497,-2.4497,-2.4497,-2.4497,-2.4497,-2.4497,-2.4497,-2.4497,-2.4454,-2.4411,-2.4249,-2.412,-2.3937,-2.359,-2.346,-2.3363,-2.3144,-2.3091,-2.3091,-2.3091,-2.3091,-2.3091,-2.3091,-2.3091,-2.3091,-2.3091,-2.3091,-2.3091,-2.3091,-2.3091,-2.3091,-2.3091,-2.3091,-2.3091,-2.3091,-2.3047,-2.2925,-2.2671,-2.2274,-2.2052,-2.2008,-2.183,-2.1696,-2.1696,-2.1696,-2.1696,0.0,0.0,0.0,0.0,-3.329,0.0,0.0,0.0,0.0,0.0,0.0,0.0,0.0,0.0,0.0,0.0,0.0,0.0,0.0,0.0,0.0,0.0,0.0,0.0,0.0,0.0,-3.0986,-3.0986,-3.0986,-3.0986,-3.0986,-3.0986,-3.0432,-2.9238,-2.9716,-2.9716,-2.9121,-2.9716,-3.0317,-3.0874,-3.0355,-3.0075,-2.996,-2.8821,-2.8215,-2.8056,-2.7464,-2.7151,-2.711,-2.711,-2.711,-2.711,-2.7232,-2.7273,-2.7151,-2.6276,-2.5944,-2.583,-2.5062,-2.4786,-2.4786,-2.4786,-2.4786,-2.4786,-2.4658,-2.4583,-2.4497,-2.4497,-2.4497,-2.4497,-2.4497,-2.4497,-2.4497,-2.4497,-2.4368,-2.4249,-2.4206,-2.3851,-2.3547,-2.3503,-2.3319,-2.3144,-2.3101,-2.3091,-2.3091,-2.3091,-2.3091,-2.3091,-2.3091,-2.3091,-2.3091,-2.3091,-2.3091,-2.3091,-2.3091,-2.3091,-2.3091,-2.3091,-2.3091,-2.3091,-2.3091,-2.2925,-2.2627,-2.2185,-2.2141,-2.1963,-2.1741,-2.1687,-2.1696,-2.1696,-2.1696,-2.1696,0.0,0.0,0.0,0.0,0.0,0.0,-3.2128,0.0,-3.1421,0.0,0.0,0.0,0.0,0.0,0.0,0.0,0.0,0.0,0.0,0.0,0.0,0.0,0.0,0.0,0.0,0.0,0.0,0.0,0.0,-3.0986,-3.0986,-3.0986,-3.0596,-2.9639,-2.9523,-2.9172,-2.8593,-2.9172,-2.9445,-2.938,-2.9806,-2.9471,-2.8518,-2.7988,-2.725,-2.64,-2.6133,-2.5841,-2.56,-2.56,-2.56,-2.56,-2.56,-2.5924,-2.6235,-2.539,-2.5062,-2.4978,-2.4615,-2.4497,-2.4497,-2.4497,-2.4497,-2.4497,-2.4497,-2.4497,-2.4497,-2.4497,-2.4497,-2.4497,-2.4497,-2.4497,-2.4454,-2.4325,-2.4249,-2.412,-2.3851,-2.3634,-2.345,-2.3319,-2.3188,-2.3091,-2.3091,-2.3091,-2.3091,-2.3091,-2.3091,-2.3091,-2.3091,-2.3091,-2.3091,-2.3091,-2.3091,-2.3091,-2.3091,-2.3091,-2.3091,-2.3091,-2.3091,-2.3047,-2.2925,-2.2706,-2.2407,-2.2097,-2.1963,-2.183,-2.1696,-2.1696,-2.1696,-2.1696,-2.1696,-2.1696,-3.329,0.0,0.0,0.0,0.0,0.0,0.0,0.0,0.0,0.0,0.0,0.0,0.0,0.0,0.0,0.0,0.0,0.0,0.0,0.0,0.0,0.0,0.0,0.0,0.0,0.0,0.0,-3.0986,-3.0986,-3.0986,-3.0986,-3.0986,-3.0621,-2.9793,-2.9316,-2.8819,-2.8219,-2.8621,-2.8712,-2.8447,-2.9184,-2.8806,-2.7476,-2.7203,-2.6381,-2.52,-2.5073,-2.4828,-2.4497,-2.4497,-2.4497,-2.4497,-2.4497,-2.4903,-2.5379,-2.4743,-2.4497,-2.4497,-2.4497,-2.4497,-2.4497,-2.4497,-2.4497,-2.4497,-2.4497,-2.4497,-2.4497,-2.4497,-2.4497,-2.4497,-2.4497,-2.4497,-2.4454,-2.4249,-2.4153,-2.398,-2.359,-2.346,-2.3319,-2.3144,-2.3091,-2.3091,-2.3091,-2.3091,-2.3091,-2.3091,-2.3091,-2.3091,-2.3091,-2.3091,-2.3091,-2.3091,-2.3091,-2.3091,-2.3091,-2.3091,-2.3091,-2.3091,-2.3047,-2.2925,-2.2706,-2.2441,-2.222,-2.2008,-2.1785,-2.1696,-2.1696,-2.1696,-2.1696,-2.1696,-2.1696,-2.1696,0.0,0.0,0.0,-3.2704,0.0,0.0,0.0,0.0,-3.1482,0.0,0.0,0.0,0.0,0.0,0.0,0.0,0.0,0.0,0.0,0.0,0.0,0.0,0.0,0.0,0.0,0.0,0.0,-3.0986,-3.0986,-3.0986,-3.0986,-3.0986,-3.0432,-2.916,-2.9121,-2.8819,-2.8219,-2.8219,-2.8514,-2.9042,-2.8514,-2.7995,-2.7464,-2.6404,-2.5675,-2.5158,-2.47,-2.4497,-2.4497,-2.4497,-2.4497,-2.4497,-2.4497,-2.4497,-2.454,-2.4497,-2.4497,-2.4497,-2.4497,-2.4497,-2.4497,-2.4497,-2.4497,-2.4497,-2.4497,-2.4497,-2.4497,-2.4497,-2.4497,-2.4497,-2.4497,-2.4497,-2.4454,-2.4249,-2.398,-2.3754,-2.3547,-2.3319,-2.3091,-2.3091,-2.3091,-2.3091,-2.3091,-2.3091,-2.3091,-2.3091,-2.3091,-2.3091,-2.3091,-2.3091,-2.3091,-2.3091,-2.3091,-2.3091,-2.3091,-2.3091,-2.3091,-2.3091,-2.2925,-2.2706,-2.2441,-2.223,-2.1963,-2.1741,-2.1696,-2.1696,-2.1696,-2.1696,-2.1696,-2.1696,-2.1696,-2.1696,0.0,0.0,-3.298,-3.2431,0.0,0.0,0.0,0.0,0.0,0.0,0.0,0.0,0.0,0.0,0.0,0.0,0.0,0.0,0.0,0.0,0.0,0.0,0.0,0.0,0.0,0.0,0.0,-3.0986,-3.0986,-3.0986,0.0,-3.0986,-3.0596,-2.9716,-2.9328,-2.8819,-2.8219,-2.8219,-2.8099,-2.7846,-2.7782,-2.7284,-2.6415,-2.5748,-2.5168,-2.4743,-2.4583,-2.4497,-2.4497,-2.4497,-2.4497,-2.4497,-2.4497,-2.4497,-2.4497,-2.4497,-2.4497,-2.4497,-2.4497,-2.4497,-2.4497,-2.4497,-2.4497,-2.4497,-2.4497,-2.4497,-2.4497,-2.4497,-2.4497,-2.4497,-2.4497,-2.4411,-2.4249,-2.398,-2.3754,-2.3537,-2.3276,-2.3144,-2.3091,-2.3091,-2.3091,-2.3091,-2.3091,-2.3091,-2.3091,-2.3091,-2.3091,-2.3091,-2.3091,-2.3091,-2.3091,-2.3091,-2.3091,-2.3091,-2.3091,-2.3091,-2.3057,-2.2925,-2.2838,-2.2627,-2.223,-2.2141,-2.1963,-2.1696,-2.1696,-2.1696,-2.1696,-2.1696,-2.1696,-2.1696,-2.1696,-2.1696,-3.329,-3.31,0.0,-3.2417,-3.2019,0.0,-3.1272,0.0,0.0,0.0,0.0,0.0,0.0,0.0,0.0,0.0,0.0,0.0,0.0,-3.0986,0.0,0.0,0.0,0.0,0.0,0.0,-3.0986,-3.0986,-3.0986,-3.0986,0.0,0.0,-3.0355,-2.9716,-2.9094,-2.8474,-2.7857,-2.7857,-2.7626,-2.719,-2.7174,-2.6723,-2.5895,-2.5422,-2.4946,-2.4497,-2.4497,-2.4497,-2.4497,-2.4497,-2.4497,-2.4497,-2.4497,-2.4497,-2.4497,-2.4497,-2.4497,-2.4497,-2.4497,-2.4497,-2.4497,-2.4497,-2.4497,-2.4497,-2.4497,-2.4497,-2.4497,-2.4497,-2.4497,-2.4497,-2.4497,-2.4325,-2.411,-2.3841,-2.3667,-2.3416,-2.3144,-2.3091,-2.3091,-2.3091,-2.3091,-2.3091,-2.3091,-2.3091,-2.3091,-2.3091,-2.3091,-2.3091,-2.3091,-2.3091,-2.3091,-2.3091,-2.3091,-2.3091,-2.3091,-2.3091,-2.3013,-2.2794,-2.2706,-2.2495,-2.2097,-2.2008,-2.1939,-2.1897,-2.176,-2.176,-2.1897,-2.176,-2.1696,-2.1696,-2.1696,-2.1696]},{"header":{"parameterUnit":"m.s-1","parameterCategory":1,"la1":30.6,"la2":29.2853,"lo1":-89.7004,"lo2":-87.6739,"dy":0.0162,"dx":0.0183,"nx":112,"ny":82,"refTime":"2024-02-20T06:00:00:Z","depth":0,"parameterNumber":3,"parameterNumberName":"V-component_of_WINDS"},"data":[0.0,0.0,0.0,0.0,0.0,0.0,0.0,0.0,0.0,0.0,0.0,0.0,0.0,0.0,0.0,0.0,0.0,0.0,0.0,0.0,0.0,0.0,0.0,0.0,0.0,0.0,0.0,0.0,0.0,0.0,0.0,0.0,0.0,0.0,0.0,0.0,0.0,0.0,0.0,0.0,0.0,0.0,0.0,0.0,0.0,0.0,0.0,0.0,0.0,0.0,0.0,0.0,0.0,0.0,0.0,0.0,0.0,0.0,0.0,0.0,0.0,0.0,0.0,0.0,0.0,0.0,0.0,0.0,0.0,0.0,0.0,0.0,0.0,0.0,0.0,0.0,0.0,0.0,0.0,0.0,0.0,0.0,0.0,0.0,0.0,0.0,0.0,0.0,0.0,0.0,0.0,0.148,0.1391,0.1391,0.1391,0.1391,0.1391,0.1391,0.0,0.0,0.0,0.0,0.0,0.0,0.0,0.0,0.0,0.0,0.0,0.0,0.0,0.0,0.0,0.0,0.0,0.0,0.0,0.0,0.0,0.0,0.0,0.0,0.0,0.0,0.0,0.0,0.0,0.0,0.0,0.0,0.0,0.0,0.0,0.0,0.0,0.0,0.0,0.0,0.0,0.0,0.0,0.0,0.0,0.0,0.0,0.0,0.0,0.0,0.0,0.0,0.0,0.0,0.0,0.0,0.0,0.0,0.0,0.0,0.0,0.0,0.0,0.0,0.0,0.0,0.0,0.0,0.0,0.0,0.0,0.0,0.0,0.0,0.0,0.0,0.0,0.0,0.0,0.0,0.0,0.0,0.0,0.0,0.0,0.0,0.0,0.0,0.0,0.0,0.0,0.0,0.0,0.0,0.0,0.0,0.0,0.0,0.0,0.0,0.0,0.0,0.0,0.0,0.1345,0.1391,0.1391,0.1391,0.1391,0.1391,0.1391,0.1391,0.0,0.0,0.0,0.0,0.0,0.0,0.0,0.0,0.0,0.0,0.0,0.0,0.0,0.0,0.0,0.0,0.0,0.0,0.0,0.0,0.0,0.0,0.0,0.0,0.0,0.0,0.0,0.0,0.0,0.0,0.0,0.0,0.0,0.0,0.0,0.0,0.0,0.0,0.0,0.0,0.0,0.0,0.0,0.0,0.0,0.0,0.0,0.0,0.0,0.0,0.0,0.0,0.0,0.0,0.0,0.0,0.0,0.0,0.0,0.0,0.0,0.0,0.0,0.0,0.0,0.0,0.0,0.0,0.0,0.0,0.0,0.0,0.0,0.0,0.0,0.0,0.0,0.0,0.0,0.0,0.0,0.0,0.0,0.0,0.0,0.0,0.0,0.0,0.0,0.0,0.0,0.0,0.0,0.0,0.0,0.0,0.0,0.0,0.0,0.0,0.0,0.0,0.0,0.2596,0.1345,0.157,0.148,0.1391,0.1391,0.1391,0.1391,0.1391,0.13,0.0,0.0,0.0,0.0,0.0,0.0,0.0,0.0,0.0,0.0,0.0,0.0,0.0,0.0,0.0,0.0,0.0,0.0,0.0,0.0,0.0,0.0,0.0,0.0,0.0,0.0,0.0,0.0,0.0,0.0,0.0,0.0,0.0,0.0,0.0,0.0,0.0,0.0,0.0,0.0,0.0,0.0,0.0,0.0,0.0,0.0,0.0,0.0,0.0,0.0,0.0,0.0,0.0,0.0,0.0,0.0,0.0,0.0,0.0,0.0,0.0,0.0,0.0,0.0,0.0,0.0,0.0,0.0,0.0,0.0,0.0,0.0,0.0,0.0,0.0,0.0,0.0,0.0,0.0,0.0,0.0,0.0,0.0,0.0,0.0,0.0,0.0,0.0,0.0,0.0,0.0,0.0,0.0,0.0,0.0,0.0,0.0,0.0,0.0,0.0,0.0,0.0,0.3266,0.2239,0.2241,0.1838,0.157,0.157,0.157,0.157,0.148,0.148,0.0,0.0,0.0,0.0,0.0,0.0,0.0,0.0,0.0,0.0,0.0,0.0,0.0,0.0,0.0,0.0,0.0,0.0,0.0,0.0,0.0,0.0,0.0,0.0,0.0,0.0,0.0,0.0,0.0,0.0,0.0,0.0,0.0,0.0,0.0,0.0,0.0,0.0,0.0,0.0,0.0,0.0,0.0,0.0,0.0,0.0,0.0,0.0,0.0,0.0,0.0,0.0,0.0,0.0,0.0,0.0,0.0,0.0,0.0,0.0,0.0,0.0,0.0,0.0,0.0,0.0,0.0,0.0,0.0,0.0,0.0,0.0,0.0,0.0,0.0,0.0,0.0,0.0,0.0,0.0,0.0,0.0,0.0,0.0,0.0,0.0,0.0,0.0,0.0,0.0,0.0,0.0,0.0,0.0,0.0,0.0,0.0,0.0,0.0,0.0,0.0,0.0,0.469,0.4421,0.3578,0.2689,0.2154,0.2154,0.2154,0.2019,0.1794,0.1749,0.0,0.0,0.0,0.0,0.0,0.0,0.0,0.0,0.0,0.0,0.0,0.0,0.0,0.0,0.0,0.0,0.0,0.0,0.0,0.0,0.0,0.0,0.0,0.0,0.0,0.0,0.0,0.0,0.0,0.0,0.0,0.0,0.0,0.0,0.0,0.0,0.0,0.0,0.0,0.0,0.0,0.0,0.0,0.0,0.0,0.0,0.0,0.0,0.0,0.0,0.0,0.0,0.0,0.0,0.0,0.0,0.0,0.0,0.0,0.0,0.0,0.0,0.0,0.0,0.0,0.0,0.0,0.0,0.0,0.0,0.0,0.0,0.0,0.0,0.0,0.0,0.0,0.0,0.0,0.0,0.0,0.0,0.0,0.0,0.0,0.0,0.0,0.0,0.0,0.0,0.0,0.0,0.0,0.0,0.0,0.0,0.0,0.0,0.0,0.0,0.0,0.0,0.5312,0.4688,0.0,0.3358,0.2823,0.2243,0.2199,0.2154,0.2064,0.0,0.0,0.0,0.0,0.0,0.0,0.0,0.0,0.0,0.0,0.0,0.0,0.0,0.0,0.0,0.0,0.0,0.0,0.0,0.0,0.0,0.0,0.0,0.0,0.0,0.0,0.0,0.0,0.0,0.0,0.0,0.0,0.0,0.0,0.0,0.0,0.0,0.0,0.0,0.0,0.0,0.0,0.0,0.0,0.0,0.0,0.0,0.0,0.0,0.0,0.0,0.0,0.0,0.0,0.0,0.0,0.0,0.0,0.0,0.0,0.0,0.0,0.0,0.0,0.0,0.0,0.0,0.0,0.0,0.0,0.0,0.0,0.0,0.0,0.0,0.0,0.0,0.0,0.0,0.0,0.0,0.0,0.0,0.0,0.0,0.0,0.0,0.0,0.0,0.0,0.0,0.0,0.0,0.0,0.0,0.0,0.0,0.0,0.0,0.0,0.0,0.0,0.6959,0.6201,0.5489,0.0,0.4514,0.4026,0.336,0.3047,0.2825,0.2735,0.0,0.0,0.0,0.0,0.0,0.0,0.0,0.0,0.0,0.0,0.0,0.0,0.0,0.0,0.0,0.0,0.0,0.0,0.0,0.0,0.0,0.0,0.0,0.0,0.0,0.0,0.0,0.0,0.0,0.0,0.0,0.0,0.0,0.0,0.0,0.0,0.0,0.0,0.0,0.0,0.0,0.0,0.0,0.0,0.0,0.0,0.0,0.0,0.0,0.0,0.0,0.0,0.0,0.0,0.0,0.0,0.0,0.0,0.0,0.0,0.0,0.0,0.0,0.0,0.0,0.0,0.0,0.0,0.0,0.0,0.0,0.0,0.0,0.0,0.0,0.0,0.0,0.0,0.0,0.0,0.0,0.0,0.0,0.0,0.0,0.0,0.0,0.0,0.0,0.0,0.0,0.0,0.0,0.0,0.0,0.0,0.0,0.0,0.0,0.0,0.0,0.0,0.8157,0.758,0.7095,0.7095,0.6251,0.5719,0.5719,0.4877,0.4208,0.0,0.0,0.0,0.0,0.0,0.0,0.0,0.0,0.0,0.0,0.0,0.0,0.0,0.0,0.0,0.0,0.0,0.0,0.0,0.0,0.0,0.0,0.0,0.0,0.0,0.0,0.0,0.0,0.0,0.0,0.0,0.0,0.0,0.0,0.0,0.0,0.0,0.0,0.0,0.0,0.0,0.0,0.0,0.0,0.0,0.0,0.0,0.0,0.0,0.0,0.0,0.0,0.0,0.0,0.0,0.0,0.0,0.0,0.0,0.0,0.0,0.0,0.0,0.0,0.0,0.0,0.0,0.0,0.0,0.0,0.0,0.0,0.0,0.0,0.0,0.0,0.0,0.0,0.0,0.0,0.0,0.0,0.0,0.0,0.0,0.0,0.0,0.0,0.0,0.0,0.0,0.0,0.0,0.0,0.0,0.0,0.0,0.0,0.0,0.0,0.0,0.0,0.0,0.8201,0.816,0.794,0.7445,0.7136,0.6779,0.6242,0.5933,0.5401,0.4469,0.0,0.0,0.0,0.0,0.0,0.0,0.0,0.0,0.0,0.0,0.0,0.0,0.0,0.0,0.0,0.0,0.0,0.0,0.0,0.0,0.0,0.0,0.0,0.0,0.0,0.0,0.0,0.0,0.0,0.0,0.0,0.0,0.0,0.0,0.0,0.0,0.0,0.0,0.0,0.0,0.0,0.0,0.0,0.0,0.0,0.0,0.0,0.0,0.0,0.0,0.0,0.0,0.0,0.0,0.0,0.0,0.0,0.0,0.0,0.0,0.0,0.0,0.0,0.0,0.0,0.0,0.0,0.0,0.0,0.0,0.0,0.0,0.0,0.0,0.0,0.0,0.0,0.0,0.0,0.0,0.0,0.0,0.0,0.0,0.0,0.0,0.0,0.0,0.0,0.0,0.0,0.0,0.0,0.0,0.0,0.0,0.0,0.0,0.0,0.0,0.0,0.0,0.8596,0.878,0.8692,0.8285,0.8241,0.8017,0.7614,0.7166,0.6637,0.593,0.0,0.0,0.0,0.0,0.0,0.0,0.0,0.0,0.0,0.0,0.0,0.0,0.0,0.0,0.0,0.0,0.0,0.0,0.0,0.0,0.0,0.0,0.0,0.0,0.0,0.0,0.0,0.0,0.0,0.0,0.0,0.0,0.0,0.0,0.0,0.0,0.0,0.0,0.0,0.0,0.0,0.0,0.0,0.0,0.0,0.0,0.0,0.0,0.0,0.0,0.0,0.0,0.0,0.0,0.0,0.0,0.0,0.0,0.0,0.0,0.0,0.0,0.0,0.0,0.0,0.0,0.0,0.0,0.0,0.0,0.0,0.0,0.0,0.0,0.0,0.0,0.0,0.0,0.0,0.0,0.0,0.0,0.0,0.0,0.0,0.0,0.0,0.0,0.0,0.0,0.0,0.0,0.0,0.0,0.0,0.0,0.0,0.0,0.0,0.0,0.0,0.0,0.9257,0.9305,0.9305,0.9345,0.9345,0.9349,0.9345,0.8544,0.7965,0.7834,0.0,0.0,0.0,0.0,0.0,0.0,0.0,0.0,0.0,0.0,0.0,0.0,0.0,0.0,0.0,0.0,0.0,0.0,0.0,0.0,0.0,0.0,0.0,0.0,0.0,0.0,0.0,0.0,0.0,0.0,0.0,0.0,0.0,0.0,0.0,0.0,0.0,0.0,0.0,0.0,0.0,0.0,0.0,0.0,0.0,0.0,0.0,0.0,0.0,0.0,0.0,0.0,0.0,0.0,0.0,0.0,0.0,0.0,0.0,0.0,0.9995,0.0,0.0,0.0,0.0,0.0,0.0,0.0,0.0,0.0,0.0,0.0,0.0,0.0,0.0,0.0,0.0,0.0,0.0,0.0,0.0,0.0,0.0,0.0,0.0,0.0,0.0,0.0,0.0,0.0,0.0,0.0,0.0,0.0,0.0,0.0,0.0,0.0,0.0,0.0,0.0,0.0,0.9301,0.9305,0.9345,0.9519,0.9515,0.9602,0.982,0.9641,0.9109,0.8181,0.7786,0.0,0.0,0.0,0.0,0.0,0.0,0.0,0.0,0.0,0.0,0.0,0.0,0.0,0.0,0.0,0.0,0.0,0.0,0.0,0.0,0.0,0.0,0.0,0.0,0.0,0.0,0.0,0.0,0.0,0.0,0.0,0.0,0.0,0.0,0.0,0.0,0.0,0.0,0.0,0.0,0.0,0.0,0.0,0.0,0.0,0.0,0.0,0.0,0.0,0.0,0.0,0.0,0.0,0.0,0.0,0.0,0.0,0.0,0.0,0.0,1.0702,0.0,0.0,0.0,0.0,0.0,0.0,0.0,0.0,0.0,0.0,0.0,0.0,0.0,0.0,0.0,0.0,0.0,0.0,0.0,0.0,0.0,0.0,0.0,0.0,0.0,0.0,0.0,0.0,0.0,0.0,0.0,0.0,0.0,0.0,0.0,0.0,0.0,0.0,0.0,0.0,0.9607,0.965,0.9694,0.9777,0.9777,0.9864,0.9994,0.9994,0.9728,0.9109,0.8711,0.0,0.0,0.0,0.0,0.0,0.0,0.0,0.0,0.0,0.0,0.0,0.0,0.0,0.0,0.0,0.0,0.0,0.0,0.0,0.0,0.0,0.0,0.0,0.0,0.0,0.0,0.0,0.0,0.0,0.0,0.0,0.0,0.0,0.0,0.0,0.0,0.0,0.0,0.0,0.0,0.0,0.0,0.0,0.0,0.0,0.0,0.0,0.0,0.0,0.0,0.0,0.0,0.0,1.2705,1.2705,1.2705,1.2705,1.2705,1.2705,1.2705,1.2272,1.1542,0.0,0.0,0.0,0.0,0.0,0.0,0.0,0.0,0.0,0.0,0.0,0.0,0.0,0.0,0.0,0.0,0.0,0.0,0.0,0.0,0.0,0.0,0.0,0.0,0.0,1.5257,1.4699,0.0,0.0,0.0,0.0,0.0,0.0,0.0,0.0,0.0,0.0,0.0,0.0,1.0164,1.0081,0.9994,0.9994,0.9994,0.9994,0.9994,0.9994,0.9994,0.9994,0.9419,0.9113,0.0,0.0,0.0,0.0,0.0,0.0,0.0,0.0,0.0,0.0,0.0,0.0,0.0,0.0,0.0,0.0,0.0,0.0,0.0,0.0,0.0,0.0,0.0,0.0,0.0,0.0,0.0,0.0,0.0,0.0,0.0,0.0,1.4566,1.4566,0.0,0.0,0.0,0.0,0.0,0.0,0.0,0.0,0.0,0.0,0.0,0.0,0.0,1.2705,1.2705,1.2705,1.2705,1.2705,1.2705,1.2705,1.2705,1.2705,1.2705,1.2705,1.2705,0.0,1.2528,1.2528,0.0,0.0,0.0,0.0,0.0,0.0,0.0,0.0,0.0,0.0,0.0,0.0,0.0,0.0,0.0,0.0,0.0,0.0,0.0,0.0,0.0,0.0,1.4873,1.509,1.5257,1.5298,0.0,1.4349,1.3837,1.3837,1.3063,0.0,0.0,0.0,0.0,0.0,0.0,0.0,1.1025,1.0467,0.9994,0.9994,0.9994,0.9994,0.9994,0.9994,0.9994,0.9994,0.9907,0.9864,0.9864,0.9864,0.0,0.0,0.0,0.0,0.0,0.0,0.0,0.0,0.0,0.0,0.0,0.0,0.0,0.0,0.0,0.0,0.0,0.0,0.0,0.0,0.0,0.0,0.0,0.0,0.0,0.0,0.0,0.0,0.0,1.4943,1.4859,1.5235,1.4943,1.4692,0.0,0.0,0.0,0.0,0.0,0.0,0.0,0.0,0.0,1.4237,1.3977,1.3639,1.3264,1.3264,1.3088,1.2705,1.2833,1.2918,1.2924,1.3045,1.3094,1.3094,1.3094,1.3094,1.3088,1.279,1.279,1.2918,0.0,0.0,0.0,0.0,1.2308,1.1918,1.2211,1.2565,0.0,1.2607,0.0,0.0,0.0,0.0,0.0,0.0,0.0,0.0,0.0,0.0,0.0,1.5257,1.5347,1.5389,1.5389,1.5082,1.4831,0.0,1.4097,1.3493,1.3493,0.0,0.0,0.0,0.0,0.0,1.204,1.174,1.1316,1.0809,1.0727,1.0511,1.0038,0.9994,0.9994,0.9994,0.9994,0.9994,0.9994,0.9994,0.9994,0.0,0.0,0.0,0.0,0.0,0.0,0.0,0.0,0.0,0.0,0.0,0.0,0.0,0.0,0.0,0.0,0.0,0.0,0.0,0.0,0.0,0.0,0.0,0.0,0.0,0.0,0.0,0.0,1.585,1.5684,1.6105,1.5775,1.5519,0.0,0.0,0.0,0.0,0.0,0.0,1.5311,1.5137,1.5095,1.5269,1.5137,1.4803,1.4307,1.4307,1.4048,1.3529,1.3747,1.3837,1.3837,1.4006,1.3928,1.3724,1.3724,1.3597,1.3355,1.3009,1.3009,1.3179,1.3179,1.3264,1.3398,1.3483,1.344,1.344,1.3695,1.3737,1.3737,1.3997,0.0,1.4166,1.4166,0.0,0.0,0.0,0.0,1.4866,1.5041,1.5131,1.5215,1.5347,1.5389,1.5389,1.5389,1.5389,1.5389,0.0,1.4873,1.444,1.444,0.0,0.0,0.0,0.0,1.2802,1.3021,1.2845,1.2462,1.1789,1.1746,1.1488,1.089,1.0847,1.0847,1.0847,1.0804,1.0804,1.0847,1.0761,1.0717,1.0847,0.0,0.0,0.0,0.0,0.0,0.0,0.0,0.0,0.0,0.0,0.0,0.0,0.0,0.0,0.0,0.0,0.0,0.0,0.0,0.0,0.0,0.0,0.0,0.0,0.0,0.0,0.0,0.0,0.0,1.7351,1.7635,0.0,0.0,0.0,0.0,1.6911,1.687,1.687,1.687,1.6265,1.6224,1.687,1.6273,1.5921,1.588,1.588,1.588,1.5838,1.5838,1.5838,1.5838,1.588,1.5433,1.4622,1.4622,1.4174,1.3398,1.3355,1.3355,1.3398,1.3398,1.3392,1.3434,1.361,1.3568,1.3483,1.3913,1.3913,1.3737,1.3997,1.4243,1.4398,1.4398,1.4524,0.0,0.0,1.4866,1.5082,1.509,1.5257,1.5389,1.5389,1.5389,1.5389,1.5389,1.5389,1.5389,0.0,1.5347,1.534,1.534,0.0,1.4307,1.5131,1.3789,1.3021,1.3922,1.3233,1.276,1.2887,1.293,1.2972,1.3099,1.3142,1.3142,1.3142,1.293,1.293,1.3142,1.276,1.276,1.3142,1.2802,0.0,0.0,0.0,0.0,0.0,0.0,0.0,0.0,0.0,0.0,0.0,0.0,0.0,0.0,0.0,0.0,0.0,0.0,0.0,0.0,0.0,0.0,0.0,0.0,0.0,0.0,0.0,0.0,1.7797,1.7919,0.0,1.7797,1.7919,1.791,1.7668,1.7619,1.7619,1.7619,1.7408,1.7408,1.7619,1.7399,1.7066,1.665,1.665,1.6429,1.6003,1.6175,1.6265,1.6265,1.6396,1.6273,1.5992,1.5992,1.5827,1.5504,1.5504,1.4761,1.361,1.361,1.3695,1.387,1.3913,1.3913,1.387,1.4046,1.4046,1.3955,1.4088,1.4243,1.4433,1.4566,1.4741,1.5117,1.5801,1.6049,1.6263,1.6829,1.7033,1.7074,1.7074,1.6624,1.6221,1.6221,1.579,1.5389,1.5389,1.5389,1.5389,1.5389,1.5131,1.5041,1.534,1.4866,1.4566,1.4908,1.4768,1.442,1.3957,1.4035,1.3902,1.3353,1.3311,1.3311,1.3311,1.3226,1.3226,1.3311,1.3142,1.3142,1.3311,1.3733,1.3733,0.0,0.0,0.0,0.0,0.0,0.0,0.0,0.0,0.0,0.0,0.0,0.0,0.0,0.0,0.0,0.0,0.0,0.0,0.0,0.0,0.0,0.0,0.0,0.0,0.0,0.0,1.8393,1.8241,1.8362,1.8393,1.8241,1.8362,1.8434,1.8434,1.8434,1.8434,1.8434,1.8434,1.8495,1.8635,1.8635,1.8484,1.8185,1.8185,1.7962,1.7515,1.7697,1.7788,1.7788,1.7921,1.7805,1.7548,1.7548,1.7381,1.7098,1.7098,1.6343,1.5099,1.4804,1.465,1.458,1.4866,1.4622,1.4088,1.4088,1.4088,1.4088,1.4088,1.4286,1.4559,1.5019,1.5352,1.5858,1.6862,1.7147,1.7269,1.7836,1.7997,1.7997,1.7997,1.7553,1.7147,1.7147,1.6665,1.6188,1.5906,1.5582,1.5389,1.5389,1.5389,1.5423,1.5506,1.5423,1.5472,1.5639,1.5658,1.5526,1.5103,1.5171,1.5039,1.449,1.4455,1.4455,1.4455,1.4364,1.4364,1.4448,1.4329,1.4329,1.4448,1.4998,1.4956,1.4364,0.0,0.0,0.0,0.0,0.0,0.0,0.0,0.0,0.0,0.0,0.0,0.0,0.0,0.0,0.0,0.0,0.0,0.0,0.0,0.0,0.0,0.0,0.0,1.9301,1.9301,1.9152,1.878,1.9073,1.9152,1.8772,1.9073,1.9311,1.932,1.932,1.9329,1.9338,1.9338,1.9531,1.9893,1.9902,2.0095,2.0512,2.0521,2.0521,2.0521,2.0521,2.0521,2.0521,2.0521,2.0039,1.9221,1.9221,1.8741,1.7964,1.7964,1.7964,1.79,1.7042,1.6196,1.559,1.6394,1.5643,1.4166,1.4173,1.4173,1.4166,1.4215,1.4454,1.4936,1.5794,1.637,1.6903,1.7796,1.8037,1.8037,1.8078,1.8078,1.8078,1.8078,1.8078,1.8037,1.8037,1.8037,1.7755,1.6935,1.6064,1.5465,1.5431,1.5389,1.5465,1.5658,1.5541,0.0,1.6046,1.5865,1.5899,1.6353,1.6394,1.6476,1.6697,1.6689,1.6689,1.6689,1.6525,1.6484,1.6689,1.6335,1.6294,1.6689,1.6517,1.6435,1.6435,0.0,0.0,0.0,0.0,0.0,0.0,0.0,0.0,0.0,0.0,0.0,0.0,0.0,0.0,0.0,0.0,0.0,0.0,0.0,0.0,0.0,0.0,2.0235,1.9042,1.9112,1.9262,1.9152,1.9222,1.9262,1.9152,1.9222,1.943,1.9692,1.976,1.9879,2.0163,2.0182,2.0237,2.0314,2.0356,2.0411,2.0521,2.0521,2.0521,2.0521,2.0521,2.0521,2.0521,2.0521,2.0385,2.0123,2.0123,2.0005,1.9784,1.9784,1.9784,1.963,1.814,1.7418,1.7215,1.7159,1.6664,1.6008,1.6157,1.6116,1.6049,1.6329,1.6486,1.669,1.709,1.7423,1.7836,1.8687,1.8935,1.9094,1.9726,1.9883,1.9883,1.9883,1.952,1.9155,1.9155,1.878,1.8364,1.8123,1.7883,1.7212,1.5665,1.5389,1.5431,1.5465,1.5582,0.0,1.5782,1.6023,1.627,1.6394,1.6525,1.6648,1.6689,1.6689,1.6689,1.6689,1.6648,1.6648,1.6689,1.6574,1.6574,1.6689,1.7286,1.7553,0.0,0.0,0.0,0.0,0.0,0.0,0.0,0.0,0.0,0.0,0.0,0.0,0.0,0.0,0.0,0.0,0.0,0.0,0.0,0.0,0.0,0.0,2.0769,2.0857,1.9893,1.9971,2.0118,2.0118,2.0118,2.0068,1.993,1.994,1.9997,2.0145,2.0131,2.0232,2.0512,2.0521,2.0594,2.0759,2.0769,2.0851,2.0982,2.0982,2.0982,2.0982,2.0982,2.0982,2.0982,2.0982,2.0982,0.0,2.0982,2.0982,2.0982,2.0982,2.0982,0.0,0.0,0.0,0.0,0.0,1.7641,1.7721,1.7588,1.7462,1.7429,1.7755,1.7913,1.8087,1.8566,1.8757,1.8967,1.9839,1.9955,1.9971,2.0489,2.0605,2.0605,2.0605,2.0284,2.004,2.0128,1.9835,1.9502,1.9207,1.9128,0.0,1.7017,1.6378,1.6098,1.6237,1.594,1.5816,1.6072,1.627,1.6435,1.6525,1.6968,1.7245,1.7245,1.7561,0.0,0.0,0.0,1.7796,1.7796,1.7796,0.0,0.0,0.0,1.855,1.855,0.0,0.0,0.0,1.8143,1.8316,0.0,0.0,0.0,0.0,0.0,0.0,0.0,0.0,0.0,0.0,0.0,0.0,0.0,0.0,0.0,0.0,2.1357,2.1395,2.1395,2.1436,2.1428,2.1312,2.1274,2.1212,2.101,2.1009,2.0907,2.0717,2.067,2.0688,2.0649,0.0,0.0,0.0,0.0,2.1355,2.1687,2.1696,2.1696,2.1696,2.1696,2.1696,2.1696,2.1696,2.1696,2.1696,2.1696,2.1696,2.1696,2.1696,2.1696,2.1623,2.0891,2.0146,1.9325,1.8584,1.8783,1.9307,1.8827,0.0,0.0,1.8896,1.9067,1.9324,2.0171,2.0269,2.0298,2.1057,2.1025,2.0752,2.0752,2.0752,2.0752,2.0791,2.0791,2.0869,2.1094,2.1133,2.0996,2.0409,2.0282,2.0036,1.9216,1.8014,1.7245,1.7513,1.6706,1.6263,1.6886,1.6837,1.6796,1.6968,0.0,0.0,1.8158,1.8868,1.9295,1.9295,1.9295,1.9295,1.9295,1.9295,1.9295,1.9295,1.9383,1.9462,1.9462,1.9571,1.9698,1.9874,1.958,1.9492,0.0,0.0,0.0,0.0,0.0,0.0,0.0,0.0,0.0,0.0,0.0,0.0,0.0,0.0,0.0,2.1911,2.2317,2.2654,2.2654,2.2988,2.284,2.1865,2.1747,2.1879,2.22,2.225,2.2142,2.1901,2.1887,2.1749,2.1484,2.1458,2.1495,2.1568,2.1568,2.1604,2.1696,2.1696,2.1696,2.1696,0.0,0.0,2.1696,2.1696,2.1696,2.1696,2.1696,2.1696,2.1696,2.1696,2.1696,2.1678,2.1522,2.116,2.073,2.0773,2.0702,2.0596,2.0829,2.0778,2.0713,2.114,2.1131,2.108,2.1441,2.1518,0.0,2.1717,2.1699,2.1631,2.1631,2.1631,2.1672,2.1866,2.2018,2.219,2.2443,2.2644,2.2725,2.2584,2.2544,2.2463,2.213,1.9969,1.8324,1.8364,1.8332,1.8341,1.847,1.8621,1.8749,1.8789,1.8948,1.9067,1.9067,1.9216,1.9295,1.9295,1.9295,1.9295,1.9295,1.9295,1.9295,1.9295,1.9943,2.0265,2.0255,2.1126,2.1586,2.1596,2.0837,2.0595,0.0,0.0,0.0,0.0,0.0,0.0,0.0,0.0,0.0,0.0,0.0,2.1385,2.1596,0.0,2.2553,2.2553,2.3021,2.3362,2.3362,2.3798,2.3772,2.2892,2.3042,2.3238,2.335,2.3351,2.3246,2.3011,2.3008,2.2924,2.2755,2.2432,2.2264,2.2264,2.1874,2.1696,2.1696,2.1696,2.1696,2.1696,2.1696,2.1696,2.1696,2.1696,2.1696,2.1696,2.1696,2.1696,2.1696,2.1696,2.1696,2.1696,2.1696,2.1559,2.142,2.1692,2.1649,2.1558,2.1978,2.2064,2.2074,2.2382,2.2415,2.232,2.2467,2.2363,2.2197,2.2197,2.2051,2.1885,2.1885,2.1885,2.1926,2.205,2.2205,2.24,2.2655,2.29,2.3073,2.3184,2.3184,2.3184,2.3073,2.1839,2.0711,2.0177,1.982,1.9616,1.9738,1.9861,1.9942,1.9942,2.0357,2.0609,2.0609,2.0981,2.1164,2.0909,2.0899,2.0801,2.0576,2.0527,2.0527,2.0527,2.1049,2.128,2.128,2.1939,2.2289,2.2402,2.1966,2.1728,0.0,0.0,0.0,0.0,0.0,0.0,0.0,0.0,2.1787,2.1125,2.168,2.2289,2.2289,2.2665,2.3034,2.3121,2.3433,2.3727,2.3825,2.4312,2.4465,2.4061,2.4366,2.4591,2.4449,2.4449,2.4347,2.4039,2.4016,2.393,2.38,2.3299,2.3003,2.3003,2.2309,2.1909,2.1909,2.1776,2.1696,2.1696,2.1696,2.1696,2.1696,2.1696,2.1696,2.1696,2.1696,2.1696,2.1696,2.1696,2.1696,2.1696,2.1696,2.1731,2.183,2.2052,2.2185,2.2318,2.2715,2.2838,2.2882,2.3057,2.3091,2.3091,2.3091,2.2857,2.2637,2.2637,2.2393,2.2129,2.2222,2.2212,2.2212,2.2338,2.2462,2.2619,2.2867,2.3073,2.3248,2.3412,2.3453,2.3453,2.3453,2.3453,2.3094,2.2062,2.132,2.0936,2.1093,2.1093,2.1093,2.1093,2.1744,2.2134,2.2134,2.2808,2.3029,2.2656,2.2635,2.247,2.2087,2.2115,2.2112,2.198,2.2199,2.2233,2.2138,2.2365,2.2553,2.2703,2.274,2.2665,2.0012,2.1183,2.189,2.1825,2.2014,2.2241,0.0,0.0,2.2628,2.2692,2.2804,2.2889,2.2889,2.2964,2.3143,2.3542,2.3662,2.3886,2.4334,2.4803,2.5117,2.5051,2.5106,2.5284,2.5639,2.5683,2.5453,2.4807,2.4775,2.4498,2.3833,2.3714,2.3671,2.3671,2.3047,2.2671,2.2671,2.2043,2.1696,2.1696,2.1696,2.1696,2.1696,2.1696,2.1696,2.1696,2.1696,2.1696,2.1696,2.1696,2.1696,2.1696,2.1696,2.183,2.2097,2.2309,2.253,2.275,2.3013,2.3057,2.3057,2.3091,2.3091,2.3091,2.3091,2.3062,2.3023,2.3023,2.2994,2.2998,2.3268,2.3311,2.3451,2.3839,2.3968,2.4053,2.4214,2.431,2.4352,2.4352,2.4342,2.4342,2.4342,2.4342,2.4031,2.3176,2.293,2.289,2.289,2.289,2.289,2.289,2.3022,2.3062,2.3062,2.3143,2.3163,2.3111,2.3111,2.3091,2.3039,2.3229,2.311,2.2691,2.2886,2.279,2.2365,2.2553,2.2665,2.2703,2.2889,2.2964,2.0595,2.1586,0.0,0.0,2.2515,2.2628,2.2815,2.2889,2.2889,2.2964,2.3001,2.3001,2.3001,2.323,2.3455,0.0,2.4203,2.4639,2.4898,2.5295,2.56,2.56,2.56,2.5677,2.5884,2.5895,2.577,2.5506,2.5464,2.5338,2.502,2.4627,2.4456,2.4456,2.3767,2.3377,2.3377,2.3071,2.2731,2.2353,2.2731,2.2731,2.2353,2.2731,2.294,2.2896,2.252,2.2353,2.2318,2.1865,2.1696,2.1696,2.1696,2.1954,2.2264,2.2353,2.2574,2.2847,2.3013,2.3091,2.3091,2.3091,2.3091,2.3091,2.3091,2.3091,2.3091,2.3091,2.3232,2.3363,2.346,2.359,2.3711,2.3927,2.4067,2.4196,2.4292,2.4421,2.4497,2.4497,2.4497,2.4497,2.4497,2.4497,2.4373,2.4033,2.3981,2.3981,2.3981,2.3981,2.3981,2.3981,2.3981,2.3981,2.3981,2.3981,2.3867,2.3608,2.3711,2.3668,2.3396,2.3566,2.3591,2.344,2.3638,2.3649,2.3455,2.366,2.3748,2.3748,2.3825,2.3864,2.126,0.0,0.0,2.2628,2.274,2.2815,2.2964,2.3001,2.3001,2.3001,2.3001,2.3045,2.3176,2.3455,0.0,2.4082,2.4716,2.5259,2.5349,2.5677,2.5895,2.5895,2.5895,2.5895,2.5895,2.5895,2.5895,2.5895,2.5895,2.5895,2.5895,2.5422,2.5168,2.5168,2.4498,2.4102,2.4102,2.3887,2.3551,2.3091,2.3594,2.3551,2.3091,2.3584,2.38,2.3757,2.3299,2.3135,2.3222,2.2687,2.2555,2.2624,2.2624,2.2721,2.2862,2.2862,2.2872,2.2882,2.3047,2.3091,2.3091,2.3091,2.3091,2.3091,2.3091,2.3091,2.3135,2.3188,2.3363,2.359,2.396,2.4166,2.4337,2.4627,2.485,2.4978,2.4978,2.4946,2.4861,2.4861,2.4658,2.4497,2.4497,2.4497,2.4497,2.4497,2.4497,2.4497,2.4497,2.4497,2.4497,2.4497,2.4497,2.4497,2.4497,2.4497,2.4405,2.42,2.4305,2.4272,2.3977,2.419,2.4247,2.4159,2.436,2.4426,2.4295,2.4436,2.4486,2.4497,2.4713,2.482,0.0,0.0,2.2927,2.274,2.2852,2.3001,2.3001,2.3001,2.3001,2.3001,2.3001,2.3143,2.3575,2.3684,2.4039,2.5018,2.5193,2.5379,2.5808,2.5895,2.5895,2.5895,2.5895,2.5895,0.0,2.5895,2.5895,2.5895,2.5895,2.5895,2.5895,2.5895,2.5853,2.5853,2.5211,2.4861,2.4861,2.4155,2.38,2.3757,2.38,2.38,2.3757,2.38,2.38,2.38,2.38,2.4016,2.4456,2.4413,2.4648,2.4999,2.4999,2.4628,2.4049,2.4049,2.3637,2.3101,2.3091,2.3091,2.3091,2.3091,2.3091,2.3091,2.3091,2.3091,2.3135,2.3406,2.3503,2.3787,2.5115,2.5442,2.5694,2.673,2.7028,2.7028,2.7028,2.6359,2.5746,2.5746,2.5062,2.4497,2.4497,2.4497,2.4497,2.4497,2.4497,2.4497,2.4497,2.4497,2.4497,2.4497,2.4497,2.4497,2.4497,2.4497,2.4615,2.484,2.4882,2.4956,2.5158,2.5379,2.529,2.4764,2.502,2.4934,2.4486,2.4486,2.4486,2.4526,2.5294,2.567,0.0,0.0,2.2815,2.2889,2.2964,2.3001,2.3001,2.3001,2.3001,2.3001,2.3263,2.3498,2.3662,2.4257,2.4792,2.5161,2.5448,2.571,2.5884,2.5895,2.5895,2.5895,2.5895,0.0,0.0,0.0,0.0,2.5895,2.5895,2.5895,2.5895,2.5895,2.5895,2.5895,2.5686,2.5549,2.5549,2.5558,2.5368,2.4935,2.4935,2.5158,2.5589,2.5316,2.52,2.5158,2.4722,2.4787,2.5115,2.4659,2.4734,2.5083,2.5083,2.5094,2.502,2.502,2.4988,2.4734,2.3517,2.3091,2.3091,2.3091,2.3091,2.3091,2.3091,2.3091,2.3135,2.3188,2.3897,2.4681,2.5136,2.5891,2.6648,2.7028,2.711,2.711,2.711,2.6864,2.6648,2.6648,2.6412,2.6216,2.6216,2.6216,2.6287,2.6453,2.5348,2.4583,2.4743,2.5221,2.5631,2.5799,2.6359,2.6666,2.6666,2.6666,2.6707,2.683,2.6964,2.7046,2.7128,2.7342,2.7383,2.7208,2.73,2.7259,2.7095,2.7095,2.7095,2.7095,2.736,2.7467,0.0,2.2927,2.2852,2.2964,2.3001,2.3001,2.3001,2.3001,2.3001,2.3001,2.3356,2.3749,2.3962,2.4639,2.527,2.5404,2.5699,2.5895,2.5895,2.5895,2.5895,2.5895,2.5895,0.0,0.0,0.0,0.0,2.5895,2.5895,2.5895,2.5895,2.5895,2.5895,2.5895,2.6052,2.6063,2.5895,2.6456,2.6517,2.6121,2.6121,2.634,2.6734,2.6498,2.6385,2.6343,2.5904,2.5977,2.6299,2.5893,2.5955,2.6307,2.6307,2.6235,2.6121,2.6121,2.5997,2.561,2.4488,2.4059,2.4059,2.4059,2.4059,2.4059,2.4059,2.4059,2.4102,2.4264,2.4925,2.5714,2.6213,2.6964,2.7678,2.7971,2.8051,2.8051,2.8051,2.781,2.7597,2.7597,2.7313,2.711,2.711,2.711,2.7191,2.7464,2.6412,2.5673,2.5913,2.64,2.676,2.6964,2.7481,2.7792,2.7792,2.7792,2.7832,2.7924,2.8044,2.8136,2.8215,2.8347,2.8386,2.8386,2.8386,2.8386,2.8386,2.8386,2.8386,2.8426,2.8703,2.89,2.2964,2.3001,2.3001,2.3001,2.3001,2.3001,2.3001,2.3001,2.3012,2.3034,2.3427,2.388,0.0,0.0,2.5401,2.5861,2.5937,2.5937,2.5979,2.5937,2.5937,0.0,0.0,0.0,0.0,0.0,0.0,2.5895,0.0,2.5895,2.5895,2.5895,2.5895,2.5895,2.6249,2.629,2.5895,2.6745,2.7226,2.7267,2.7267,2.7226,2.7226,2.7226,2.7185,2.7185,2.7185,2.7493,2.7893,2.7893,2.8122,2.851,2.851,2.8007,2.7267,2.7267,2.6712,2.5955,2.5955,2.5872,2.5777,2.5777,2.5777,2.5777,2.5777,2.5777,2.5902,2.6348,2.6513,2.6853,2.8171,2.8542,2.8791,2.9585,2.9792,2.9792,2.9792,2.917,2.8581,2.8581,2.7851,2.7232,2.7273,2.7273,2.7354,2.7626,2.7666,2.7706,2.7804,2.7832,2.7884,2.7924,2.7964,2.7952,2.7952,2.7952,2.8044,2.8255,2.8255,2.8335,2.8545,2.8545,2.8545,2.8545,2.8545,2.8545,2.8545,2.8545,2.8545,2.8545,2.9381,2.9884,2.3001,2.3001,2.3001,2.3001,2.3001,2.3001,2.3001,2.3001,2.311,2.3433,2.394,2.4443,0.0,0.0,0.0,2.6268,2.6332,0.0,2.6816,2.658,0.0,0.0,0.0,2.5895,2.5895,2.5895,0.0,0.0,2.5895,2.5895,2.5895,2.5895,2.5895,2.5895,2.6021,2.6021,2.5895,2.6745,2.751,2.8179,2.7869,2.7708,2.7708,2.736,2.7185,2.7185,2.7185,2.7493,2.7893,2.7893,2.8122,2.851,2.851,2.8339,2.8179,2.8179,2.8007,2.7794,2.7794,2.6917,2.5777,2.5777,2.5777,2.5777,2.5777,2.5777,2.5861,2.613,2.6789,2.7585,2.8068,2.8819,2.9534,2.9753,2.9792,2.9792,2.9792,2.9624,2.9456,2.9456,2.93,2.917,2.9314,2.9341,2.9457,2.9819,2.9883,2.9433,2.8176,2.86,2.9045,2.9213,2.9819,3.0177,3.0177,3.0177,3.0216,3.0254,3.0254,3.0266,3.0343,3.0343,3.0343,3.0343,3.0343,3.0343,3.0343,3.0343,3.0343,3.0343,3.0722,3.091,2.3001,2.3001,2.3001,2.3001,2.3001,2.3056,2.3274,2.3318,2.346,2.3962,2.4454,0.0,0.0,0.0,0.0,0.0,0.0,0.0,2.6857,2.6846,2.6816,0.0,2.6622,0.0,2.6456,2.6456,2.6385,0.0,2.6021,2.5895,2.5895,2.5895,2.5895,2.5895,2.6052,2.6343,2.6768,2.7074,2.7644,2.851,2.8271,2.8163,2.8163,2.7898,2.7765,2.7765,0.0,2.7938,2.8163,2.8163,2.8323,2.851,2.851,2.851,2.851,2.851,2.851,2.851,2.851,2.7874,2.711,2.711,2.7191,2.7273,2.7273,2.7273,2.7302,2.7481,2.8016,2.8569,2.8779,2.9326,2.9792,2.9792,2.9792,2.9792,2.9792,2.9792,2.9792,2.9792,2.9792,2.9869,3.0075,3.0113,3.0241,3.0622,3.0698,3.0368,2.9498,2.9819,3.0139,3.0266,3.0697,3.0986,3.0986,3.0986,3.0986,3.0986,3.0986,3.0986,3.0986,3.0986,3.0986,3.0986,3.0986,3.0986,3.0986,3.0986,3.1061,3.1123,3.1235,3.1384,2.3001,2.3001,2.3001,2.3001,2.3045,2.3209,2.3596,2.3749,2.3973,2.4476,0.0,0.0,2.5303,0.0,2.5979,2.5979,0.0,2.6693,2.6693,2.7021,2.7267,2.7267,2.7226,2.7185,2.7185,2.7185,2.7021,2.661,2.6249,2.6021,2.5906,2.5937,2.6021,2.6063,2.6415,2.6992,2.7893,2.7493,2.7684,2.851,2.851,2.851,2.851,2.851,2.851,2.851,0.0,0.0,2.851,2.851,2.851,2.851,2.851,2.851,2.851,2.851,2.851,2.851,2.851,2.8657,2.8843,2.8791,2.8922,2.9091,2.9091,2.9091,2.9131,2.9341,2.9419,2.947,2.974,2.9792,2.9792,2.9792,2.9792,2.9792,2.9792,2.9792,2.9792,2.9792,2.9792,2.9869,3.0113,3.0152,3.0267,3.0698,3.0736,3.0811,3.0986,3.0986,3.0986,3.0986,3.0986,3.0986,3.0986,3.0986,3.0986,3.0986,3.0986,3.0986,3.0986,3.0986,3.0986,3.0986,3.0986,3.0986,3.0986,3.1024,3.1123,3.131,3.1347,3.1582,2.3001,2.3001,2.3001,2.3001,2.3307,2.3585,2.3673,2.405,0.0,0.0,0.0,2.5336,2.5699,2.6121,0.0,2.6415,0.0,0.0,0.0,0.0,2.78,0.0,0.0,0.0,0.0,0.0,0.0,0.0,0.0,2.6663,2.5937,2.6218,2.6569,2.694,2.7021,2.7319,2.7881,2.78,2.803,2.851,2.851,2.851,2.851,2.851,2.851,2.851,2.851,0.0,2.851,2.851,2.851,2.851,2.851,2.851,2.851,2.851,2.851,2.851,2.851,2.8749,2.9,2.8831,2.8922,2.9091,2.9091,2.9091,2.9131,2.9341,2.9419,2.947,2.974,2.9792,2.9792,2.9792,2.9792,2.9792,2.9792,2.9792,2.9792,2.9792,2.9792,2.9934,3.0292,3.0368,3.0482,3.0874,3.0949,3.0949,3.0986,3.0986,3.0986,3.0986,3.0986,3.0986,3.0986,3.0986,3.0986,3.0986,3.0986,3.0986,3.0986,3.0986,3.0986,3.0986,3.0986,3.0986,3.0986,3.1161,3.1272,3.131,3.1619,3.1817,2.3001,2.3001,2.3056,2.3318,2.352,2.3825,2.4366,0.0,0.0,0.0,0.0,2.5622,2.5852,0.0,0.0,0.0,0.0,0.0,0.0,0.0,0.0,0.0,0.0,0.0,0.0,0.0,0.0,0.0,0.0,2.729,2.6622,2.6775,2.6981,2.7185,2.7185,2.7441,2.7893,2.7893,2.8082,2.851,2.851,2.851,2.851,2.851,2.851,2.851,2.851,0.0,2.851,2.851,2.851,2.851,2.851,2.851,2.851,2.851,2.851,2.851,2.8618,2.8855,2.9091,2.9106,2.9287,2.9456,2.9456,2.9456,2.9495,2.9573,2.9611,2.965,2.9753,2.9792,2.9792,2.9792,2.9792,2.9792,2.9792,2.9792,2.9792,2.9792,2.9869,3.0049,3.0368,3.0482,3.0647,3.0949,3.0986,3.0986,3.0986,3.0986,3.0986,3.0986,3.0986,3.0986,3.0986,3.0986,3.0986,3.0986,3.0986,3.0986,3.0986,3.0986,3.0986,3.0986,3.0986,3.0986,3.0986,3.1198,3.1347,3.1471,3.178,3.1963,2.3001,2.3078,2.3252,2.3596,2.3847,2.4235,2.504,2.5292,0.0,0.0,0.0,2.5895,2.5895,0.0,0.0,0.0,0.0,0.0,0.0,0.0,0.0,0.0,0.0,0.0,0.0,0.0,0.0,0.0,0.0,0.0,2.736,2.736,2.74,2.747,2.747,2.7655,2.8002,2.8042,2.8203,2.851,2.851,2.851,2.851,2.851,2.851,2.851,2.851,0.0,0.0,2.851,2.851,2.851,2.851,2.851,2.851,2.851,2.851,2.855,2.8724,2.8922,2.9131,2.9341,2.956,2.9792,2.9792,2.9792,2.9792,2.9792,2.9792,2.9792,2.9792,2.9792,2.9792,2.9792,2.9792,2.9792,2.9792,2.9792,2.9792,2.9792,2.9972,3.0152,3.0368,3.0571,3.0773,3.0986,3.0986,3.0986,3.0986,3.0986,3.0986,3.0986,3.0986,3.0986,3.0986,3.0986,3.0986,3.0986,3.0986,3.0986,3.0986,3.0986,3.1048,3.1222,3.1123,3.1123,3.131,3.1384,3.1508,3.1683,3.2023,3.2264,2.3001,2.3329,2.364,2.3684,2.4388,2.5106,2.5193,0.0,0.0,0.0,2.5895,2.5895,2.5895,2.658,0.0,0.0,0.0,0.0,0.0,0.0,0.0,0.0,0.0,0.0,0.0,0.0,0.0,0.0,0.0,0.0,2.7841,2.7841,2.8002,2.8391,2.8379,2.8391,2.8431,2.8431,2.8471,2.851,2.851,2.851,2.851,2.851,2.851,2.851,2.851,0.0,0.0,2.851,2.851,2.851,2.851,2.851,2.851,2.851,2.851,2.855,2.8724,2.8922,2.9131,2.9341,2.956,2.9792,2.9792,2.9792,2.9792,2.9792,2.9792,2.9792,2.9792,2.9792,2.9792,2.9792,2.9792,2.9792,2.9792,2.9792,2.9792,2.9792,2.9972,3.0152,3.0368,3.0571,3.0773,3.0986,3.0986,3.0986,3.0986,3.0986,3.0986,3.0986,3.0986,3.0986,3.0986,3.0986,3.0986,3.0986,3.0986,3.0986,3.0986,3.0986,3.1296,3.1978,3.1505,3.1593,3.2273,3.1986,3.1853,3.189,3.269,3.3087,2.2889,2.3362,2.3771,2.4104,2.4683,2.5292,2.5546,0.0,0.0,2.5895,2.5895,2.5895,2.5895,2.6622,2.7062,0.0,0.0,0.0,0.0,0.0,0.0,0.0,0.0,0.0,0.0,0.0,0.0,0.0,0.0,0.0,2.8271,2.8283,2.8311,2.851,2.851,2.851,2.851,2.851,2.851,2.851,2.851,2.851,2.851,2.851,2.851,2.851,2.851,0.0,0.0,2.851,2.851,2.851,2.851,2.851,2.851,2.851,2.851,2.855,2.8855,2.904,2.917,2.9534,2.9702,2.9792,2.9792,2.9792,2.9792,2.9792,2.9792,2.9792,2.9792,2.9792,2.9792,2.9792,2.9792,2.983,2.9934,2.9908,2.9869,3.0113,3.0228,3.033,3.0533,3.111,3.1566,3.164,3.2028,3.2318,3.2318,3.2318,3.2318,3.2318,3.1505,3.0986,3.0986,3.0986,3.0986,3.0986,3.0986,3.0986,3.0986,3.1431,3.1846,3.2254,3.2519,3.2804,3.3178,3.2712,3.2511,3.2511,3.2981,3.3178,2.2988,2.3569,2.4071,2.4574,2.5043,2.548,0.0,0.0,0.0,2.5895,2.5895,2.5895,2.5895,2.6622,2.7103,0.0,0.0,0.0,0.0,0.0,0.0,0.0,0.0,0.0,0.0,0.0,0.0,0.0,0.0,0.0,0.0,2.851,2.851,2.851,2.851,2.851,2.851,2.851,2.851,2.851,2.851,2.851,2.851,2.851,2.851,2.851,0.0,0.0,0.0,2.851,2.851,2.851,2.851,2.851,2.851,2.851,2.855,2.8657,2.8973,2.9131,2.9248,2.9663,2.9792,2.9792,2.9792,2.9792,2.9792,2.9792,2.9792,2.9792,2.9792,2.983,2.9908,2.9908,2.9934,3.0011,3.0152,3.0075,3.0049,3.0368,3.0444,3.0596,3.0973,3.1626,3.2182,3.2398,3.2861,3.3178,3.3178,3.3178,3.3178,3.3178,3.2282,3.1653,3.1653,3.1653,3.1653,3.1653,3.1431,3.1431,3.1653,3.1955,3.2398,3.3024,3.3388,3.3768,3.4114,3.3581,3.3318,3.3318,3.3699,3.3973,2.34,2.4093,2.4585,2.5095,2.5535,2.5895,0.0,0.0,0.0,2.5895,2.5895,2.5895,2.5895,2.6622,2.7185,2.7174,0.0,0.0,0.0,0.0,0.0,0.0,0.0,0.0,0.0,0.0,0.0,0.0,0.0,0.0,0.0,2.851,2.851,2.851,2.851,2.851,2.851,2.851,2.851,2.851,2.851,2.851,2.851,2.851,2.851,0.0,0.0,0.0,0.0,2.851,2.851,2.851,2.851,2.851,2.851,2.851,2.8618,2.8843,2.9013,2.9236,2.9419,2.9702,2.9792,2.9792,2.9792,2.9792,2.9792,2.9792,2.9792,2.9792,2.9792,2.9934,3.0113,3.0113,3.0254,3.0406,3.0406,3.0406,3.0406,3.0406,3.0571,3.0936,3.1663,3.1978,3.2362,3.3073,3.3178,3.3178,3.3178,3.3178,3.3178,3.3178,3.3178,3.3178,3.3178,3.3178,3.3178,3.3178,3.2506,3.2412,3.3143,3.247,3.2883,3.4528,3.4056,3.4211,3.5077,3.4547,3.4279,3.4312,3.5026,3.5769,2.3371,2.4334,2.5029,2.5171,2.5535,2.5895,2.5895,0.0,2.5895,2.5895,2.5895,2.5895,2.5895,2.6622,2.7185,2.7185,2.7926,0.0,0.0,0.0,0.0,0.0,0.0,0.0,0.0,0.0,0.0,0.0,0.0,0.0,0.0,2.9118,2.8922,2.851,2.851,2.851,2.851,2.851,2.851,2.851,2.851,2.851,2.851,2.851,0.0,0.0,0.0,0.0,0.0,2.851,2.851,2.851,2.851,2.851,2.851,2.8657,2.8764,2.8831,2.9197,2.9341,2.9419,2.9702,2.9792,2.9792,2.9792,2.9792,2.9792,2.9792,2.9792,2.9792,2.9792,2.9934,3.0113,3.0113,3.0254,3.0444,3.0571,3.0495,3.0482,3.0748,3.1172,3.1566,3.1942,3.2883,3.3685,3.3925,3.4423,3.4754,3.4754,3.4754,3.4754,3.4754,3.4754,3.4356,3.3297,3.3178,3.3262,3.3402,3.3178,3.3143,3.3402,3.3802,3.4245,3.4776,3.5237,3.5625,3.6053,3.54,3.5059,3.5059,3.5302,3.5816,0.0,2.4585,2.5259,2.5404,2.5677,0.0,0.0,0.0,2.5895,2.5895,2.5895,2.5895,2.5895,2.6622,2.7185,2.7185,2.7926,0.0,0.0,0.0,0.0,0.0,0.0,0.0,0.0,0.0,0.0,0.0,0.0,0.0,0.0,2.9755,2.9445,2.8855,2.8618,2.851,2.851,2.851,2.851,2.851,2.851,2.851,2.851,2.851,0.0,0.0,0.0,0.0,0.0,2.851,2.851,2.851,2.8578,2.8618,2.8657,2.8843,2.8961,2.9067,2.9302,2.947,2.956,2.9753,2.9792,2.9792,2.9792,2.9792,2.9792,2.9792,2.9792,2.9792,2.9792,3.0228,3.0621,3.0621,3.1046,3.1479,3.1616,3.1553,3.1516,3.1786,3.2101,3.247,3.2847,3.3685,3.438,3.4725,3.5166,3.5504,3.5504,3.5504,3.5504,3.5504,3.5504,3.5133,3.4211,3.4143,3.4211,3.4312,3.4158,3.4158,3.4428,3.4743,3.5041,3.5367,3.5911,3.6305,3.6492,3.6038,3.5816,3.5816,3.5816,3.6053,0.0,2.4847,2.5327,2.5786,2.5895,0.0,0.0,0.0,0.0,2.5895,2.5895,2.5895,2.5895,2.658,2.7144,2.7174,2.7926,0.0,0.0,0.0,0.0,0.0,0.0,0.0,0.0,0.0,0.0,0.0,0.0,0.0,0.0,3.0355,3.0101,2.9496,2.8922,2.859,2.851,2.855,2.855,2.851,2.855,2.855,2.851,2.851,0.0,0.0,0.0,0.0,0.0,2.859,2.8538,2.855,2.8724,2.8843,2.8843,2.9052,2.9236,2.9419,2.9419,2.9599,2.9792,2.9856,2.9895,2.9895,2.9934,2.9908,2.9792,2.9856,2.9895,2.9895,2.9934,3.0759,3.1589,3.1589,3.2398,3.3178,3.3178,3.3178,3.3178,3.3178,3.3248,3.3492,3.4177,3.4346,3.4643,3.5392,3.5504,3.5504,3.5504,3.5504,3.5504,3.5504,3.5504,3.5539,3.5688,3.5688,3.572,3.572,3.5285,3.5285,3.6005,3.535,3.5382,3.6164,3.6211,3.6305,3.6492,3.6492,3.6492,3.6492,3.6492,3.6492,2.4061,0.0,2.5753,2.5874,2.5895,2.5895,0.0,0.0,0.0,0.0,0.0,0.0,0.0,0.0,0.0,0.0,0.0,0.0,0.0,0.0,0.0,0.0,0.0,0.0,0.0,0.0,0.0,0.0,0.0,0.0,0.0,3.0996,3.0696,3.0101,2.9947,2.9419,2.851,2.8961,2.8961,2.851,2.8961,2.8961,2.851,2.851,0.0,0.0,0.0,0.0,2.9197,2.9367,2.9145,2.8764,2.8973,2.9013,2.904,2.9275,2.9341,2.9419,2.965,2.9753,2.9895,3.0444,3.0658,3.0771,3.1355,3.0722,2.9934,3.0482,3.0658,3.0758,3.1392,3.1992,3.2403,3.2403,3.2818,3.3178,3.3178,3.3178,3.3178,3.3178,3.3665,3.4109,3.4279,3.4791,3.5279,3.5472,3.5504,3.5504,3.5504,3.5504,3.5504,3.5504,3.5504,3.5539,3.5688,3.5688,3.5816,3.607,3.5975,3.5975,3.6148,3.6148,3.6148,3.6196,3.6352,3.646,3.6492,3.6492,3.6492,3.6492,3.6492,3.6492,2.4029,2.5022,2.5622,2.5852,2.5895,2.5895,2.5895,0.0,0.0,0.0,0.0,0.0,0.0,0.0,0.0,0.0,0.0,0.0,0.0,0.0,0.0,0.0,0.0,0.0,0.0,0.0,0.0,0.0,0.0,0.0,0.0,3.1666,3.1357,3.0733,3.0696,3.0292,2.9341,2.9639,2.9639,2.9341,2.9639,2.9496,2.8922,2.8922,2.9079,0.0,0.0,0.0,3.0075,3.0228,3.0177,3.0063,3.0266,3.0126,2.9832,3.0012,3.0088,3.0126,3.0254,3.0533,3.0934,3.1318,3.1452,3.1526,3.1965,3.1516,3.0934,3.1355,3.1513,3.1646,3.2096,3.2741,3.3297,3.3297,3.3796,3.4254,3.4254,3.4254,3.4254,3.4254,3.4591,3.4839,3.4839,3.5198,3.5504,3.5504,3.5504,3.5504,3.5504,3.5504,3.5504,3.5504,3.5554,3.5653,3.5831,3.5879,3.6006,3.6196,3.6274,3.6352,3.6352,3.6445,3.646,3.6352,3.6445,3.6492,3.6492,3.6492,3.6492,3.6492,3.6492,3.6492,2.391,2.4716,2.5196,2.5764,2.5895,2.5895,0.0,0.0,0.0,0.0,0.0,0.0,0.0,0.0,0.0,0.0,0.0,0.0,0.0,0.0,0.0,0.0,0.0,0.0,0.0,0.0,0.0,0.0,0.0,0.0,0.0,3.2218,3.1936,3.1381,3.1344,3.1121,3.0595,3.0482,3.0393,3.0279,3.0393,3.0139,2.9535,2.9535,2.96,0.0,0.0,0.0,3.1044,3.1082,3.1267,3.1586,3.1783,3.1429,3.0871,3.1007,3.1068,3.1068,3.1068,3.1586,3.2254,3.2254,3.2254,3.229,3.2412,3.2376,3.229,3.2412,3.2456,3.25,3.2642,3.3429,3.4177,3.4177,3.4872,3.5504,3.5504,3.5504,3.5504,3.5504,3.5504,3.5504,3.5504,3.5504,3.5504,3.5504,3.5504,3.5504,3.5504,3.5504,3.5504,3.5522,3.5621,3.5799,3.6005,3.6148,3.6211,3.6242,3.6414,3.6492,3.6492,3.6492,3.6492,3.6492,3.6492,3.6492,3.6492,3.6492,3.6492,3.6492,3.6492,3.6492,2.3354,2.4213,2.4803,2.5677,2.5895,2.5895,0.0,0.0,0.0,0.0,0.0,0.0,0.0,0.0,0.0,0.0,0.0,0.0,0.0,0.0,0.0,0.0,0.0,0.0,0.0,0.0,0.0,0.0,0.0,0.0,0.0,3.2218,3.2132,3.2059,3.2059,3.2009,3.19,3.1357,3.0809,3.0317,3.0809,3.0733,3.0165,3.0165,3.0431,0.0,0.0,3.1206,3.1686,3.1859,3.1846,3.1783,3.1978,3.1978,3.1856,3.1892,3.1928,3.1928,3.1928,3.2398,3.3038,3.3038,3.3038,3.3157,3.3825,3.3555,3.3157,3.3859,3.3693,3.3471,3.4133,3.4668,3.5034,3.5034,3.5246,3.5504,3.5504,3.5504,3.5504,3.5504,3.5504,3.5504,3.5504,3.5504,3.5504,3.5504,3.5504,3.5504,3.5504,3.5504,3.5554,3.5671,3.5688,3.5816,3.6148,3.6179,3.6274,3.6445,3.6492,3.6492,3.6492,3.6492,3.6492,3.6492,3.6492,3.6492,3.6492,3.6492,3.6492,3.6492,3.6492,3.6492,2.3323,2.3858,2.4312,2.5262,2.571,0.0,0.0,0.0,0.0,0.0,0.0,0.0,0.0,0.0,0.0,0.0,0.0,0.0,0.0,0.0,0.0,0.0,0.0,0.0,0.0,0.0,0.0,0.0,0.0,0.0,0.0,0.0,3.2218,3.2218,3.2218,3.2218,3.2218,3.19,3.1593,3.132,3.1593,3.1394,3.0771,3.0771,3.0921,3.122,0.0,3.1942,3.264,3.2903,3.308,3.3206,3.3325,3.3087,3.2684,3.2684,3.2684,3.2755,3.3206,3.3569,3.3859,3.3859,3.3859,3.3928,3.4298,3.4147,3.3962,3.4448,3.4419,3.4337,3.4702,3.5082,3.5359,3.5359,3.5439,3.5504,3.5504,3.5504,3.5504,3.5504,3.5504,3.5504,3.5504,3.5504,3.5504,3.5504,3.5504,3.5504,3.5504,3.5504,3.5554,3.5688,3.5799,3.5958,3.6164,3.6305,3.6383,3.6492,3.6492,3.6492,3.6492,3.6492,3.6492,3.6492,3.6492,3.6492,3.6492,3.6492,3.6492,3.6492,3.6492,3.6492,2.327,2.3607,2.3869,2.465,0.0,0.0,0.0,0.0,0.0,0.0,0.0,0.0,0.0,0.0,0.0,0.0,0.0,0.0,0.0,0.0,0.0,0.0,0.0,0.0,0.0,0.0,0.0,0.0,0.0,0.0,0.0,0.0,3.2218,3.2218,3.2218,3.2218,3.2218,3.2218,3.2218,3.2218,3.2218,3.1936,3.1418,3.1418,3.1418,3.1468,3.1846,3.2497,3.3339,3.3667,3.4059,3.4414,3.4414,3.4011,3.3485,3.3485,3.3485,3.3555,3.4196,3.4414,3.4414,3.4414,3.4414,3.4414,3.4414,3.4414,3.4481,3.4664,3.4817,3.4968,3.4968,3.5213,3.5504,3.5504,3.5504,3.5504,3.5504,3.5504,3.5504,3.5504,3.5504,3.5504,3.5504,3.5504,3.5504,3.5504,3.5504,3.5504,3.5504,3.5537,3.5604,3.5767,3.5926,3.61,3.6242,3.6414,3.6492,3.6492,3.6492,3.6492,3.6492,3.6492,3.6492,3.6492,3.6492,3.6492,3.6492,3.6492,3.6492,3.6492,3.6492,3.6492,2.2896,2.3383,2.3705,2.3782,0.0,0.0,0.0,0.0,0.0,0.0,0.0,0.0,0.0,0.0,0.0,0.0,0.0,0.0,0.0,0.0,0.0,0.0,0.0,0.0,0.0,0.0,0.0,0.0,0.0,0.0,0.0,0.0,0.0,3.2218,3.2218,3.2218,3.2218,3.2218,3.2218,3.2218,3.2218,3.2169,3.2132,3.2132,3.2132,3.2132,3.2503,3.2881,3.3339,3.3667,3.4059,3.4414,3.4414,3.4366,3.4298,3.4298,3.4298,3.4332,3.438,3.4414,3.4414,3.4414,3.4414,3.4414,3.4414,3.4515,3.4664,3.4698,3.4931,3.518,3.518,3.5326,3.5504,3.5504,3.5504,3.5504,3.5504,3.5504,3.5504,3.5504,3.5504,3.5504,3.5504,3.5504,3.5504,3.5504,3.5504,3.5504,3.5504,3.5621,3.5767,3.5973,3.6116,3.6274,3.646,3.6492,3.6492,3.6492,3.6492,3.6492,3.6492,3.6492,3.6492,3.6492,3.6492,3.6492,3.6492,3.6492,3.6492,3.6492,3.6492,3.6492,2.2927,2.3362,2.3694,2.3694,0.0,0.0,0.0,0.0,0.0,0.0,0.0,0.0,0.0,0.0,0.0,0.0,0.0,0.0,0.0,0.0,0.0,0.0,0.0,0.0,0.0,0.0,0.0,0.0,0.0,0.0,0.0,0.0,0.0,3.2218,3.2218,3.2218,3.2218,3.2218,3.2218,3.2218,3.2218,3.2218,3.2218,3.2218,3.23,3.2538,3.2917,3.3269,3.3632,3.4025,3.4264,3.4414,3.4414,3.4414,3.4414,3.4414,3.4414,3.4414,3.4414,3.4414,3.4414,3.4414,3.4414,3.4414,3.4414,3.4549,3.4731,3.4817,3.5016,3.518,3.518,3.5359,3.5504,3.5504,3.5504,3.5504,3.5504,3.5504,3.5504,3.5504,3.5504,3.5504,3.5504,3.5504,3.5504,3.5504,3.5504,3.5504,3.5504,3.5621,3.5784,3.5973,3.6226,3.6414,3.6492,3.6492,3.6492,3.6492,3.6492,3.6492,3.6492,3.6492,3.6492,3.6492,3.6492,3.6492,3.6492,3.6492,3.6492,3.6492,3.6492,3.6492,2.323,2.3482,2.3766,0.0,0.0,0.0,0.0,0.0,0.0,0.0,0.0,0.0,0.0,0.0,0.0,0.0,0.0,0.0,0.0,0.0,0.0,0.0,0.0,0.0,0.0,0.0,0.0,0.0,0.0,0.0,0.0,0.0,0.0,0.0,3.2218,3.2218,3.2218,3.2218,3.2218,3.2218,3.2218,3.2218,3.2218,3.2314,3.2467,3.2739,3.3234,3.3597,3.3839,3.423,3.4414,3.4414,3.4414,3.4414,3.4414,3.4414,3.4414,3.4414,3.4414,3.4414,3.4414,3.4414,3.4414,3.4414,3.4481,3.4616,3.4783,3.4935,3.5148,3.5294,3.5294,3.5392,3.5504,3.5504,3.5504,3.5504,3.5504,3.5504,3.5504,3.5504,3.5504,3.5504,3.5504,3.5504,3.5504,3.5504,3.5504,3.5537,3.5554,3.5718,3.5894,3.6132,3.6352,3.6492,3.6492,3.6492,3.6492,3.6492,3.6492,3.6492,3.6492,3.6492,3.6492,3.6492,3.6492,3.6492,3.6492,3.6492,3.6492,3.6492,3.6492,3.6523,2.3684,2.3694,0.0,0.0,0.0,0.0,0.0,0.0,0.0,0.0,0.0,0.0,0.0,0.0,0.0,0.0,0.0,0.0,0.0,0.0,0.0,0.0,0.0,0.0,0.0,0.0,0.0,0.0,0.0,0.0,0.0,0.0,0.0,0.0,3.2218,3.2218,3.2218,3.2218,3.2218,3.2218,3.2218,3.2218,3.2218,3.2538,3.2704,3.2739,3.3479,3.3805,3.3839,3.423,3.4414,3.4414,3.4414,3.4414,3.4414,3.4414,3.4414,3.4414,3.4414,3.4414,3.4414,3.4414,3.4414,3.4448,3.4631,3.4783,3.4935,3.5148,3.5326,3.5504,3.5504,3.5504,3.5504,3.5504,3.5504,3.5504,3.5504,3.5504,3.5504,3.5504,3.5504,3.5504,3.5504,3.5504,3.5504,3.5504,3.5504,3.5554,3.5688,3.5863,3.6132,3.646,3.6492,3.6492,3.6492,3.6492,3.6492,3.6492,3.6492,3.6492,3.6492,3.6492,3.6492,3.6492,3.6492,3.6492,3.6492,3.6492,3.6492,3.6492,3.6492,3.6569,2.322,0.0,0.0,0.0,0.0,0.0,0.0,0.0,0.0,0.0,0.0,0.0,0.0,0.0,0.0,0.0,0.0,0.0,0.0,0.0,0.0,0.0,0.0,0.0,0.0,0.0,0.0,0.0,0.0,0.0,0.0,0.0,0.0,0.0,3.2218,3.2218,3.2218,3.2218,3.2218,3.2218,3.2218,3.23,3.2574,3.2668,3.2988,3.3479,3.3701,3.3942,3.423,3.4346,3.4414,3.4414,3.4414,3.4414,3.4414,3.4414,3.4414,3.4414,3.4414,3.4414,3.4414,3.4414,3.4481,3.4631,3.4664,3.4883,3.5115,3.518,3.5326,3.5504,3.5504,3.5504,3.5504,3.5504,3.5504,3.5504,3.5504,3.5504,3.5504,3.5504,3.5504,3.5504,3.5504,3.5504,3.5504,3.5504,3.5572,3.5735,3.6006,3.6116,3.6211,3.646,3.6492,3.6492,3.6492,3.6492,3.6492,3.6492,3.6492,3.6492,3.6492,3.6492,3.6492,3.6492,3.6492,3.6492,3.6492,3.6492,3.6492,3.6492,3.6492,3.6569,2.4111,0.0,0.0,0.0,0.0,0.0,0.0,0.0,0.0,0.0,0.0,0.0,0.0,0.0,0.0,0.0,0.0,0.0,0.0,0.0,0.0,0.0,0.0,0.0,0.0,0.0,0.0,0.0,0.0,0.0,0.0,0.0,0.0,0.0,3.2218,3.2218,3.2218,3.2218,3.2218,3.2218,3.2336,3.2574,3.2952,3.2952,3.3234,3.3805,3.3991,3.4162,3.4414,3.4414,3.4414,3.4414,3.4414,3.4414,3.4414,3.4414,3.4414,3.4414,3.4414,3.4414,3.4414,3.4481,3.4597,3.4731,3.4865,3.5049,3.5213,3.5294,3.5407,3.5504,3.5504,3.5504,3.5504,3.5504,3.5504,3.5504,3.5504,3.5504,3.5504,3.5504,3.5504,3.5504,3.5504,3.5504,3.5504,3.5504,3.5686,3.5911,3.6179,3.6274,3.6383,3.6492,3.6492,3.6492,3.6492,3.6492,3.6492,3.6492,3.6492,3.6492,3.6492,3.6492,3.6492,3.6492,3.6492,3.6492,3.6492,3.6492,3.6492,3.6492,3.6492,3.6616,0.0,0.0,0.0,0.0,0.0,0.0,0.0,0.0,0.0,0.0,0.0,0.0,0.0,0.0,0.0,0.0,0.0,0.0,0.0,0.0,0.0,0.0,0.0,0.0,0.0,0.0,0.0,0.0,0.0,0.0,0.0,0.0,0.0,3.2218,3.2218,3.2218,3.2218,3.2218,3.2218,0.0,3.2561,3.2917,3.3339,3.3339,3.3514,3.3874,3.423,3.4414,3.4414,3.4414,3.4414,3.4414,3.4414,3.4414,3.4414,3.4414,3.4414,3.4414,3.4414,3.4414,3.4448,3.4631,3.4731,3.4798,3.5115,3.5213,3.5261,3.5439,3.5504,3.5504,3.5504,3.5504,3.5504,3.5504,3.5504,3.5504,3.5504,3.5504,3.5504,3.5504,3.5504,3.5504,3.5504,3.5504,3.5504,3.5537,3.5797,3.6068,3.6211,3.6383,3.6492,3.6492,3.6492,3.6492,3.6492,3.6492,3.6492,3.6492,3.6492,3.6492,3.6492,3.6492,3.6492,3.6492,3.6492,3.6492,3.6492,3.6492,3.6492,3.6492,3.6523,3.6677,0.0,0.0,0.0,0.0,0.0,0.0,0.0,0.0,0.0,0.0,0.0,0.0,0.0,0.0,0.0,0.0,0.0,0.0,0.0,0.0,0.0,0.0,0.0,0.0,0.0,0.0,0.0,0.0,0.0,0.0,0.0,0.0,0.0,3.2218,3.2218,3.2218,3.2218,3.2218,3.2336,0.0,3.2668,3.3058,3.3701,3.3701,3.3908,3.4264,3.4346,3.4414,3.4414,3.4414,3.4414,3.4414,3.4414,3.4414,3.4414,3.4414,3.4414,3.4414,3.4414,3.4481,3.4631,3.4698,3.4865,3.5115,3.5195,3.5326,3.5439,3.5504,3.5504,3.5504,3.5504,3.5504,3.5504,3.5504,3.5504,3.5504,3.5504,3.5504,3.5504,3.5504,3.5504,3.5504,3.5504,3.5504,3.5587,3.5861,3.5941,3.61,3.6383,3.646,3.6492,3.6492,3.6492,3.6492,3.6492,3.6492,3.6492,3.6492,3.6492,3.6492,3.6492,3.6492,3.6492,3.6492,3.6492,3.6492,3.6492,3.6492,3.6492,3.6492,3.66,3.677,0.0,0.0,0.0,0.0,0.0,0.0,0.0,0.0,0.0,0.0,0.0,0.0,0.0,0.0,0.0,0.0,0.0,0.0,0.0,0.0,0.0,0.0,0.0,0.0,0.0,0.0,0.0,0.0,0.0,0.0,0.0,3.2218,3.2218,3.2218,3.2336,3.2444,3.2444,3.2624,3.2824,3.2988,3.3164,3.3514,3.4094,3.4094,3.4196,3.4414,3.4414,3.4414,3.4414,3.4414,3.4414,3.4414,3.4414,3.4414,3.4414,3.4414,3.4414,3.4414,3.4515,3.4597,3.4731,3.4898,3.5063,3.5213,3.5326,3.5439,3.5504,3.5504,3.5504,3.5504,3.5504,3.5504,3.5504,3.5504,3.5504,3.5504,3.5504,3.5504,3.5504,3.5504,3.5504,3.5504,3.5504,3.5539,3.5686,3.5973,3.6053,3.6195,3.646,3.6492,3.6492,3.6492,3.6492,3.6492,3.6492,3.6492,3.6492,3.6492,3.6492,3.6492,3.6492,3.6492,3.6492,3.6492,3.6492,3.6492,3.6492,3.6492,3.6492,3.6492,3.6631,3.68,0.0,0.0,0.0,0.0,0.0,0.0,0.0,0.0,0.0,0.0,0.0,0.0,0.0,0.0,0.0,0.0,0.0,0.0,0.0,0.0,0.0,0.0,0.0,0.0,0.0,0.0,0.0,0.0,0.0,0.0,3.2277,3.2241,3.2255,3.2386,3.2574,3.2739,3.281,3.3129,3.3339,3.3374,3.3736,3.4094,3.4414,3.4414,3.4414,3.4414,3.4414,3.4414,3.4414,3.4414,3.4414,3.4414,3.4414,3.4414,3.4414,3.4448,3.4448,3.4481,3.4664,3.4765,3.4831,3.5115,3.5213,3.5294,3.5439,3.5504,3.5504,3.5504,3.5504,3.5504,3.5504,3.5504,3.5504,3.5504,3.5504,3.5504,3.5504,3.5504,3.5504,3.5504,3.5504,3.5504,3.5504,3.5621,3.5752,3.5973,3.6116,3.6274,3.646,3.6492,3.6492,3.6492,3.6492,3.6492,3.6492,3.6492,3.6492,3.6492,3.6492,3.6554,3.6662,3.6677,3.6693,3.68,3.66,3.6492,3.6492,3.6492,3.6492,3.6492,3.6662,3.6877,0.0,0.0,0.0,0.0,0.0,0.0,0.0,0.0,0.0,0.0,0.0,0.0,0.0,0.0,0.0,0.0,0.0,0.0,0.0,0.0,0.0,0.0,0.0,0.0,0.0,0.0,0.0,0.0,0.0,0.0,3.2596,3.2336,3.248,3.3129,3.2846,3.2881,3.3234,3.3269,3.3444,3.3736,3.4128,3.4346,3.4414,3.4414,3.4414,3.4414,3.4414,3.4414,3.4414,3.4414,3.4414,3.4414,3.4414,3.4414,3.4414,3.4597,3.4664,3.4698,3.4802,3.4983,3.5148,3.5195,3.5326,3.5472,3.5504,3.5504,3.5504,3.5504,3.5504,3.5504,3.5504,3.5504,3.5504,3.5504,3.5504,3.5504,3.5504,3.5504,3.5504,3.5504,3.5504,3.5504,3.5504,3.5621,3.5752,3.5973,3.6116,3.6274,3.646,3.6492,3.6492,3.6492,3.6492,3.6492,3.6492,3.6492,3.6492,3.6492,3.6492,3.6723,3.7268,3.7268,3.7519,3.8067,3.7028,3.6492,3.6492,3.6492,3.6492,3.6523,3.6816,3.7224,0.0,0.0,0.0,0.0,0.0,0.0,0.0,0.0,0.0,0.0,0.0,0.0,0.0,0.0,0.0,0.0,0.0,0.0,0.0,0.0,0.0,0.0,0.0,0.0,0.0,0.0,0.0,0.0,0.0,3.2538,3.2704,3.2775,3.2966,3.3304,3.3304,3.3409,3.3597,3.3805,3.3991,3.4128,3.4312,3.4414,3.4414,3.4414,3.4414,3.4414,3.4414,3.4414,3.4414,3.4414,3.4414,3.4414,3.4515,3.4563,3.4597,3.475,3.4817,3.485,3.5016,3.5115,3.5213,3.5326,3.5439,3.5504,3.5504,3.5504,3.5504,3.5504,3.5504,3.5504,3.5504,3.5504,3.5504,3.5504,3.5504,3.5504,3.5504,3.5504,3.5504,3.5504,3.5504,3.5504,3.5504,3.5686,3.5894,3.6005,3.6226,3.6383,3.6492,3.6816,3.7013,3.7013,3.7312,3.7371,3.7043,3.7013,3.6861,3.6523,3.6816,3.7118,3.7387,3.7709,3.8039,3.8278,3.746,3.7013,3.7013,3.6662,3.6554,3.6631,3.7178,3.7621,0.0,0.0,0.0,0.0,0.0,0.0,0.0,0.0,0.0,0.0,0.0,0.0,0.0,0.0,0.0,0.0,0.0,0.0,0.0,0.0,0.0,0.0,0.0,0.0,0.0,0.0,0.0,0.0,0.0,3.2881,3.2988,3.3164,3.3374,3.3563,3.3736,3.3839,3.3942,3.423,3.4414,3.4414,3.4414,3.4414,3.4414,3.4414,3.4414,3.4414,3.4414,3.4414,3.4414,3.4448,3.4481,3.4481,3.4683,3.475,3.475,3.4902,3.4968,3.5001,3.5213,3.5294,3.5294,3.5439,3.5504,3.5504,3.5504,3.5504,3.5504,3.5504,3.5504,3.5504,3.5504,3.5504,3.5504,3.5504,3.5504,3.5504,3.5504,3.5504,3.5569,3.5701,3.5765,3.5846,3.599,3.6179,3.629,3.629,3.6523,3.6723,3.6723,3.7268,3.7637,3.7637,3.8039,3.8124,3.765,3.7637,3.7431,3.6997,3.7371,3.7679,3.7854,3.8294,3.8601,3.875,3.8153,3.7767,3.7637,3.7193,3.7058,3.7163,3.7793,3.825,0.0,0.0,0.0,0.0,0.0,0.0,0.0,0.0,0.0,0.0,0.0,0.0,0.0,0.0,0.0,0.0,0.0,0.0,0.0,0.0,0.0,0.0,0.0,0.0,0.0,0.0,0.0,0.0,0.0,3.3409,3.3736,3.3444,3.3632,3.4312,3.3991,3.3991,3.438,3.438,3.4414,3.4414,3.4414,3.4414,3.4414,3.4414,3.4414,3.4414,3.4414,3.4414,3.4414,3.4597,3.4664,3.4698,3.4835,3.4902,3.4902,3.5115,3.518,3.5213,3.5407,3.5472,3.5504,3.5504,3.5504,3.5504,3.5504,3.5504,3.5504,3.5504,3.5504,3.5504,3.5504,3.5504,3.5504,3.5504,3.5504,3.5504,3.5504,3.5504,3.5683,3.6227,3.6461,3.6737,3.7383,3.7235,3.7025,3.7025,3.7207,3.7358,3.7358,3.7867,3.825,3.825,3.8278,3.8294,3.8266,3.825,3.8222,3.821,3.8238,3.8518,3.9082,3.9152,3.9418,3.9995,3.9418,3.8821,3.825,3.8351,3.839,3.8418,3.8707,3.9149,0.0,0.0,0.0,0.0,0.0,0.0,0.0,0.0,0.0,0.0,0.0,0.0,0.0,0.0,0.0,0.0,0.0,0.0,0.0,0.0,0.0,0.0,0.0,0.0,0.0,0.0,0.0,0.0,0.0,0.0,3.3805,3.3908,3.4128,3.438,3.4264,3.423,3.4414,3.4414,3.4414,3.4414,3.4414,3.4414,3.4414,3.4414,3.4414,3.4414,3.4414,3.4414,3.4414,3.4481,3.4597,3.4698,3.4835,3.4968,3.5115,3.5326,3.5392,3.5392,3.5472,3.5504,3.5504,3.5504,3.5504,3.5504,3.5504,3.5504,3.5504,3.5504,3.5504,3.5504,3.5504,3.5504,3.5504,3.5504,3.5504,3.5587,3.599,3.6085,3.6133,3.6368,3.6799,3.7235,3.7531,3.756,3.7573,3.7674,3.7851,3.7982,3.7982,3.849,3.8892,3.8892,3.9216,3.9295,3.8903,3.8892,3.8712,3.8306,3.8657,3.8974,3.9206,3.9575,3.9876,4.0113,3.9893,3.947,3.8892,3.8629,3.853,3.864,3.9219,3.9638,0.0,0.0,0.0,0.0,0.0,0.0,0.0,0.0,0.0,0.0,0.0,0.0,0.0,0.0,0.0,0.0,0.0,0.0,0.0,0.0,0.0,0.0,0.0,0.0,0.0,0.0,0.0,0.0,0.0,0.0,3.3991,3.423,3.4414,3.4414,3.4414,3.4414,3.4414,3.4414,3.4414,3.4414,3.4414,3.4414,3.4414,3.4414,3.4414,3.4414,3.4481,3.4448,3.4414,3.4501,3.465,3.4783,3.5016,3.518,3.5326,3.5439,3.5504,3.5504,3.5504,3.5504,3.5504,3.5504,3.5504,3.5504,3.5504,3.5504,3.5537,3.5733,3.5797,3.5797,3.5797,3.5651,3.5569,3.5765,3.5651,3.5683,3.6258,3.6399,3.6523,3.6951,3.7456,3.7921,3.825,3.8278,3.8306,3.8386,3.853,3.8601,3.8601,3.9135,3.9497,3.9497,3.985,3.9944,3.954,3.9497,3.9339,3.893,3.9269,3.9497,3.9497,3.9893,4.0096,4.0096,4.0096,3.9901,3.9566,3.9279,3.9252,3.9385,3.9927,4.022,0.0,0.0,0.0,0.0,0.0,0.0,0.0,0.0,0.0,0.0,0.0,0.0,0.0,0.0,0.0,0.0,0.0,0.0,0.0,0.0,0.0,0.0,0.0,0.0,0.0,0.0,0.0,0.0,0.0,3.4414,3.4414,3.4414,3.4414,3.4414,3.4414,3.4414,3.4414,3.4414,3.4414,3.4414,3.4414,3.4414,3.4414,3.4414,3.4414,3.4414,3.4631,3.4597,3.4448,3.4769,3.4902,3.4935,3.5326,3.5504,3.5504,3.5504,3.5504,3.5504,3.5504,3.5504,3.5504,3.5504,3.5504,3.5504,3.5504,3.5504,3.5651,3.6227,3.6399,3.643,3.643,3.599,3.5701,3.629,3.599,3.5701,3.6321,3.6461,3.6829,3.808,3.8541,3.8924,3.9582,3.9435,3.9232,3.9232,3.9232,3.9232,3.9232,3.9747,4.0096,4.0096,4.0096,4.0096,4.0096,4.0096,4.0096,4.0096,4.0096,4.0096,4.0096,4.0096,4.0096,4.0096,4.0096,4.0163,4.0305,4.0436,4.0558,4.0697,4.084,4.0912,2.851,0.0,0.0,0.0,0.0,0.0,0.0,0.0,0.0,0.0,0.0,0.0,0.0,0.0,0.0,0.0,0.0,0.0,0.0,0.0,0.0,0.0,0.0,0.0,0.0,0.0,0.0,0.0,3.4414,3.4414,3.4414,3.4414,3.4414,3.4414,3.4414,3.4414,3.4414,3.4414,3.4414,3.4414,3.4414,3.4414,3.4414,3.4414,3.4481,3.4631,3.4664,3.4716,3.4769,3.4868,3.5001,3.5115,3.5261,3.5359,3.5504,3.5504,3.5504,3.5504,3.5504,3.5504,3.5504,3.5504,3.5504,3.5504,3.5504,3.5797,3.6196,3.6337,3.6753,3.7131,3.7131,3.6996,3.6906,3.7071,3.6996,3.7041,3.7648,3.7764,3.7908,3.8362,3.8909,3.9398,3.9781,3.9781,3.9738,3.9841,3.985,3.985,3.985,3.9995,4.0096,4.0096,4.0096,4.0096,4.0096,4.0096,4.0096,4.0096,4.0096,4.0096,4.0096,4.0096,4.0096,4.0096,4.0096,4.0196,4.0436,4.0485,4.0558,4.0697,4.084,4.0912,0.0,0.0,0.0,0.0,0.0,0.0,2.9678,2.9793,0.0,0.0,0.0,0.0,0.0,0.0,0.0,0.0,0.0,0.0,0.0,0.0,0.0,0.0,0.0,0.0,0.0,0.0,0.0,3.4414,3.4414,3.4414,3.4414,3.4414,3.4414,3.4414,3.4414,3.4414,3.4414,3.4414,3.4414,3.4414,3.4414,3.4414,3.4414,3.4481,3.4597,3.4698,3.4865,3.4949,3.5034,3.5115,3.518,3.5213,3.5294,3.5392,3.5504,3.5504,3.5504,3.5504,3.5504,3.5504,3.5504,3.5504,3.5504,3.5569,3.5797,3.6101,3.6508,3.7041,3.7472,3.7822,3.8112,3.7809,3.7458,3.7706,3.756,3.7576,3.8165,3.8306,3.8435,3.8854,3.9265,3.9642,3.9875,3.9952,4.0011,4.007,4.0096,4.0096,4.0096,4.0096,4.0096,4.0096,4.0096,4.0096,4.0096,4.0096,4.0096,4.0096,4.0096,4.0096,4.0096,4.0096,4.0096,4.0096,4.0096,4.0221,4.051,4.051,4.0607,4.0793,4.0847,4.0912,0.0,0.0,0.0,0.0,0.0,0.0,3.0393,3.0431,3.072,0.0,0.0,0.0,0.0,0.0,0.0,0.0,0.0,0.0,0.0,0.0,0.0,0.0,0.0,0.0,0.0,3.4414,3.4414,3.4414,3.4414,3.4414,3.4414,3.4414,3.4414,3.4481,3.4448,3.4448,3.4481,3.4448,3.4414,3.4414,3.4414,3.4414,3.4414,3.4597,3.4698,3.4731,3.5049,3.5213,3.5261,3.5439,3.5392,3.5261,3.5439,3.5504,3.5504,3.5602,3.5587,3.5619,3.5683,3.5716,3.5716,3.5716,3.5716,3.5797,3.6337,3.6554,3.686,3.8051,3.8407,3.8562,3.9148,3.8467,3.7751,3.8294,3.801,3.7751,3.8294,3.8435,3.8645,3.9379,3.9616,3.9755,3.9901,4.0011,4.0096,4.0096,4.0096,4.0096,4.0096,4.0096,4.0096,4.0096,4.0096,4.0096,4.0096,4.0096,4.0096,4.0096,4.0096,4.0096,4.0096,4.0096,4.0096,4.0096,4.0121,4.0288,4.0534,4.0534,4.068,4.0912,4.0912,4.0912,0.0,0.0,0.0,0.0,0.0,0.0,3.0921,3.1281,3.1686,0.0,0.0,0.0,0.0,0.0,0.0,0.0,0.0,0.0,0.0,0.0,0.0,0.0,0.0,0.0,0.0,3.4414,3.4414,3.4414,3.4414,3.4414,3.4414,3.4414,3.4601,3.5037,3.4635,3.4601,3.5037,3.4635,3.4414,3.4414,3.4414,3.4414,3.4414,3.4597,3.475,3.4868,3.5115,3.5294,3.5439,3.5472,3.5472,3.5439,3.5472,3.5504,3.5554,3.6053,3.6227,3.629,3.6845,3.7027,3.7027,3.7027,3.7027,3.7041,3.7161,3.7531,3.808,3.8871,3.9104,3.9148,3.9272,3.9121,3.8969,3.9094,3.9023,3.8969,3.9094,3.9202,3.9335,3.9599,3.9677,3.9781,4.0037,4.007,4.0096,4.0096,4.0096,4.0096,4.0096,4.0096,4.0096,4.0096,4.0096,4.0096,4.0096,4.0096,4.0096,4.0096,4.0096,4.0096,4.0096,4.0096,4.0096,4.0096,4.0296,4.051,4.0673,4.0752,4.0847,4.0912,4.0912,4.0912,0.0,0.0,0.0,3.1172,0.0,0.0,0.0,3.2245,3.2676,0.0,0.0,0.0,0.0,0.0,0.0,0.0,0.0,0.0,0.0,0.0,0.0,0.0,0.0,0.0,0.0,3.4414,3.4414,3.4414,3.4414,3.4414,3.4414,3.4414,3.4635,3.5169,3.4953,3.5037,3.5544,3.5037,3.4787,3.4802,3.4534,3.4534,3.4787,3.4986,3.5317,3.577,3.5959,3.6212,3.643,3.643,3.643,3.6399,3.6085,3.5941,3.6022,3.6662,3.689,3.6951,3.728,3.7399,3.7399,3.7399,3.7399,3.7458,3.7764,3.8294,3.8871,3.9202,3.9299,3.9299,3.9299,3.9299,3.9299,3.9299,3.9299,3.9325,3.9395,3.9432,3.9563,3.9755,3.9781,3.9858,4.0087,4.0096,4.0096,4.0096,4.0096,4.0096,4.0096,4.0096,4.0096,4.0096,4.0096,4.0096,4.0096,4.0096,4.0096,4.0096,4.0096,4.0096,4.0096,4.0096,4.0121,4.0188,4.0461,4.0648,4.0697,4.084,4.0912,4.0912,4.0912,4.0912,0.0,0.0,0.0,0.0,0.0,3.2596,0.0,0.0,0.0,0.0,0.0,0.0,0.0,0.0,0.0,0.0,0.0,0.0,0.0,0.0,0.0,0.0,0.0,0.0,0.0,3.4414,3.4414,3.4414,3.4414,3.4414,3.4414,3.4414,3.4702,3.5332,3.5267,3.5415,3.5881,3.5415,3.5136,3.5037,3.4687,3.4787,3.5201,3.5497,3.5977,3.66,3.6874,3.7161,3.7399,3.7399,3.7399,3.734,3.6799,3.66,3.6662,3.734,3.756,3.7605,3.7722,3.778,3.778,3.778,3.778,3.7867,3.8351,3.8871,3.9299,3.9299,3.9299,3.9299,3.9299,3.9299,3.9299,3.9299,3.9325,3.9352,3.9475,3.9554,3.9642,3.9849,3.9926,3.9961,4.0087,4.0096,4.0096,4.0096,4.0096,4.0096,4.0096,4.0096,4.0096,4.0096,4.0096,4.0096,4.0096,4.0096,4.0096,4.0096,4.0096,4.0096,4.0096,4.0121,4.0213,4.0379,4.06,4.0721,4.0745,4.084,4.0912,4.0912,4.0912,4.0912,0.0,0.0,0.0,0.0,3.2218,0.0,0.0,0.0,0.0,0.0,0.0,0.0,0.0,0.0,0.0,0.0,0.0,0.0,0.0,0.0,0.0,0.0,0.0,0.0,0.0,0.0,3.4414,3.4414,3.4414,3.4414,3.4414,3.4414,3.4854,3.5785,3.5415,3.5415,3.5881,3.5415,3.4953,3.4515,3.492,3.5136,3.5234,3.6072,3.6523,3.6646,3.7115,3.737,3.7399,3.7399,3.7399,3.7399,3.731,3.728,3.737,3.7966,3.8193,3.8294,3.8871,3.9094,3.9094,3.9094,3.9094,3.9094,3.9175,3.9245,3.9299,3.9299,3.9299,3.9299,3.9299,3.9299,3.9299,3.9299,3.9379,3.9475,3.9501,3.9694,3.9875,3.9901,3.9986,4.0087,4.0113,4.0096,4.0096,4.0096,4.0096,4.0096,4.0096,4.0096,4.0096,4.0096,4.0096,4.0096,4.0096,4.0096,4.0096,4.0096,4.0096,4.0096,4.0096,4.0213,4.0404,4.0648,4.0673,4.0769,4.0888,4.0894,4.0912,4.0912,4.0912,4.0912,0.0,0.0,0.0,0.0,0.0,0.0,3.3269,0.0,3.3991,0.0,0.0,0.0,0.0,0.0,0.0,0.0,0.0,0.0,0.0,0.0,0.0,0.0,0.0,0.0,0.0,0.0,0.0,0.0,0.0,3.4414,3.4414,3.4414,3.4735,3.5479,3.5576,3.5864,3.6352,3.5864,3.564,3.572,3.5365,3.5593,3.6337,3.6722,3.7249,3.7879,3.8112,3.8311,3.8495,3.8495,3.8495,3.8495,3.8495,3.8254,3.7994,3.8634,3.8871,3.8925,3.9202,3.9299,3.9299,3.9299,3.9299,3.9299,3.9299,3.9299,3.9299,3.9299,3.9299,3.9299,3.9299,3.9299,3.9325,3.9405,3.9475,3.9554,3.9694,3.9824,3.991,3.9986,4.0062,4.0096,4.0096,4.0096,4.0096,4.0096,4.0096,4.0096,4.0096,4.0096,4.0096,4.0096,4.0096,4.0096,4.0096,4.0096,4.0096,4.0096,4.0096,4.0121,4.0213,4.0337,4.0527,4.0697,4.0769,4.084,4.0912,4.0912,4.0912,4.0912,4.0912,4.0912,3.2218,0.0,0.0,0.0,0.0,0.0,0.0,0.0,0.0,0.0,0.0,0.0,0.0,0.0,0.0,0.0,0.0,0.0,0.0,0.0,0.0,0.0,0.0,0.0,0.0,0.0,0.0,3.4414,3.4414,3.4414,3.4414,3.4414,3.4687,3.535,3.5721,3.6149,3.6693,3.6305,3.6258,3.6492,3.5879,3.6134,3.7131,3.7356,3.794,3.8805,3.8887,3.9067,3.9299,3.9299,3.9299,3.9299,3.9299,3.8996,3.8618,3.9121,3.9299,3.9299,3.9299,3.9299,3.9299,3.9299,3.9299,3.9299,3.9299,3.9299,3.9299,3.9299,3.9299,3.9299,3.9299,3.9299,3.9325,3.9475,3.9511,3.9616,3.9849,3.9926,3.9986,4.0087,4.0096,4.0096,4.0096,4.0096,4.0096,4.0096,4.0096,4.0096,4.0096,4.0096,4.0096,4.0096,4.0096,4.0096,4.0096,4.0096,4.0096,4.0096,4.0121,4.0213,4.0337,4.0485,4.0607,4.0745,4.0864,4.0912,4.0912,4.0912,4.0912,4.0912,4.0912,4.0912,0.0,0.0,0.0,3.2704,0.0,0.0,0.0,0.0,3.3908,0.0,0.0,0.0,0.0,0.0,0.0,0.0,0.0,0.0,0.0,0.0,0.0,0.0,0.0,0.0,0.0,0.0,0.0,3.4414,3.4414,3.4414,3.4414,3.4414,3.4854,3.5849,3.5881,3.6149,3.6693,3.6693,3.6414,3.5944,3.6414,3.6815,3.7115,3.7972,3.8516,3.8832,3.9148,3.9299,3.9299,3.9299,3.9299,3.9299,3.9299,3.9299,3.9272,3.9299,3.9299,3.9299,3.9299,3.9299,3.9299,3.9299,3.9299,3.9299,3.9299,3.9299,3.9299,3.9299,3.9299,3.9299,3.9299,3.9299,3.9325,3.9475,3.9616,3.9729,3.9875,3.9986,4.0096,4.0096,4.0096,4.0096,4.0096,4.0096,4.0096,4.0096,4.0096,4.0096,4.0096,4.0096,4.0096,4.0096,4.0096,4.0096,4.0096,4.0096,4.0096,4.0096,4.0213,4.0337,4.0485,4.0624,4.0769,4.0888,4.0912,4.0912,4.0912,4.0912,4.0912,4.0912,4.0912,4.0912,0.0,0.0,3.248,3.3002,0.0,0.0,0.0,0.0,0.0,0.0,0.0,0.0,0.0,0.0,0.0,0.0,0.0,0.0,0.0,0.0,0.0,0.0,0.0,0.0,0.0,0.0,0.0,3.4414,3.4414,3.4414,0.0,3.4414,3.4735,3.5415,3.5737,3.6149,3.6693,3.6693,3.6785,3.6952,3.6952,3.7296,3.7988,3.8444,3.8849,3.9121,3.9245,3.9299,3.9299,3.9299,3.9299,3.9299,3.9299,3.9299,3.9299,3.9299,3.9299,3.9299,3.9299,3.9299,3.9299,3.9299,3.9299,3.9299,3.9299,3.9299,3.9299,3.9299,3.9299,3.9299,3.9299,3.9352,3.9475,3.9616,3.9729,3.9858,4.0011,4.0087,4.0096,4.0096,4.0096,4.0096,4.0096,4.0096,4.0096,4.0096,4.0096,4.0096,4.0096,4.0096,4.0096,4.0096,4.0096,4.0096,4.0096,4.0096,4.0138,4.0213,4.0263,4.0404,4.0624,4.0673,4.0769,4.0912,4.0912,4.0912,4.0912,4.0912,4.0912,4.0912,4.0912,4.0912,3.2218,3.2386,0.0,3.2988,3.3374,0.0,3.4128,0.0,0.0,0.0,0.0,0.0,0.0,0.0,0.0,0.0,0.0,0.0,0.0,3.4414,0.0,0.0,0.0,0.0,0.0,0.0,3.4414,3.4414,3.4414,3.4414,0.0,0.0,3.492,3.5415,3.5928,3.6445,3.6968,3.6968,3.7165,3.751,3.7401,3.7725,3.8391,3.8683,3.8969,3.9299,3.9299,3.9299,3.9299,3.9299,3.9299,3.9299,3.9299,3.9299,3.9299,3.9299,3.9299,3.9299,3.9299,3.9299,3.9299,3.9299,3.9299,3.9299,3.9299,3.9299,3.9299,3.9299,3.9299,3.9299,3.9299,3.9405,3.9537,3.9677,3.9781,3.9952,4.0087,4.0096,4.0096,4.0096,4.0096,4.0096,4.0096,4.0096,4.0096,4.0096,4.0096,4.0096,4.0096,4.0096,4.0096,4.0096,4.0096,4.0096,4.0096,4.0096,4.0163,4.0288,4.0337,4.0478,4.0697,4.0745,4.0937,4.1291,4.1032,4.1032,4.1291,4.1032,4.0912,4.0912,4.0912,4.0912]}]]